[[{"header":{"parameterUnit":"m.s-1","parameterCategory":1,"la1":30.6,"la2":29.2853,"lo1":-89.7004,"lo2":-87.6739,"dy":0.0162,"dx":0.0183,"nx":112,"ny":82,"refTime":"2023-10-11T00:00:00:Z","depth":0,"parameterNumber":2,"parameterNumberName":"U-component_of_WINDS"},"data":[0.0,0.0,0.0,0.0,0.0,0.0,0.0,0.0,0.0,0.0,0.0,0.0,0.0,0.0,0.0,0.0,0.0,0.0,0.0,0.0,0.0,0.0,0.0,0.0,0.0,0.0,0.0,0.0,0.0,0.0,0.0,0.0,0.0,0.0,0.0,0.0,0.0,0.0,0.0,0.0,0.0,0.0,0.0,0.0,0.0,0.0,0.0,0.0,0.0,0.0,0.0,0.0,0.0,0.0,0.0,0.0,0.0,0.0,0.0,0.0,0.0,0.0,0.0,0.0,0.0,0.0,0.0,0.0,0.0,0.0,0.0,0.0,0.0,0.0,0.0,0.0,0.0,0.0,0.0,0.0,0.0,0.0,0.0,0.0,0.0,0.0,0.0,0.0,0.0,0.0,-0.8597,-0.8662,-0.9566,-1.0491,-1.1255,-1.1017,-1.0562,-1.0039,0.0,0.0,0.0,0.0,0.0,0.0,0.0,0.0,0.0,0.0,0.0,0.0,0.0,0.0,0.0,0.0,0.0,0.0,0.0,0.0,0.0,0.0,0.0,0.0,0.0,0.0,0.0,0.0,0.0,0.0,0.0,0.0,0.0,0.0,0.0,0.0,0.0,0.0,0.0,0.0,0.0,0.0,0.0,0.0,0.0,0.0,0.0,0.0,0.0,0.0,0.0,0.0,0.0,0.0,0.0,0.0,0.0,0.0,0.0,0.0,0.0,0.0,0.0,0.0,0.0,0.0,0.0,0.0,0.0,0.0,0.0,0.0,0.0,0.0,0.0,0.0,0.0,0.0,0.0,0.0,0.0,0.0,0.0,0.0,0.0,0.0,0.0,0.0,0.0,0.0,0.0,0.0,0.0,0.0,0.0,0.0,0.0,0.0,0.0,0.0,0.0,0.0,0.0,0.0,-0.8622,-0.8897,-0.968,-1.0239,-1.0391,-0.9026,-0.8684,-0.9923,0.0,0.0,0.0,0.0,0.0,0.0,0.0,0.0,0.0,0.0,0.0,0.0,0.0,0.0,0.0,0.0,0.0,0.0,0.0,0.0,0.0,0.0,0.0,0.0,0.0,0.0,0.0,0.0,0.0,0.0,0.0,0.0,0.0,0.0,0.0,0.0,0.0,0.0,0.0,0.0,0.0,0.0,0.0,0.0,0.0,0.0,0.0,0.0,0.0,0.0,0.0,0.0,0.0,0.0,0.0,0.0,0.0,0.0,0.0,0.0,0.0,0.0,0.0,0.0,0.0,0.0,0.0,0.0,0.0,0.0,0.0,0.0,0.0,0.0,0.0,0.0,0.0,0.0,0.0,0.0,0.0,0.0,0.0,0.0,0.0,0.0,0.0,0.0,0.0,0.0,0.0,0.0,0.0,0.0,0.0,0.0,0.0,0.0,0.0,0.0,0.0,0.0,0.0,-0.954,-0.9487,-0.9687,-0.9986,-1.0194,-1.0194,-0.9016,-0.8786,-0.9923,-0.9886,0.0,0.0,0.0,0.0,0.0,0.0,0.0,0.0,0.0,0.0,0.0,0.0,0.0,0.0,0.0,0.0,0.0,0.0,0.0,0.0,0.0,0.0,0.0,0.0,0.0,0.0,0.0,0.0,0.0,0.0,0.0,0.0,0.0,0.0,0.0,0.0,0.0,0.0,0.0,0.0,0.0,0.0,0.0,0.0,0.0,0.0,0.0,0.0,0.0,0.0,0.0,0.0,0.0,0.0,0.0,0.0,0.0,0.0,0.0,0.0,0.0,0.0,0.0,0.0,0.0,0.0,0.0,0.0,0.0,0.0,0.0,0.0,0.0,0.0,0.0,0.0,0.0,0.0,0.0,0.0,0.0,0.0,0.0,0.0,0.0,0.0,0.0,0.0,0.0,0.0,0.0,0.0,0.0,0.0,0.0,0.0,0.0,0.0,0.0,0.0,0.0,0.0,-0.9887,-0.9765,-1.0233,-1.0212,-1.0108,-0.9915,-0.9086,-0.89,-0.9651,-0.8829,0.0,0.0,0.0,0.0,0.0,0.0,0.0,0.0,0.0,0.0,0.0,0.0,0.0,0.0,0.0,0.0,0.0,0.0,0.0,0.0,0.0,0.0,0.0,0.0,0.0,0.0,0.0,0.0,0.0,0.0,0.0,0.0,0.0,0.0,0.0,0.0,0.0,0.0,0.0,0.0,0.0,0.0,0.0,0.0,0.0,0.0,0.0,0.0,0.0,0.0,0.0,0.0,0.0,0.0,0.0,0.0,0.0,0.0,0.0,0.0,0.0,0.0,0.0,0.0,0.0,0.0,0.0,0.0,0.0,0.0,0.0,0.0,0.0,0.0,0.0,0.0,0.0,0.0,0.0,0.0,0.0,0.0,0.0,0.0,0.0,0.0,0.0,0.0,0.0,0.0,0.0,0.0,0.0,0.0,0.0,0.0,0.0,0.0,0.0,0.0,0.0,0.0,-0.925,-0.847,-1.0047,-1.0215,-0.9885,-0.9075,-0.8189,-0.8021,-0.8761,-0.8019,0.0,0.0,0.0,0.0,0.0,0.0,0.0,0.0,0.0,0.0,0.0,0.0,0.0,0.0,0.0,0.0,0.0,0.0,0.0,0.0,0.0,0.0,0.0,0.0,0.0,0.0,0.0,0.0,0.0,0.0,0.0,0.0,0.0,0.0,0.0,0.0,0.0,0.0,0.0,0.0,0.0,0.0,0.0,0.0,0.0,0.0,0.0,0.0,0.0,0.0,0.0,0.0,0.0,0.0,0.0,0.0,0.0,0.0,0.0,0.0,0.0,0.0,0.0,0.0,0.0,0.0,0.0,0.0,0.0,0.0,0.0,0.0,0.0,0.0,0.0,0.0,0.0,0.0,0.0,0.0,0.0,0.0,0.0,0.0,0.0,0.0,0.0,0.0,0.0,0.0,0.0,0.0,0.0,0.0,0.0,0.0,0.0,0.0,0.0,0.0,0.0,0.0,-1.0586,-1.0093,-1.0196,-1.021,-1.0075,-0.9728,-0.8421,-0.8151,-0.9469,0.0,0.0,0.0,0.0,0.0,0.0,0.0,0.0,0.0,0.0,0.0,0.0,0.0,0.0,0.0,0.0,0.0,0.0,0.0,0.0,0.0,0.0,0.0,0.0,0.0,0.0,0.0,0.0,0.0,0.0,0.0,0.0,0.0,0.0,0.0,0.0,0.0,0.0,0.0,0.0,0.0,0.0,0.0,0.0,0.0,0.0,0.0,0.0,0.0,0.0,0.0,0.0,0.0,0.0,0.0,0.0,0.0,0.0,0.0,0.0,0.0,0.0,0.0,0.0,0.0,0.0,0.0,0.0,0.0,0.0,0.0,0.0,0.0,0.0,0.0,0.0,0.0,0.0,0.0,0.0,0.0,0.0,0.0,0.0,0.0,0.0,0.0,0.0,0.0,0.0,0.0,0.0,0.0,0.0,0.0,0.0,0.0,0.0,0.0,0.0,0.0,0.0,-1.1811,-1.1128,-1.0531,-1.0206,-1.0184,-1.0054,-0.9822,-0.8449,-0.8312,-1.0,0.0,0.0,0.0,0.0,0.0,0.0,0.0,0.0,0.0,0.0,0.0,0.0,0.0,0.0,0.0,0.0,0.0,0.0,0.0,0.0,0.0,0.0,0.0,0.0,0.0,0.0,0.0,0.0,0.0,0.0,0.0,0.0,0.0,0.0,0.0,0.0,0.0,0.0,0.0,0.0,0.0,0.0,0.0,0.0,0.0,0.0,0.0,0.0,0.0,0.0,0.0,0.0,0.0,0.0,0.0,0.0,0.0,0.0,0.0,0.0,0.0,0.0,0.0,0.0,0.0,0.0,0.0,0.0,0.0,0.0,0.0,0.0,0.0,0.0,0.0,0.0,0.0,0.0,0.0,0.0,0.0,0.0,0.0,0.0,0.0,0.0,0.0,0.0,0.0,0.0,0.0,0.0,0.0,0.0,0.0,0.0,0.0,0.0,0.0,0.0,0.0,0.0,-1.2499,-1.0474,-0.9226,-1.0002,-1.0113,-0.9767,-0.8996,-0.8119,-0.8312,0.0,0.0,0.0,0.0,0.0,0.0,0.0,0.0,0.0,0.0,0.0,0.0,0.0,0.0,0.0,0.0,0.0,0.0,0.0,0.0,0.0,0.0,0.0,0.0,0.0,0.0,0.0,0.0,0.0,0.0,0.0,0.0,0.0,0.0,0.0,0.0,0.0,0.0,0.0,0.0,0.0,0.0,0.0,0.0,0.0,0.0,0.0,0.0,0.0,0.0,0.0,0.0,0.0,0.0,0.0,0.0,0.0,0.0,0.0,0.0,0.0,0.0,0.0,0.0,0.0,0.0,0.0,0.0,0.0,0.0,0.0,0.0,0.0,0.0,0.0,0.0,0.0,0.0,0.0,0.0,0.0,0.0,0.0,0.0,0.0,0.0,0.0,0.0,0.0,0.0,0.0,0.0,0.0,0.0,0.0,0.0,0.0,0.0,0.0,0.0,0.0,0.0,0.0,-1.2654,-1.0966,-0.9856,-1.0077,-1.0113,-0.9984,-0.9716,-0.8343,-0.847,-1.0688,0.0,0.0,0.0,0.0,0.0,0.0,0.0,0.0,0.0,0.0,0.0,0.0,0.0,0.0,0.0,0.0,0.0,0.0,0.0,0.0,0.0,0.0,0.0,0.0,0.0,0.0,0.0,0.0,0.0,0.0,0.0,0.0,0.0,0.0,0.0,0.0,0.0,0.0,0.0,0.0,0.0,0.0,0.0,0.0,0.0,0.0,0.0,0.0,0.0,0.0,0.0,0.0,0.0,0.0,0.0,0.0,0.0,0.0,0.0,0.0,0.0,0.0,0.0,0.0,0.0,0.0,0.0,0.0,0.0,0.0,0.0,0.0,0.0,0.0,0.0,0.0,0.0,0.0,0.0,0.0,0.0,0.0,0.0,0.0,0.0,0.0,0.0,0.0,0.0,0.0,0.0,0.0,0.0,0.0,0.0,0.0,0.0,0.0,0.0,0.0,0.0,0.0,-1.2661,-1.1128,-1.0004,-1.0004,-1.0004,-0.9989,-0.9954,-0.8437,-0.8383,-1.0539,0.0,0.0,0.0,0.0,0.0,0.0,0.0,0.0,0.0,0.0,0.0,0.0,0.0,0.0,0.0,0.0,0.0,0.0,0.0,0.0,0.0,0.0,0.0,0.0,0.0,0.0,0.0,0.0,0.0,0.0,0.0,0.0,0.0,0.0,0.0,0.0,0.0,0.0,0.0,0.0,0.0,0.0,0.0,0.0,0.0,0.0,0.0,0.0,0.0,0.0,0.0,0.0,0.0,0.0,0.0,0.0,0.0,0.0,0.0,0.0,0.0,0.0,0.0,0.0,0.0,0.0,0.0,0.0,0.0,0.0,0.0,0.0,0.0,0.0,0.0,0.0,0.0,0.0,0.0,0.0,0.0,0.0,0.0,0.0,0.0,0.0,0.0,0.0,0.0,0.0,0.0,0.0,0.0,0.0,0.0,0.0,0.0,0.0,0.0,0.0,0.0,0.0,-1.2584,-1.1029,-0.9912,-0.9912,-0.9912,-0.9909,-0.9903,-0.8361,-0.8072,-0.9633,0.0,0.0,0.0,0.0,0.0,0.0,0.0,0.0,0.0,0.0,0.0,0.0,0.0,0.0,0.0,0.0,0.0,0.0,0.0,0.0,0.0,0.0,0.0,0.0,0.0,0.0,0.0,0.0,0.0,0.0,0.0,0.0,0.0,0.0,0.0,0.0,0.0,0.0,0.0,0.0,0.0,0.0,0.0,0.0,0.0,0.0,0.0,0.0,0.0,0.0,0.0,0.0,0.0,0.0,0.0,0.0,0.0,0.0,0.0,0.0,-1.3505,-1.3632,0.0,0.0,0.0,0.0,0.0,0.0,0.0,0.0,0.0,0.0,0.0,0.0,0.0,0.0,0.0,0.0,0.0,0.0,0.0,0.0,0.0,0.0,0.0,0.0,0.0,0.0,0.0,0.0,0.0,0.0,0.0,0.0,0.0,0.0,0.0,0.0,0.0,0.0,0.0,0.0,-1.2571,-1.1029,-0.9912,-0.9912,-0.9912,-0.9888,-0.9828,-0.8347,-0.7529,-0.7773,-0.7118,0.0,0.0,0.0,0.0,0.0,0.0,0.0,0.0,0.0,0.0,0.0,0.0,0.0,0.0,0.0,0.0,0.0,0.0,0.0,0.0,0.0,0.0,0.0,0.0,0.0,0.0,0.0,0.0,0.0,0.0,0.0,0.0,0.0,0.0,0.0,0.0,0.0,0.0,0.0,0.0,0.0,0.0,0.0,0.0,0.0,0.0,0.0,0.0,0.0,0.0,0.0,0.0,0.0,0.0,0.0,0.0,0.0,0.0,0.0,-1.5494,-1.4725,0.0,0.0,0.0,0.0,0.0,0.0,0.0,0.0,0.0,0.0,0.0,0.0,0.0,0.0,0.0,0.0,0.0,0.0,0.0,0.0,0.0,0.0,0.0,0.0,0.0,0.0,0.0,0.0,0.0,0.0,0.0,0.0,0.0,0.0,0.0,0.0,0.0,0.0,0.0,0.0,-1.2962,-1.1145,-0.9801,-0.9801,-0.9801,-0.9781,-0.9739,-0.8631,-0.7736,-0.7276,-0.6534,0.0,0.0,0.0,0.0,0.0,0.0,0.0,0.0,0.0,0.0,0.0,0.0,0.0,0.0,0.0,0.0,0.0,0.0,0.0,0.0,0.0,0.0,0.0,0.0,0.0,0.0,0.0,0.0,0.0,0.0,0.0,0.0,0.0,0.0,0.0,0.0,0.0,0.0,0.0,0.0,0.0,0.0,0.0,0.0,0.0,0.0,0.0,0.0,0.0,0.0,0.0,0.0,0.0,-2.0657,-2.0657,-2.0407,-2.0407,-1.9676,-1.8391,-1.8256,-1.6576,-1.4091,-1.5547,0.0,0.0,0.0,0.0,0.0,0.0,0.0,0.0,0.0,0.0,0.0,0.0,0.0,0.0,0.0,0.0,0.0,0.0,0.0,0.0,0.0,0.0,-1.3478,-1.2645,-1.2854,-1.3032,-1.2415,0.0,0.0,0.0,0.0,0.0,0.0,0.0,0.0,0.0,0.0,0.0,-1.3393,-1.1363,-0.9838,-0.9838,-0.9756,-0.9702,-0.9702,-0.896,-0.8023,-0.6926,-0.6031,-0.5507,0.0,0.0,0.0,0.0,0.0,0.0,0.0,0.0,0.0,0.0,0.0,0.0,0.0,0.0,0.0,0.0,0.0,0.0,0.0,0.0,0.0,0.0,0.0,0.0,0.0,0.0,0.0,0.0,0.0,0.0,0.0,0.0,-1.8441,-1.8161,0.0,0.0,0.0,0.0,0.0,0.0,0.0,0.0,0.0,0.0,0.0,0.0,0.0,-2.2907,-2.2936,-2.3594,-2.3241,-2.2009,-2.3274,-2.3255,-2.2009,-2.2009,-2.1549,-2.0716,-2.0014,0.0,-1.6157,-1.4497,0.0,0.0,0.0,0.0,0.0,0.0,0.0,0.0,0.0,0.0,0.0,0.0,0.0,0.0,0.0,0.0,0.0,0.0,0.0,0.0,0.0,0.0,-1.3398,-1.2534,-1.2405,-1.2415,-1.2314,-1.3802,-1.5309,-1.5756,-1.5263,-1.5153,0.0,0.0,0.0,0.0,0.0,0.0,-1.3319,-1.1635,-1.0499,-1.0499,-1.0016,-0.9702,-0.9702,-0.896,-0.7537,-0.5283,-0.4311,-0.3521,-0.2812,-0.4291,0.0,0.0,0.0,0.0,0.0,0.0,0.0,0.0,0.0,0.0,0.0,0.0,0.0,0.0,0.0,0.0,0.0,0.0,0.0,0.0,0.0,0.0,0.0,0.0,0.0,0.0,0.0,0.0,0.0,-2.0475,-2.0624,-1.8843,-2.0226,-2.1131,0.0,0.0,0.0,0.0,0.0,0.0,0.0,0.0,0.0,-2.4763,-2.5101,-2.5236,-2.5236,-2.5591,-2.5203,-2.4139,-2.4797,-2.456,-2.3511,-2.3105,-2.2733,-2.2409,-2.1637,-2.05,-1.9125,-1.7693,-1.6948,-1.6621,0.0,0.0,0.0,0.0,-1.574,-1.5731,-1.5832,-1.5035,-1.4103,-1.5287,0.0,0.0,0.0,0.0,0.0,0.0,0.0,-1.6885,-1.581,-1.5417,-1.5039,-1.382,-1.3836,-1.4039,-1.3633,-1.4301,-1.5024,-1.511,-1.5231,-1.5459,-1.6106,-1.5628,0.0,0.0,0.0,-1.3484,-1.3598,-1.2133,-1.1122,-1.1122,-1.0873,-1.0557,-1.0245,-0.9821,-0.8577,-0.6279,-0.3988,-0.2563,-0.2252,-0.2081,-0.3528,0.0,0.0,0.0,0.0,0.0,0.0,0.0,0.0,0.0,0.0,0.0,0.0,0.0,0.0,0.0,0.0,0.0,0.0,0.0,0.0,0.0,0.0,0.0,0.0,0.0,0.0,0.0,0.0,-2.1587,-2.1878,-1.9432,-2.1198,-2.2377,0.0,0.0,0.0,0.0,0.0,0.0,-2.6387,-2.6488,-2.6826,-2.7537,-2.7368,-2.7368,-2.7571,-2.7368,-2.6894,-2.6167,-2.6167,-2.5676,-2.4778,-2.4222,-2.3849,-2.3661,-2.2902,-2.226,-2.1664,-2.0285,-1.8877,-1.7568,-1.7715,-1.7693,-1.7501,-1.7128,-1.6993,-1.7027,-1.7185,-1.6382,-1.5435,-1.6198,-1.5831,-1.5198,-1.5858,0.0,0.0,0.0,0.0,-1.7839,-1.6738,-1.6717,-1.6654,-1.5358,-1.5494,-1.5663,-1.4943,-1.4774,-1.4673,-1.4301,-1.4648,-1.5173,-1.5573,-1.5202,0.0,-1.588,0.0,-1.3391,-1.3757,-1.2619,-1.1733,-1.1733,-1.1596,-1.1318,-1.0863,-1.0751,-0.9832,-0.7842,-0.4739,-0.2642,-0.1899,-0.0527,-0.0962,-0.3466,0.0,0.0,0.0,0.0,0.0,0.0,0.0,0.0,0.0,0.0,0.0,0.0,0.0,0.0,0.0,0.0,0.0,0.0,0.0,0.0,0.0,0.0,0.0,0.0,0.0,0.0,0.0,0.0,0.0,-1.9662,-2.2199,0.0,0.0,0.0,0.0,-2.6421,-2.7181,-2.7925,-2.8773,-2.884,-2.9179,-2.9905,-2.9228,-2.9194,-2.992,-2.9228,-2.8484,-2.7689,-2.7689,-2.6945,-2.5541,-2.5507,-2.5101,-2.4406,-2.3661,-2.3308,-2.3038,-2.0162,-1.9304,-1.9697,-1.8324,-1.8628,-1.9664,-1.8256,-1.7749,-1.7546,-1.617,-1.5653,-1.5752,-1.6802,-1.8031,-1.9062,-1.8778,-1.9237,0.0,0.0,-1.8833,-1.8674,-1.7907,-1.7726,-1.7557,-1.6756,-1.6631,-1.6451,-1.5697,-1.5528,-1.5122,-1.3718,-1.3481,-1.3812,-1.4776,0.0,-1.496,-1.514,-1.4953,-1.4495,-1.3702,-1.288,-1.2346,-1.2346,-1.184,-1.1487,-1.1458,-1.1452,-1.0784,-0.9208,-0.6791,-0.4082,-0.1089,-0.0212,0.012,-0.0045,-0.1502,0.0,0.0,0.0,0.0,0.0,0.0,0.0,0.0,0.0,0.0,0.0,0.0,0.0,0.0,0.0,0.0,0.0,0.0,0.0,0.0,0.0,0.0,0.0,0.0,0.0,0.0,0.0,0.0,-2.4218,-2.6433,0.0,-2.6521,-2.7528,-2.8605,-2.9533,-2.9837,-3.0339,-3.1157,-3.0738,-3.0804,-3.1568,-3.0838,-3.081,-3.1495,-3.0784,-2.9822,-2.8552,-2.8552,-2.7774,-2.6285,-2.5812,-2.5473,-2.5169,-2.444,-2.3831,-2.3308,-2.2226,-2.138,-2.0703,-2.0209,-1.9993,-1.9934,-1.9393,-1.9224,-1.9135,-1.8628,-1.8121,-1.7704,-1.7602,-1.7923,-1.8361,-1.8221,-1.8707,-1.9249,-1.8978,-1.9249,-1.9541,-1.927,-1.9224,-1.9169,-1.8899,-1.8471,-1.7896,-1.7185,-1.6644,-1.6011,-1.4996,-1.4445,-1.421,-1.4588,-1.4238,-1.4101,-1.4633,-1.4255,-1.3828,-1.3529,-1.3224,-1.3037,-1.3037,-1.2854,-1.2545,-1.2113,-1.1127,-0.9922,-0.8507,-0.5668,-0.287,-0.0239,0.1111,0.1796,0.1758,0.1278,-0.1705,0.0,0.0,0.0,0.0,0.0,0.0,0.0,0.0,0.0,0.0,0.0,0.0,0.0,0.0,0.0,0.0,0.0,0.0,0.0,0.0,0.0,0.0,0.0,0.0,0.0,0.0,-2.8118,-2.7876,-2.9705,-3.0709,-3.0176,-3.085,-3.1739,-3.2624,-3.2673,-3.304,-3.382,-3.2929,-3.2648,-3.3136,-3.2433,-3.2144,-3.2353,-3.1636,-3.0608,-2.9364,-2.8724,-2.7748,-2.6436,-2.5763,-2.543,-2.5296,-2.481,-2.4285,-2.3763,-2.3511,-2.2665,-2.1549,-2.1549,-2.1245,-2.0758,-2.0487,-2.0386,-2.0386,-2.0386,-1.9913,-1.9249,-1.9012,-1.8944,-1.8944,-1.8944,-1.9452,-2.0061,-2.0061,-2.0386,-2.0724,-2.0454,-2.0386,-2.0352,-2.0069,-1.9642,-1.9147,-1.8662,-1.776,-1.6925,-1.6441,-1.5561,-1.4774,-1.4537,-1.4107,-1.3938,-1.4436,-1.387,-1.3481,-1.3743,-1.354,-1.3413,-1.3413,-1.3413,-1.3209,-1.2778,-1.1987,-1.0927,-0.9543,-0.7467,-0.5111,-0.2484,-0.1422,-0.0639,-0.0043,-0.0032,-0.2372,-0.7125,0.0,0.0,0.0,0.0,0.0,0.0,0.0,0.0,0.0,0.0,0.0,0.0,0.0,0.0,0.0,0.0,0.0,0.0,0.0,0.0,0.0,0.0,0.0,-2.5694,-2.8297,-3.0209,-3.0224,-3.1725,-3.2695,-3.2489,-3.3372,-3.4418,-3.5566,-3.5651,-3.5916,-3.6598,-3.5324,-3.4542,-3.4537,-3.3795,-3.305,-3.2393,-3.1671,-3.0912,-2.9998,-2.8204,-2.6872,-2.5975,-2.5481,-2.5093,-2.4837,-2.4804,-2.468,-2.4428,-2.3718,-2.2994,-2.2319,-2.2299,-2.2265,-2.2198,-2.1454,-2.1197,-2.1197,-2.1211,-2.069,-2.0191,-2.0974,-2.1224,-2.1224,-2.1224,-2.1718,-2.2313,-2.2313,-2.2313,-2.2144,-2.1427,-2.1224,-2.1055,-2.0251,-2.0035,-2.0035,-2.0035,-1.8899,-1.785,-1.7839,-1.669,-1.545,-1.4673,-1.4537,-1.4504,-1.4537,-1.3904,0.0,-1.4402,-1.3912,-1.3447,-1.3447,-1.3447,-1.3447,-1.3447,-1.4039,-1.3794,-1.2348,-1.2246,-1.0829,-0.7681,-0.7848,-0.7153,-0.5265,-0.5497,-0.5783,-0.6186,0.0,0.0,0.0,0.0,0.0,0.0,0.0,0.0,0.0,0.0,0.0,0.0,0.0,0.0,0.0,0.0,0.0,0.0,0.0,0.0,0.0,0.0,-2.8119,-2.8073,-3.0615,-3.2713,-3.322,-3.5172,-3.643,-3.6366,-3.657,-3.6843,-3.7168,-3.671,-3.6057,-3.53,-3.4328,-3.3591,-3.315,-3.196,-3.1434,-3.1748,-3.0555,-2.9318,-2.8058,-2.8466,-2.7778,-2.616,-2.645,-2.6281,-2.5799,-2.5309,-2.477,-2.4179,-2.3985,-2.3463,-2.275,-2.2073,-2.1794,-2.1731,-2.1249,-2.1045,-2.1108,-2.1407,-2.1363,-2.1259,-2.1824,-2.1989,-2.1989,-2.1989,-2.2144,-2.2313,-2.2313,-2.2313,-2.2245,-2.2057,-2.1989,-2.1955,-2.1705,-2.1278,-2.0873,-2.0873,-2.0082,-1.9319,-1.902,-1.8253,-1.7119,-1.5556,-1.4842,-1.4673,-1.5223,-1.4682,0.0,-1.447,-1.4783,-1.4783,-1.4233,-1.4682,-1.4783,-1.4233,-1.3388,-1.2483,-1.1502,-1.092,-0.9488,-0.6901,-0.7888,-0.7724,-0.6033,-0.881,-1.0197,0.0,0.0,0.0,0.0,0.0,0.0,0.0,0.0,0.0,0.0,0.0,0.0,0.0,0.0,0.0,0.0,0.0,0.0,0.0,0.0,0.0,0.0,-2.8512,-3.0197,-3.0783,-3.2572,-3.4306,-3.5733,-3.6779,-3.7522,-3.7819,-3.7844,-3.7796,-3.7796,-3.7096,-3.6205,-3.514,-3.408,-3.3081,-3.2163,-3.1362,-3.0859,-3.0686,-2.9864,-2.9053,-2.819,-2.8134,-2.7622,-2.6756,-2.6577,-2.624,-2.5831,-2.5462,-2.4939,-2.4382,-2.4382,-2.3976,-2.32,0.0,0.0,0.0,0.0,-2.1102,-2.1275,-2.1521,-2.1735,-2.1945,-2.2209,-2.2313,-2.2313,-2.2313,-2.2313,-2.2347,-2.2665,-2.255,-2.2381,-2.2699,-2.2516,-2.2313,-2.2313,-2.1989,-2.1651,-2.1651,-2.0888,-2.0204,-2.015,-1.9298,0.0,-1.7363,-1.6086,-1.5362,-1.5773,-1.5338,-1.5078,-1.5392,-1.5528,-1.5426,-1.502,-1.5358,-1.5377,-1.4804,-1.4381,0.0,0.0,0.0,-1.2033,-1.0768,-1.1576,0.0,0.0,0.0,-1.2843,-1.2266,-1.4723,0.0,0.0,-1.2406,-1.4007,0.0,0.0,0.0,0.0,0.0,0.0,0.0,0.0,0.0,0.0,0.0,0.0,0.0,0.0,0.0,0.0,-3.0014,-3.1849,-3.3603,-3.4106,-3.5149,-3.7425,-3.7192,-3.7089,-3.7729,-3.7735,-3.7677,-3.7677,-3.6841,-3.6045,-3.5396,-3.4091,0.0,0.0,0.0,-3.0732,-2.9416,-2.9391,-2.9279,-2.9076,-2.7531,-2.7018,-2.7357,-2.6296,-2.572,-2.554,-2.5386,-2.5098,-2.4771,-2.4705,-2.4252,-2.3586,-2.2916,-2.2393,-2.1977,-2.1454,-2.1423,-2.1668,-2.1812,0.0,0.0,-2.2324,-2.2319,-2.2299,-2.2281,-2.2343,-2.2584,-2.3249,-2.2994,-2.2699,-2.3342,-2.297,-2.2415,-2.2415,-2.2347,-2.2313,-2.2313,-2.1454,-2.0785,-2.1116,-1.9956,-1.9039,-1.9264,-1.768,-1.639,-1.6467,-1.6044,-1.5967,-1.6616,-1.6145,-1.5708,-1.5681,0.0,0.0,-1.5296,-1.6137,-1.6246,-1.5219,-1.577,-1.632,-1.6724,-1.6722,-1.6847,-1.7166,-1.5663,-1.45,-1.373,-1.4202,-1.3469,-1.1767,-1.4961,-1.6447,0.0,0.0,0.0,0.0,0.0,0.0,0.0,0.0,0.0,0.0,0.0,0.0,0.0,0.0,0.0,-3.0165,-3.1072,-3.2517,-3.5649,-3.4676,-3.4475,-3.6638,-3.7303,-3.7633,-3.779,-3.7203,-3.6813,-3.6813,-3.5645,-3.4602,-3.3939,-3.3156,-3.2078,-3.0761,-3.021,-2.9599,-2.8785,-2.8238,-2.7709,-2.7139,-2.783,0.0,-2.679,-2.701,-2.6841,-2.632,-2.5213,-2.4692,-2.4585,-2.4057,-2.366,-2.3349,-2.3096,-2.272,-2.2379,-2.2649,-2.247,-2.2118,-2.3112,-2.2696,-2.1849,-2.2427,-2.2471,-2.2267,-2.2117,-2.2597,0.0,-2.3551,-2.3842,-2.4101,-2.4237,-2.3748,-2.3173,-2.3173,-2.2719,-2.2313,-2.2313,-2.2122,-2.1788,-2.1158,-2.0346,-1.956,-1.8927,-1.8,-1.755,-1.8193,-1.7267,-1.6547,-1.6688,-1.6616,-1.6446,-1.6099,-1.6618,-1.6797,-1.6425,-1.66,-1.6363,-1.555,-1.5651,-1.6277,-1.7512,-1.7027,-1.698,-1.7634,-1.7342,-1.7062,-1.6916,-1.7008,-1.6873,-1.6412,-1.5015,-1.4368,0.0,0.0,0.0,0.0,0.0,0.0,0.0,0.0,0.0,0.0,0.0,-2.529,0.0,0.0,-2.9042,-3.1032,-3.2,-3.3095,-3.484,-3.4182,-3.4273,-3.6397,-3.6344,-3.6165,-3.6165,-3.5769,-3.5399,-3.5064,-3.4391,-3.3694,-3.3036,-3.2706,-3.1898,-3.0552,-3.0193,-2.9744,-2.9116,-2.8427,-2.7919,-2.759,-2.791,-2.7728,-2.7106,-2.7419,-2.7213,-2.6542,-2.5884,-2.5567,-2.5454,-2.5141,-2.4529,-2.3874,-2.4163,-2.3467,-2.2356,-2.2412,-2.2342,-2.2289,-2.2887,-2.2758,-2.2361,-2.2734,-2.2769,-2.2622,-2.2529,-2.283,-2.3309,-2.3775,-2.4,-2.4162,-2.4562,-2.4303,-2.3966,-2.3966,-2.3646,-2.3308,-2.2936,-2.2508,-2.2027,-2.1402,-2.0511,-1.9767,-1.9531,-1.9031,-1.8609,-1.8514,-1.7774,-1.7263,-1.7263,-1.6984,-1.6709,-1.6516,-1.6844,-1.6909,-1.652,-1.6663,-1.6581,-1.6208,-1.6507,-1.6951,-1.7544,-1.7345,-1.7422,-1.7783,-1.7783,-1.7783,-1.7783,-1.7783,-1.7783,-1.7783,-1.6809,-1.6143,0.0,0.0,0.0,0.0,0.0,0.0,0.0,0.0,-2.4431,-2.5539,-2.6178,-2.6925,-2.8223,-2.9411,-3.0522,-3.169,-3.2706,-3.3395,-3.3664,-3.3245,-3.3638,-3.5584,-3.494,-3.4324,-3.4324,-3.4324,-3.4053,-3.3544,-3.3365,-3.3066,-3.2527,-3.2407,-3.1779,-3.0552,-3.0492,-3.0193,-2.9621,-2.9056,-2.8786,-2.8786,-2.8124,-2.7794,-2.7794,-2.7645,-2.7315,-2.6806,-2.6662,-2.6445,-2.6243,-2.6355,-2.5706,-2.4687,-2.5327,-2.4513,-2.2896,-2.2513,-2.2486,-2.2698,-2.2978,-2.3017,-2.3038,-2.3219,-2.3161,-2.2988,-2.2952,-2.3056,-2.336,-2.3973,-2.4098,-2.4143,-2.4732,-2.4663,-2.4409,-2.4409,-2.4309,-2.4057,-2.3579,-2.2897,-2.2296,-2.1952,-2.0965,-2.0215,-2.0356,-2.0,-1.9424,-1.8603,-1.822,-1.7973,-1.7973,-1.7403,-1.7002,-1.7069,-1.7069,-1.6988,-1.6784,-1.6902,-1.7061,-1.7175,-1.7449,-1.7529,-1.7396,-1.7597,-1.7771,-1.7894,-1.7997,-1.8087,-1.8222,-1.8222,-1.8222,-1.8256,-1.8843,-1.8707,-2.0255,-2.1457,-2.2679,-2.3887,-2.349,-2.3984,0.0,0.0,-2.7472,-2.8748,-2.995,-3.0518,-2.9585,-3.0939,-3.2437,-3.3155,-3.2916,-3.3036,-3.4234,-3.2317,-3.1359,-3.2796,-3.3336,-3.3604,-3.3604,-3.3604,-3.3574,-3.3514,-3.2946,-3.2587,-3.2527,-3.1929,-3.1271,-3.0522,-3.0492,-3.0193,-2.9621,-2.9532,-2.9502,-2.9502,-2.8816,-2.8487,-2.8457,-2.7884,-2.7555,-2.7435,-2.6866,-2.6261,-2.5731,-2.6198,-2.6046,-2.5514,-2.6075,-2.584,-2.5198,-2.4892,-2.4423,-2.4074,-2.5314,-2.4551,-2.3129,-2.3967,-2.3676,-2.2975,-2.2777,-2.3305,-2.4042,-2.428,-2.4681,-2.5053,-2.5118,-2.4654,-2.414,-2.414,-2.3654,-2.3278,-2.3588,-2.3572,-2.339,-2.3,-2.2335,-2.1579,-2.0782,-2.0115,-1.9666,-1.9551,-1.8985,-1.8581,-1.8581,-1.8008,-1.7713,-1.8006,-1.8036,-1.8188,-1.8499,-1.8014,-1.7946,-1.8523,-1.753,-1.7152,-1.7727,-1.7477,-1.7653,-1.8315,-1.8632,-1.9113,-1.9731,-1.9731,-1.9731,-1.9765,-1.9833,-1.9473,-2.2102,-2.3131,0.0,0.0,-2.5944,-2.718,-2.897,-2.9328,-2.9555,-3.0489,-3.1411,-3.1899,-3.139,-3.2258,-3.3066,0.0,-3.2706,-3.2587,-3.2736,-3.145,-3.0432,-3.0253,-3.0821,-3.1509,-3.2258,-3.2706,-3.2766,-3.2377,-3.2079,-3.1899,-3.1899,-3.166,-3.1361,-3.1092,-3.1062,-3.0943,-3.0731,-3.0313,-3.0133,-3.0103,-2.9475,-2.9175,-2.9175,-2.8903,-2.8543,-2.8128,-2.7495,-2.6806,-2.6237,-2.6838,-2.6488,-2.5668,-2.6263,-2.6126,-2.5571,-2.5465,-2.525,-2.5075,-2.565,-2.5268,-2.4591,-2.4967,-2.4576,-2.3937,-2.3838,-2.4091,-2.4418,-2.4481,-2.5182,-2.5916,-2.5916,-2.5618,-2.5424,-2.5807,-2.5373,-2.4792,-2.4581,-2.4305,-2.384,-2.2828,-2.2214,-2.1731,-2.1353,-2.1036,-2.0737,-2.0348,-1.939,-1.8702,-1.8702,-1.8117,-1.7763,-1.7893,-1.7909,-1.7973,-1.8145,-1.8082,-1.8139,-1.842,-1.8137,-1.8091,-1.8364,-1.8244,-1.8326,-1.8631,-1.8768,-1.898,-1.9306,-1.9306,-1.943,-1.9644,-2.009,-2.0257,-2.3131,0.0,0.0,-2.6213,-2.8038,-2.9535,-2.9445,-3.0133,-3.0971,-3.163,-3.2138,-3.2467,-3.2258,-3.2766,-3.3006,-3.2318,-3.2407,-3.2318,-3.1839,-3.0761,-2.9714,-2.8966,-2.8992,-2.9475,-3.0584,-3.1451,-3.1809,-3.154,-3.166,-3.178,-3.178,-3.1959,-3.1959,-3.178,-3.178,-3.169,-3.1511,-3.1002,-3.0791,-3.0791,-3.0133,-2.9834,-2.9834,-2.9681,-2.9352,-2.8846,-2.8364,-2.7764,-2.7171,-2.7675,-2.7171,-2.6183,-2.6716,-2.6572,-2.6153,-2.6153,-2.5914,-2.5644,-2.5824,-2.5764,-2.5644,-2.5824,-2.5412,-2.4874,-2.4874,-2.4874,-2.4874,-2.4874,-2.55,-2.6175,-2.6175,-2.6094,-2.6146,-2.6647,-2.6397,-2.5937,-2.5526,-2.505,-2.4369,-2.335,-2.2633,-2.2133,-2.2004,-2.1814,-2.1545,-2.1066,-1.9989,-1.9181,-1.9001,-1.8553,-1.8237,-1.8237,-1.8237,-1.8237,-1.8237,-1.8289,-1.8435,-1.8603,-1.8532,-1.8592,-1.8764,-1.8682,-1.8757,-1.8961,-1.9051,-1.9191,-1.9412,-1.9412,-1.9561,-1.9852,-2.0402,-2.084,-2.2882,0.0,-2.6841,-2.8188,-2.9056,-2.9924,-3.1122,-3.1451,-3.166,-3.2318,-3.2497,-3.2288,-3.166,-3.2079,-3.2288,-3.163,-3.2079,-3.2497,-3.2467,-3.0283,-2.8876,-2.9502,-2.8453,-2.7944,0.0,-2.9834,-3.0793,-3.1451,-3.2079,-3.2467,-3.2467,-3.3095,-3.3155,-3.2497,-3.2467,-3.2138,-3.1511,-3.1481,-3.1481,-3.1481,-3.0791,-3.0462,-3.0462,-2.9864,-2.9592,-2.9562,-2.9562,-2.9172,-2.8547,-2.8577,-2.8158,-2.7525,-2.7555,-2.7555,-2.7525,-2.7525,-2.6716,-2.5704,-2.6333,-2.6153,-2.5704,-2.6363,-2.6123,-2.5561,-2.5561,-2.5561,-2.5561,-2.5561,-2.5585,-2.5638,-2.5638,-2.5608,-2.5631,-2.5631,-2.5631,-2.5741,-2.6248,-2.5834,-2.5369,-2.5317,-2.4245,-2.3209,-2.2746,-2.2134,-2.1695,-2.1665,-2.1096,-2.0389,-1.9768,-1.9648,-1.9648,-1.9648,-1.9648,-1.9648,-1.9648,-1.9049,-1.8959,-1.9606,-1.845,-1.803,-1.8676,-1.8403,-1.8579,-1.9355,-1.9688,-2.024,-2.0927,-2.0927,-2.0927,-2.0943,-2.0975,-2.0991,-2.4703,0.0,-2.6806,-2.958,-3.0774,-3.1503,-3.2378,-3.3022,-3.3185,-3.2049,-3.1481,-3.0702,-2.9175,-2.9475,-2.9834,-2.9624,-3.0336,-3.0983,-3.1154,-3.066,-2.958,-2.7769,-2.8373,0.0,0.0,0.0,0.0,-3.1451,-3.2108,-3.2706,-3.3155,-3.3365,-3.3395,-3.3185,-3.2736,-3.2617,-3.2826,-3.1929,-3.172,-3.2138,-3.0925,-3.0367,-3.0309,-2.9113,-2.8856,-2.9375,-2.8939,-2.8952,-2.9205,-2.8786,-2.8457,-2.8218,-2.7764,-2.7585,-2.7585,-2.7585,-2.7315,-2.6956,-2.7195,-2.7136,-2.6956,-2.7195,-2.6836,-2.6243,-2.6243,-2.6243,-2.6243,-2.6243,-2.6572,-2.6926,-2.6926,-2.6602,-2.6363,-2.6811,-2.6572,-2.6291,-2.6505,-2.6015,-2.541,-2.4956,-2.4161,-2.3483,-2.3323,-2.3101,-2.2682,-2.1814,-2.1126,-2.0468,-1.9798,-1.9708,-1.9708,-1.9708,-1.9708,-1.9708,-1.9708,-1.9498,-1.9468,-1.9678,-1.9271,-1.9121,-1.9331,-1.926,-1.9299,-1.9576,-1.9697,-1.9905,-2.0154,-2.0154,-2.0261,-2.0549,-2.0549,-2.0715,-2.5588,-2.6495,-2.7275,-3.0242,-3.131,-3.1724,-3.2015,-3.2207,-3.1871,-3.0406,-2.9385,-2.8308,-2.6782,-2.6723,-2.6954,-2.7166,-2.7959,-2.8798,-2.9551,-2.9658,-2.9124,-2.7824,-2.8426,-2.8799,0.0,0.0,0.0,-3.1751,-3.2497,-3.3155,-3.3814,-3.4083,-3.4113,-3.3844,-3.3425,-3.3305,-3.3484,-3.2647,-3.2258,-3.234,-3.084,-3.0123,-3.0063,-2.8886,-2.8822,-2.9635,-2.9203,-2.9345,-2.9864,-2.9205,-2.8816,-2.8517,-2.7854,-2.7585,-2.7585,-2.7585,-2.7764,-2.7914,-2.7675,-2.7764,-2.7914,-2.7675,-2.7465,-2.726,-2.7046,-2.6956,-2.6956,-2.6956,-2.7255,-2.7585,-2.7585,-2.7285,-2.7076,-2.7495,-2.7285,-2.6956,-2.6956,-2.6243,-2.5472,-2.5023,-2.4238,-2.361,-2.361,-2.361,-2.3251,-2.2203,-2.1485,-2.0737,-1.9828,-1.9708,-1.9708,-1.9708,-1.9708,-1.9708,-1.9708,-1.9708,-1.9708,-1.9708,-1.9708,-1.9708,-1.9708,-1.9708,-1.9708,-1.9708,-1.9708,-1.9708,-1.9708,-1.9708,-1.9821,-2.0089,-2.0089,-2.0244,-2.5625,-2.696,-2.8325,-3.0278,-3.0758,-3.0632,-3.0195,-2.9115,-2.8046,-2.7497,-2.6309,-2.5149,-2.447,-2.4001,-2.3912,-2.4582,-2.5305,-2.6385,-2.8072,-2.7668,-2.7821,0.0,0.0,0.0,0.0,0.0,0.0,-3.2317,0.0,-3.3752,-3.444,-3.5066,-3.5093,-3.4405,-3.4377,-3.4047,-3.3481,-3.3421,-3.2958,-3.2012,-3.0485,-2.9723,-2.9723,-2.9151,-2.9348,-3.0178,-3.0178,-3.025,-3.038,-2.9754,-2.9128,-2.8532,-2.7897,-2.7654,-2.7654,-2.7654,-2.8072,-2.8547,-2.7863,-2.8072,-2.8547,-2.7824,-2.8094,-2.8517,-2.7854,-2.7619,-2.7594,-2.7624,-2.7594,-2.7564,-2.7514,-2.7564,-2.7585,-2.7534,-2.756,-2.7585,-2.7585,-2.6572,-2.5644,-2.5615,-2.4537,-2.361,-2.364,-2.361,-2.34,-2.2793,-2.2134,-2.1216,-1.9917,-1.9738,-1.9708,-1.9708,-1.9708,-1.9708,-1.9708,-1.9708,-1.9708,-1.9708,-1.9708,-1.9708,-1.9708,-1.9708,-1.9708,-1.9708,-1.9708,-1.9708,-1.9708,-1.9708,-1.9708,-1.9708,-1.9708,-1.9708,-2.6858,-2.8001,-2.8918,-3.0184,-3.0156,-2.9342,-2.7588,-2.7056,-2.6404,-2.4493,-2.3024,-2.19,-2.1216,-2.1703,0.0,-2.4235,-2.5943,0.0,-2.9717,-3.0065,0.0,-2.8932,0.0,-2.9635,-2.8978,-3.003,0.0,0.0,-3.2676,-3.3474,-3.4089,-3.4292,-3.3989,-3.3105,-3.2585,-3.2501,-3.2845,-3.2326,-3.1713,-3.0965,-2.9497,-2.8825,-2.8798,-2.7665,-2.7571,-2.8363,-2.8363,-2.8734,-2.9346,-2.8665,-2.8298,-2.816,-2.8137,-2.8129,-2.8129,-2.8129,-2.866,-2.9215,-2.8437,-2.866,-2.9172,-2.7974,-2.8393,-2.9232,-2.8547,-2.7968,-2.76,-2.8011,-2.7488,-2.6744,-2.6607,-2.7082,-2.7458,-2.6919,-2.7203,-2.7585,-2.7585,-2.6956,-2.6183,-2.5704,-2.4537,-2.3759,-2.4246,-2.3939,-2.34,-2.2793,-2.2134,-2.1395,-2.0557,-2.0019,-1.9708,-1.9708,-1.9708,-1.9708,-1.9708,-1.9708,-1.9708,-1.9708,-1.9708,-1.9708,-1.9708,-1.9708,-1.9708,-1.9708,-1.9708,-1.9708,-1.9708,-1.9708,-1.9708,-1.9708,-1.9708,-1.9708,-2.7532,-2.8431,-2.8988,-2.9299,-2.8782,-2.7668,-2.5752,-2.4829,-2.3844,-2.2028,-2.1018,-2.0258,-1.9575,-2.0265,-2.1382,0.0,0.0,0.0,-2.849,-2.9396,-2.9652,0.0,-2.9781,0.0,-2.9742,-3.0207,-3.093,0.0,-3.3068,-3.3612,-3.3401,-3.3774,-3.3567,-3.2629,-3.2226,-3.2226,-3.2593,-3.1801,-3.1226,-3.0867,-2.9362,-2.8702,-2.8615,-2.7414,-2.731,-2.8046,-2.7808,-2.8168,-2.8947,-2.8278,-2.7999,-2.7974,-2.7814,-2.7737,-2.7737,-2.7737,-2.8225,-2.88,-2.7995,-2.8425,-2.9175,-2.8201,-2.8354,-2.877,-2.8078,-2.7597,-2.7343,-2.7652,-2.706,-2.6413,-2.6516,-2.6778,-2.6872,-2.6465,-2.6926,-2.7398,-2.7185,-2.6852,-2.6393,-2.5734,-2.4747,-2.4156,-2.4545,-2.4036,-2.349,-2.3152,-2.2553,-2.1994,-2.1635,-2.0486,-1.9708,-1.9708,-1.9708,-1.9708,-1.9708,-1.9708,-1.9708,-1.9708,-1.9708,-1.9708,-1.9708,-1.9708,-1.9708,-1.9708,-1.9708,-1.9708,-1.9708,-1.9708,-1.9708,-1.9708,-1.9708,-1.9708,-2.7921,-2.8574,-2.8737,-2.8147,-2.7067,-2.5767,-2.4197,-2.243,-2.0841,-1.9921,0.0,-1.9273,-1.8788,-1.9242,-2.0083,-2.1229,0.0,-2.4064,-2.6391,-2.7494,-2.8524,-2.9654,-2.9804,-3.0101,-3.0932,-3.0381,-3.0608,-3.2119,-3.3489,-3.3732,-3.2459,-3.3192,-3.322,-3.2236,-3.2227,-3.2227,-3.2227,-3.1426,-3.1007,-3.1007,-2.9566,-2.8888,-2.8863,-2.7871,-2.7768,-2.842,-2.7904,-2.8126,-2.8843,-2.8098,-2.7822,-2.7849,-2.7315,-2.71,-2.71,-2.71,-2.7547,-2.8023,-2.7352,-2.7845,-2.8746,-2.8277,-2.8155,-2.8026,-2.7363,-2.7053,-2.6991,-2.7072,-2.6635,-2.6253,-2.6707,-2.6553,-2.6262,-2.6175,-2.6693,-2.7026,-2.6538,-2.6374,-2.6155,-2.5681,-2.4976,-2.4473,-2.4565,-2.4023,-2.3569,-2.3501,-2.2965,-2.2527,-2.2464,-2.0989,-1.9911,-1.9718,-1.9718,-1.967,-1.9479,-1.9479,-1.9479,-1.9479,-1.9479,-1.9479,-1.9479,-1.9479,-1.9479,-1.9479,-1.9479,-1.9515,-1.9599,-1.9599,-1.9636,-1.9708,-1.9708,-1.9708,-2.8473,-2.8813,-2.8637,-2.767,-2.5912,-2.389,-2.1789,-1.991,0.0,0.0,-1.7337,-1.7063,-1.7498,-1.8079,-1.9166,-2.1164,-2.2398,-2.4255,-2.7369,-2.7971,-2.8524,0.0,-2.9804,-2.9856,-3.0049,-3.0582,0.0,0.0,-3.1929,-3.2483,-3.1499,-3.1609,-3.1267,-3.033,-3.0292,-3.0292,-3.0292,-3.0101,-3.0024,-3.0024,-2.9277,-2.8888,-2.8863,-2.8273,-2.8019,-2.8113,-2.7617,0.0,-2.8186,-2.7173,-2.7046,-2.7438,-2.7525,-2.7582,-2.7582,-2.7582,-2.812,-2.8711,-2.7868,-2.7715,-2.7851,-2.7385,-2.7956,-2.8695,-2.8026,-2.7399,-2.7003,-2.7449,-2.6781,-2.5937,-2.5871,-2.6352,-2.6717,-2.6085,-2.6185,-2.6382,-2.6271,-2.5465,-2.4903,-2.5349,-2.4457,-2.38,-2.4422,-2.3975,-2.3369,-2.2917,-2.2308,-2.1679,-2.1192,-2.1254,-2.0971,-1.9982,-1.9885,-1.9478,-1.8461,-1.8366,-1.8366,-1.8366,-1.8366,-1.8366,-1.8366,-1.8366,-1.8366,-1.8366,-1.8366,-1.8607,-1.9043,-1.9043,-1.9277,-1.9708,-1.9708,-1.9708,-2.8662,-2.8888,-2.8637,-2.7544,-2.541,-2.2975,-2.0715,0.0,0.0,0.0,-1.6647,-1.6934,-1.7239,-1.8046,0.0,-2.0399,-2.1554,-2.3284,-2.5996,-2.6892,0.0,-2.9176,-2.9603,-2.9804,0.0,-3.0216,-3.0266,-2.9818,-3.0646,-3.0959,-3.0495,-3.0495,-3.0292,-2.9818,-2.9804,-2.9804,-2.9804,-2.9804,-2.9804,-2.9804,-2.9503,-2.9377,-2.9352,-2.88,-2.8524,-2.8499,-2.7946,-2.7871,-2.8072,-2.7544,-2.7469,-2.7706,-2.7854,-2.7901,-2.7901,-2.7901,-2.7997,-2.805,-2.7635,-2.7318,-2.7051,-2.6817,-2.719,-2.765,-2.7321,-2.698,-2.676,-2.6984,-2.6444,-2.58,-2.6022,-2.618,-2.6164,-2.5839,-2.5901,-2.6175,-2.6532,-2.6153,-2.5769,-2.5825,-2.5025,-2.4363,-2.4451,-2.3659,-2.2957,-2.2672,-2.2104,-2.1596,-2.1319,-2.1524,-2.1205,-1.9971,-1.9557,-1.9139,-1.8569,-1.8265,-1.8092,-1.8092,-1.8092,-1.8092,-1.8092,-1.8092,-1.8092,-1.8092,-1.8092,-1.823,-1.8463,-1.8463,-1.8626,-1.8874,-1.8874,-1.9024,-2.8574,-2.8787,-2.8587,-2.7419,-2.5008,-2.2343,-2.0111,-1.838,0.0,0.0,-1.6473,-1.7126,-1.7126,-1.7912,-1.8758,0.0,-2.0261,-2.1714,-2.4117,-2.541,-2.6766,0.0,-2.9377,0.0,-2.9804,-2.9804,0.0,-2.9804,-2.9804,-2.9804,-2.9804,-2.9804,-2.9804,-2.9804,-2.9804,-2.9804,-2.9804,-2.9804,-2.9804,-2.9804,-2.9804,-2.9804,-2.9779,-2.9327,-2.9063,-2.9038,-2.8524,-2.8348,-2.8448,-2.8197,-2.8172,-2.8273,-2.8147,-2.8097,-2.8097,-2.8097,-2.7821,-2.7444,-2.7444,-2.7203,-2.6851,-2.6851,-2.6776,-2.665,-2.6524,-2.6575,-2.665,-2.6524,-2.6172,-2.5887,-2.6373,-2.6147,-2.5762,-2.5611,-2.5723,-2.597,-2.6425,-2.655,-2.6361,-2.5824,-2.5309,-2.477,-2.4259,-2.3386,-2.2676,-2.2431,-2.2101,-2.1724,-2.1331,-2.1412,-2.1039,-1.9921,-1.9298,-1.8847,-1.8611,-1.8065,-1.7753,-1.7753,-1.7753,-1.7753,-1.7753,-1.7753,-1.7753,-1.7753,-1.7753,-1.7794,-1.7913,-1.7913,-1.7973,-1.8092,-1.8092,-1.8327,-2.7896,-2.8512,-2.8549,-2.6977,-2.4456,-2.1791,-1.9584,0.0,0.0,-1.5819,-1.6162,-1.6586,-1.6586,-1.6654,-1.708,-1.8149,0.0,-1.9611,-2.2794,-2.4224,-2.5762,-2.7921,0.0,0.0,-2.9804,-2.9804,-2.9804,-2.9804,-2.9804,-2.9804,-2.9804,-2.9804,-2.9804,-2.9804,-2.9804,-2.9804,-2.9804,-2.9804,-2.9804,-2.9804,-2.9804,-2.9804,-2.9804,-2.9729,-2.9704,-2.9679,-2.9101,-2.9151,0.0,-2.8524,-2.8398,-2.8762,-2.8298,-2.8097,-2.8097,-2.8097,-2.8072,-2.8021,-2.8021,-2.7996,-2.7946,-2.7946,-2.762,-2.7153,-2.665,-2.6851,-2.7128,-2.6625,-2.6449,-2.6424,-2.6474,-2.6449,-2.6273,-2.5711,-2.5627,-2.5517,-2.5102,-2.5,-2.4823,-2.4323,-2.4146,-2.3948,-2.3482,-2.333,-2.2881,-2.1851,-2.2062,-2.1773,-2.0169,-2.0447,-2.0549,-1.9864,-1.935,-1.8674,-1.7626,-1.7001,-1.6646,-1.6646,-1.6646,-1.6646,-1.6646,-1.6646,-1.6646,-1.6646,-1.6646,-1.69,-1.7374,-1.7374,-1.7639,-1.8092,-1.8092,-1.8131,-2.6214,-2.7243,-2.7544,-2.5887,-2.3376,-2.0767,-1.853,0.0,-1.5367,-1.4853,-1.516,-1.5643,-1.5969,-1.6019,-1.6271,-1.7049,-1.7177,0.0,-2.0312,0.0,-2.3376,-2.6264,-2.7595,0.0,0.0,0.0,-2.9804,-2.9804,-2.9804,-2.9804,-2.9804,-2.9804,-2.9804,-2.9804,-2.9804,-2.9804,-2.9804,-2.9804,-2.9804,-2.9804,-2.9804,-2.9804,-2.9804,-2.9804,-2.9804,-2.9779,-2.9553,-2.9578,0.0,-2.9302,-2.9252,-2.9428,-2.9202,-2.9126,-2.9126,-2.9126,-2.89,-2.8562,-2.8562,-2.8373,-2.8097,-2.8097,-2.8172,-2.8172,-2.762,-2.7595,-2.767,-2.7153,-2.6977,-2.6927,-2.6575,-2.6751,-2.6927,-2.6666,-2.6615,-2.6465,-2.5912,-2.5812,-2.5636,-2.5059,-2.4707,-2.4324,-2.379,-2.3134,-2.2521,-2.2086,-2.1933,-2.1493,-2.0467,-2.0541,-2.0465,-1.9861,-1.933,-1.8741,-1.7951,-1.7375,-1.6898,-1.6525,-1.65,-1.65,-1.65,-1.65,-1.65,-1.65,-1.65,-1.6629,-1.6816,-1.6816,-1.6942,-1.7126,-1.7126,-1.7312,-2.3979,-2.5209,-2.5737,-2.4406,-2.2121,-1.9661,0.0,0.0,-1.4752,-1.4217,-1.4525,-1.506,-1.5593,-1.5693,-1.5869,-1.64,0.0,-1.7077,-1.8757,-2.0112,-2.1999,0.0,0.0,-2.7821,0.0,-2.9603,-2.9804,-2.9804,-2.9804,-2.9804,-2.9804,-2.9804,-2.9804,-2.9804,-2.9804,-2.9804,-2.9804,-2.9804,-2.9804,-2.9804,-2.9804,-2.9804,-2.9804,-2.9804,-2.9804,-2.9804,-2.9804,-2.9804,0.0,-2.9804,-2.9804,-2.9804,-2.9804,-2.9804,-2.9804,-2.9804,-2.9528,-2.9176,-2.9176,-2.8925,-2.8599,-2.8599,-2.8875,-2.9126,-2.8725,-2.8473,-2.8222,-2.767,-2.7519,-2.7444,-2.7077,-2.7243,-2.7494,-2.7318,-2.7293,-2.7178,-2.6625,-2.6499,-2.6323,-2.5711,-2.5184,-2.4625,-2.4104,-2.3201,-2.2468,-2.2318,-2.2121,-2.1719,-2.1043,-2.1094,-2.0893,-2.0137,-1.9736,-1.9158,-1.8279,-1.7852,-1.73,-1.655,-1.6651,-1.6697,-1.65,-1.65,-1.65,-1.65,-1.65,-1.65,-1.65,-1.65,-1.65,-1.65,-1.65,-1.6812,-2.1217,-2.2347,-2.302,-2.2443,-2.0663,-1.8581,0.0,-1.5668,-1.4752,-1.4217,-1.4525,-1.506,-1.5593,-1.5693,-1.5869,-1.64,-1.65,0.0,-1.8757,-2.0439,0.0,0.0,0.0,-2.7494,-2.8072,-2.9126,-2.9804,-2.9804,-2.9804,0.0,-2.9804,-2.9804,-2.9804,-2.9804,-2.9804,-2.9804,-2.9804,-2.9804,-2.9804,-2.9804,-2.9804,-2.9804,-2.9804,-2.9804,-2.9804,-2.9804,-2.9804,-2.9804,0.0,-2.9804,-2.9804,-2.9804,-2.9804,-2.9804,-2.9804,-2.9804,-2.9804,-2.9779,-2.9779,-2.9779,-2.9779,-2.9779,-2.9779,-2.9779,-2.9779,-2.9377,-2.8762,-2.8247,-2.8097,-2.8097,-2.8097,-2.8097,-2.7971,-2.7419,-2.7293,-2.7178,-2.6625,-2.6499,-2.6323,-2.5711,-2.5184,-2.4625,-2.4104,-2.3471,-2.292,-2.2397,-2.2744,-2.2694,-2.1619,-2.197,-2.187,-2.0792,-2.0666,-2.0013,-1.8329,-1.8204,-1.7727,-1.6575,-1.7049,-1.7124,-1.6525,-1.65,-1.65,-1.65,-1.65,-1.65,-1.65,-1.65,-1.65,-1.65,-1.65,-1.6823,-1.8858,-2.0037,-2.0639,-1.9736,-1.8405,-1.6951,-1.5693,-1.4538,-1.3692,-1.3534,-1.3616,-1.4036,-1.4984,-1.516,-1.5588,-1.6898,-1.7426,-1.8003,0.0,0.0,0.0,-2.4356,-2.7193,-2.9076,0.0,0.0,-2.9804,-2.9804,-2.9804,-2.9804,-2.9804,-2.9804,-2.9804,-2.9804,-2.9804,-2.9804,-2.9804,-2.9804,-2.9804,-2.9804,-2.9804,-2.9804,-2.9804,-2.9804,-2.9804,-2.9804,-2.9804,-2.9804,-2.9804,-2.9804,-2.9804,-2.9804,-2.9804,-2.9804,-2.9804,-2.9804,-2.9804,-2.9804,-2.9804,-2.9804,-2.9804,-2.9804,-2.9804,-2.9804,-2.9804,-2.9654,-2.9402,-2.8825,-2.8398,-2.8197,-2.8574,-2.8674,-2.8587,-2.8411,-2.8122,-2.7695,-2.7178,-2.6751,-2.6449,-2.6248,-2.546,-2.4725,-2.4582,-2.3747,-2.3045,-2.2869,-2.2995,-2.2844,-2.2146,-2.2196,-2.1895,-2.0817,-2.0691,-2.0189,-1.8857,-1.8732,-1.8431,-1.7727,-1.7501,-1.7322,-1.7124,-1.6722,-1.6676,-1.7099,-1.7121,-1.73,-1.7654,-1.7654,-1.7654,-1.7654,-1.7654,-1.7777,0.0,-1.6638,-1.7088,-1.6734,-1.5841,0.0,0.0,-1.3331,-1.2668,-1.2668,-1.2808,-1.3293,-1.439,-1.4768,-1.5361,-1.6823,-1.7526,-1.8154,0.0,0.0,0.0,-2.5485,0.0,0.0,0.0,-2.9654,-2.9804,-2.9804,-2.9404,-2.9145,-2.9145,-2.8791,-2.8554,-2.8554,-2.9365,-2.9804,-2.9804,-2.9804,-2.9804,-2.9779,-2.9365,-2.9145,-2.9145,-2.9145,-2.9145,-2.9184,-2.9624,-2.9804,0.0,-2.9804,-2.9804,-2.9804,-2.9804,-2.9804,-2.9804,-2.9804,-2.9804,-2.9804,-2.9804,-2.9804,-2.9804,-2.9804,-2.9804,-2.9804,-2.9804,-2.9804,-2.9704,-2.9352,-2.9001,-2.8825,-2.9176,-2.9063,-2.8812,-2.8409,-2.8027,-2.7587,-2.6818,-2.6596,-2.6499,-2.6499,-2.5561,-2.48,-2.48,-2.3847,-2.3095,-2.3095,-2.3095,-2.297,-2.2644,-2.2594,-2.2272,-2.1421,-2.1119,-2.0641,-1.9736,-1.9434,-1.8983,-1.8254,-1.7817,-1.7503,-1.7282,-1.6662,-1.65,-1.6859,-1.6859,-1.7027,-1.7363,-1.7653,-1.7941,-1.8204,-1.843,-1.8481,0.0,-1.2499,0.0,0.0,0.0,0.0,-1.2535,-1.2155,0.0,-1.1848,-1.2196,-1.2834,-1.3963,-1.4528,-1.5217,-1.6461,-1.7157,-1.7956,0.0,-2.124,0.0,0.0,-2.7921,0.0,-2.8838,-2.9376,-2.9663,-2.9663,-2.8648,-2.7964,-2.7964,-2.7035,-2.6524,-2.6524,-2.8514,-2.9585,-2.9585,-2.9585,-2.9585,-2.9546,-2.849,-2.7964,-2.8004,-2.798,-2.794,0.0,-2.916,-2.9677,-2.9702,-2.974,-2.9804,-2.9804,-2.9804,-2.9804,-2.9804,-2.9804,-2.974,-2.9663,-2.9663,-2.9624,-2.9585,-2.9585,-2.9585,-2.9585,-2.9585,-2.9624,-2.9663,-2.9663,-2.9624,-2.9585,-2.9663,-2.9224,-2.8496,-2.7517,-2.7224,-2.6829,-2.5741,-2.5911,-2.6267,-2.6267,-2.5386,-2.4663,-2.4753,-2.3854,-2.313,-2.3221,-2.3195,-2.317,-2.317,-2.312,-2.2869,-2.2293,-2.1794,-2.127,-2.0691,-2.0112,-1.9359,-1.8308,-1.8017,-1.764,-1.7094,-1.6378,-1.6025,-1.6069,-1.6092,-1.6114,-1.6114,-1.6794,-1.7484,-1.8186,-1.866,-1.8933,-0.8428,0.0,-1.1637,-1.221,-1.2162,-1.1979,0.0,-1.1889,-1.1893,-1.2198,0.0,-1.2941,-1.4631,-1.4494,-1.5011,-1.7671,-1.8714,-1.9707,-2.1309,0.0,0.0,-2.8361,-2.9428,-2.9729,-2.8963,-2.8645,-2.8505,-2.8505,-2.7481,-2.6894,-2.6894,-2.6648,-2.6524,-2.6524,-2.7017,-2.7261,-2.7261,-2.7261,-2.7261,-2.7261,-2.7017,-2.6894,-2.6871,-2.6525,-2.6548,-2.6912,-2.7703,-2.8222,-2.8569,-2.9443,-2.9804,-2.9804,-2.9804,-2.9804,-2.9804,-2.9804,-2.9248,-2.8505,-2.8505,-2.7947,-2.7261,-2.7261,-2.7261,-2.7261,-2.7261,-2.7867,-2.8505,-2.8505,-2.7907,-2.7464,-2.8267,-2.7773,-2.7145,-2.7379,-2.6479,-2.5386,-2.4747,-2.4379,-2.4217,-2.4217,-2.3674,-2.3433,-2.4212,-2.3727,-2.3523,-2.4279,-2.4054,-2.3803,-2.3803,-2.3371,-2.2744,-2.1794,-2.1568,-2.1091,-2.0087,-1.9886,-1.9454,-1.8642,-1.8148,-1.7601,-1.6919,-1.6305,-1.618,-1.661,-1.7015,-1.7221,-1.7221,-1.7382,-1.7592,-1.7752,-1.7867,-1.823,-0.7111,-0.8465,-0.9868,-1.076,-1.0953,-1.1001,-1.1314,0.0,0.0,0.0,0.0,0.0,-1.4406,-1.4428,-1.5127,-1.8043,-1.8783,0.0,0.0,0.0,-2.6354,-2.7358,-2.8004,-2.8219,0.0,-2.7542,-2.736,-2.736,-2.6337,-2.5714,-2.5714,-2.521,-2.4935,-2.4935,-2.4935,-2.5442,-2.6483,-2.6524,-2.6524,-2.6483,-2.5964,-2.5714,-2.5714,-2.5452,-2.5474,-2.5775,-2.6679,-2.7145,-2.7441,-2.8569,-2.9028,-2.9028,-2.9028,-2.9028,-2.8949,-2.845,-2.7907,-2.736,-2.736,-2.7017,-2.6524,-2.6524,-2.6524,-2.6524,-2.6524,-2.6543,-2.6685,-2.7238,-2.6953,-2.6648,-2.7197,-2.657,-2.5829,-2.5984,-2.5121,-2.4196,-2.3695,-2.3526,-2.3526,-2.3526,-2.3086,-2.2857,-2.3444,-2.3041,-2.276,-2.3114,-2.2893,-2.2663,-2.2456,-2.2138,-2.1732,-2.1153,-2.0972,-2.0636,-2.0049,-1.9562,-1.9111,-1.8741,-1.779,-1.7068,-1.6683,-1.6045,-1.5861,-1.614,-1.6448,-1.6743,-1.7079,-1.7079,-1.7274,-1.7605,-1.7605,-1.7825,-0.6801,-0.7472,-0.822,-0.9425,-0.9781,-0.9991,-1.0628,0.0,0.0,0.0,0.0,0.0,0.0,-1.4487,0.0,0.0,0.0,0.0,-2.2724,-2.3623,-2.4399,-2.5627,-2.5896,0.0,-2.6326,-2.6315,-2.6235,-2.6235,-2.5168,-2.4532,-2.4532,-2.3627,-2.3101,-2.3101,-2.3101,-2.4016,-2.5986,-2.5986,-2.5986,-2.5986,-2.4999,-2.4532,-2.4532,-2.447,-2.447,-2.4575,-2.569,0.0,-2.6295,-2.74,-2.7844,-2.7884,-2.8044,-2.8004,-2.7763,-2.7221,-2.6689,-2.6235,-2.6069,-2.5986,-2.5986,-2.5986,-2.5986,-2.5986,-2.5986,-2.5294,-2.4745,-2.5735,-2.5986,-2.6027,-2.6193,-2.5426,-2.4534,-2.4172,-2.3595,-2.302,-2.2485,-2.2729,-2.3047,-2.3047,-2.2681,-2.2432,-2.2576,-2.2223,-2.1825,-2.1609,-2.1408,-2.1196,-2.0859,-2.068,-2.0568,-2.0478,-2.0197,-2.0,-1.9906,-1.9053,-1.8484,-1.8484,-1.7234,-1.6454,-1.634,-1.5729,-1.541,-1.541,-1.541,-1.5729,-1.6312,-1.6394,-1.6715,-1.7274,-1.734,-1.7396,-0.6444,-0.7127,-0.7731,-0.8317,-0.9015,-0.9687,-1.0116,0.0,0.0,0.0,0.0,0.0,0.0,-1.5032,-1.5972,0.0,0.0,-2.2581,0.0,0.0,-2.5945,-2.5663,0.0,-2.6726,-2.582,-2.535,-2.5041,-2.5041,-2.4016,-2.3343,-2.3343,-2.3212,-2.3101,-2.3101,-2.3101,-2.3256,-2.3647,-2.3647,-2.3647,-2.3647,-2.343,-2.3343,-2.3323,-2.3011,-2.3051,-2.341,0.0,-2.4764,-2.5168,-2.6295,-2.6771,-2.6853,-2.7723,-2.7562,-2.6976,-2.8673,-2.7504,-2.4914,-2.3973,-2.3647,-2.3647,-2.3647,-2.3647,-2.3647,-2.3647,-2.3517,-2.3387,-2.356,-2.3647,-2.3844,-2.4787,-2.3968,-2.3017,-2.349,-2.2571,-2.1431,-2.0996,-2.0994,-2.1049,-2.1049,-2.0989,-2.1159,-2.197,-2.2057,-2.2232,-2.3045,-2.2437,-2.1856,-2.1789,-2.1106,-2.0379,-1.9892,-1.9508,-1.908,-1.8644,-1.7861,-1.7419,-1.7419,-1.6835,-1.6197,-1.5584,-1.5468,-1.541,-1.541,-1.541,-1.5468,-1.5584,-1.596,-1.6029,-1.5758,-1.6167,-1.6451,-0.6012,-0.6794,-0.7667,-0.8302,-0.928,-1.0195,-1.0605,-1.1108,0.0,0.0,0.0,0.0,0.0,0.0,-1.7258,-1.9589,0.0,-2.2832,-2.3805,-2.4138,-2.4242,0.0,0.0,-2.4598,-2.4283,-2.4002,-2.3887,-2.3887,-2.3387,-2.3101,-2.3101,-2.3101,-2.2984,-2.2769,-2.2984,-2.2886,-2.2461,-2.2695,-2.2867,-2.3101,-2.3101,-2.3101,-2.3081,-2.2906,-2.2906,-2.3125,0.0,-2.3705,-2.3973,-2.5126,-2.5588,-2.563,-2.6108,-2.6025,-2.563,-2.6047,-2.521,-2.38,-2.3256,-2.3101,-2.3101,-2.3101,-2.3101,-2.3101,-2.3101,-2.3101,-2.3101,-2.3101,-2.3101,-2.3212,-2.3757,-2.3199,-2.2529,-2.2593,-2.1888,-2.1132,-2.0977,-2.0918,-2.0918,-2.0918,-2.0918,-2.0997,-2.1205,-2.1221,-2.1331,-2.1516,-2.1157,-2.0719,-2.0219,-1.9802,-1.9331,-1.884,-1.8775,-1.8662,-1.8416,-1.7856,-1.7337,-1.6961,-1.6507,-1.6147,-1.5791,-1.5527,-1.541,-1.541,-1.541,-1.541,-1.541,-1.587,-1.5987,-1.5762,-1.6007,-1.6286,-0.5878,-0.6841,-0.7982,-0.8685,0.0,-1.0661,-1.1648,-1.2308,0.0,0.0,0.0,0.0,0.0,-1.7316,0.0,-2.082,-2.1912,-2.2539,-2.2637,-2.2656,-2.2656,-2.2656,-2.2656,-2.275,-2.3062,-2.3101,-2.3101,-2.3101,-2.3101,-2.3101,-2.3101,-2.3003,-2.2808,-2.2519,-2.2734,-2.2539,-2.1894,-2.2207,-2.2519,-2.2808,-2.2906,-2.2945,-2.2945,-2.3042,-2.3101,-2.3101,-2.3101,-2.3101,-2.3169,-2.4039,-2.4425,-2.4425,-2.4702,-2.4957,-2.5041,-2.3627,-2.3256,-2.3474,-2.3169,-2.3101,-2.3101,-2.3101,-2.3101,-2.3101,-2.3101,-2.3101,-2.3101,-2.3101,-2.3101,-2.3101,-2.3101,-2.2789,-2.2441,-2.2109,-2.1699,-2.1346,-2.1346,-2.1346,-2.1346,-2.1346,-2.1346,-2.1269,-2.0977,-2.0781,-2.0605,-2.0273,-2.0039,-1.9668,-1.8987,-1.8812,-1.8598,-1.8203,-1.8288,-1.8323,-1.8253,-1.7924,-1.7529,-1.7031,-1.6523,-1.6242,-1.6242,-1.5801,-1.5625,-1.5693,-1.5625,-1.5566,-1.5566,-1.6144,-1.6242,-1.5948,-1.6261,-1.6387,-0.6373,-0.7645,-0.8903,-0.9251,-0.9612,-1.0546,-1.3203,-1.4031,0.0,-1.667,0.0,0.0,0.0,-1.835,-1.9609,-2.0976,-2.1912,-2.2656,-2.2984,0.0,-2.3042,-2.3042,-2.3042,-2.3062,-2.3081,-2.3101,-2.3101,-2.3101,-2.3101,-2.3101,-2.3101,-2.2773,-2.2539,-2.2519,-2.2168,-2.1953,-2.1894,-2.1914,-2.1953,-2.1973,-2.2363,-2.2559,-2.2578,-2.2925,-2.3101,-2.3101,-2.3101,-2.3101,-2.3101,-2.3188,-2.3212,-2.3343,-2.4382,-2.5462,-2.611,-2.3887,-2.3757,-2.4532,-2.3474,-2.3101,-2.3101,-2.3101,-2.3101,-2.3101,-2.3101,-2.3101,-2.3101,-2.3101,-2.3101,-2.3101,-2.3101,-2.2789,-2.25,-2.248,-2.2148,-2.1836,-2.1836,-2.1836,-2.1836,-2.1836,-2.1836,-2.1836,-2.1797,-2.1465,-2.1132,-2.1112,-2.0411,-1.9883,-1.9787,-1.9473,-1.9082,-1.8598,-1.8257,-1.786,-1.7501,-1.7442,-1.7566,-1.7891,-1.7116,-1.6648,-1.6648,-1.625,-1.6242,-1.659,-1.623,-1.6046,-1.6046,-1.6907,-1.666,-1.5488,-1.6719,-1.6641,-0.6499,-0.7688,-0.9048,-0.993,-1.0791,0.0,0.0,-1.4701,-1.5838,-1.7135,-1.834,0.0,0.0,0.0,-2.0586,-2.2126,-2.293,-2.3359,-2.3516,-2.3535,-2.3437,-2.312,-2.3101,-2.3101,-2.3101,-2.3101,-2.3101,-2.3101,-2.3101,-2.3101,-2.3101,-2.2734,-2.2402,-2.2129,-2.1973,-2.1621,-2.1114,-2.1348,-2.1348,-2.1114,-2.1777,-2.2266,-2.2519,-2.2676,-2.2847,-2.3101,-2.3101,-2.3101,-2.3101,-2.3101,-2.3101,-2.3144,-2.3541,-2.4016,-2.4274,-2.343,-2.3387,-2.3671,-2.3256,-2.3101,-2.3101,-2.3101,-2.3101,-2.3101,-2.3101,-2.3101,-2.3101,-2.3101,-2.3101,-2.3101,-2.3101,-2.2984,-2.2789,-2.2578,-2.2383,-2.2266,-2.2266,-2.2266,-2.2266,-2.2266,-2.2266,-2.2187,-2.1934,-2.1523,-2.119,-2.119,-2.0723,-2.0215,-1.9941,-1.9785,-1.9512,-1.9082,-1.8906,-1.8633,-1.8169,-1.8164,-1.8091,-1.8008,-1.7461,-1.7129,-1.7129,-1.6719,-1.6531,-1.6687,-1.6562,-1.6484,-1.6484,-1.709,-1.7129,-1.6641,-1.6875,-1.6855,-0.6667,-0.7829,-0.9209,-1.013,0.0,0.0,-1.4363,-1.5882,-1.7279,-1.857,-1.9609,-2.043,-2.0937,0.0,0.0,0.0,-2.3125,-2.3574,-2.3574,-2.3574,-2.3477,-2.314,-2.3101,-2.3101,-2.3101,-2.3101,-2.3042,-2.2906,-2.2906,-2.2847,-2.2711,-2.2301,-2.1973,-2.1699,-2.1543,-2.1212,-2.0605,-2.0879,-2.0859,-2.0605,-2.1212,-2.1699,-2.2087,-2.2519,-2.275,-2.2906,-2.3042,-2.3101,-2.3101,-2.3101,-2.3101,-2.3101,-2.3101,-2.3101,-2.3101,-2.3101,-2.3101,-2.3101,-2.3101,-2.3101,-2.3101,-2.3101,-2.3101,-2.3101,-2.3101,-2.3101,-2.3101,-2.3101,-2.3101,-2.3101,-2.3101,-2.3101,-2.3023,-2.273,-2.2672,-2.2672,-2.2672,-2.2672,-2.2672,-2.2672,-2.2672,-2.2617,-2.2324,-2.1914,-2.1561,-2.1465,-2.1055,-2.0625,-2.0176,-2.0117,-1.9961,-1.9531,-1.9375,-1.916,-1.8867,-1.8676,-1.8481,-1.8223,-1.7812,-1.7578,-1.7578,-1.7168,-1.696,-1.7096,-1.698,-1.6902,-1.6902,-1.7363,-1.7441,-1.7168,-1.7116,-1.7148,-0.7006,-0.8172,-0.9467,-0.9731,0.0,0.0,-1.6019,-1.7764,-1.9314,-2.1445,-2.1543,-2.1094,-2.0703,-2.0937,0.0,-2.121,-2.2262,-2.3101,-2.3101,-2.3101,-2.3101,-2.3101,-2.3101,-2.3101,-2.3101,-2.3081,-2.2925,-2.2539,-2.25,-2.2324,-2.1914,-2.1424,-2.119,-2.119,-2.0801,-2.0605,-2.0605,-2.0605,-2.0605,-2.0605,-2.0605,-2.0801,-2.1249,-2.2516,-2.2867,-2.2539,-2.2906,-2.3101,-2.3101,-2.3101,-2.3101,-2.3101,-2.3101,-2.3101,-2.3101,-2.3101,-2.3101,-2.3101,-2.3101,-2.3101,-2.3101,-2.3101,-2.3101,-2.3101,-2.3101,-2.3101,-2.3101,-2.3101,-2.3101,-2.3101,-2.3101,-2.3101,-2.3101,-2.3101,-2.3101,-2.3101,-2.3101,-2.3101,-2.3101,-2.3101,-2.3101,-2.3101,-2.3101,-2.275,-2.2363,-2.1953,-2.1504,-2.1074,-2.0664,-2.0605,-2.0429,-1.998,-1.9551,-1.9297,-1.9297,-1.8906,-1.8617,-1.8598,-1.8242,-1.8008,-1.8008,-1.7617,-1.7578,-1.8008,-1.7598,-1.7416,-1.7416,-1.7812,-1.7578,-1.6726,-1.7584,-1.7525,-0.7281,-0.8157,0.0,-0.9957,0.0,0.0,0.0,-1.6421,0.0,0.0,-2.1289,-2.0996,-2.1797,-2.1797,0.0,-2.209,-2.2652,-2.3101,-2.3101,-2.3101,-2.3101,-2.3101,-2.3101,-2.3101,-2.3101,-2.2828,-2.2656,-2.2519,-2.2246,-2.2012,-2.1894,-2.1424,-2.119,-2.119,-2.0801,-2.0605,-2.0605,-2.0605,-2.0605,-2.0605,-2.0879,-2.1269,-2.1699,-2.209,-2.2519,-2.2925,-2.3042,-2.3101,-2.3101,-2.3101,-2.3101,-2.3101,-2.3101,-2.3101,-2.3101,-2.3101,-2.3101,-2.3101,-2.3101,-2.3101,-2.3101,-2.3101,-2.3101,-2.3101,-2.3101,-2.3101,-2.3101,-2.3101,-2.3101,-2.3101,-2.3101,-2.3101,-2.3101,-2.3101,-2.3101,-2.3101,-2.3101,-2.3101,-2.3101,-2.3101,-2.3101,-2.3101,-2.3101,-2.275,-2.2363,-2.1953,-2.1504,-2.1151,-2.1055,-2.0762,-2.0683,-2.0781,-2.0449,-2.0059,-1.9746,-1.9609,-1.9241,-1.8637,-1.8481,-1.8286,-1.8027,-1.7891,-1.7891,-1.8008,-1.7891,-1.7812,-1.7812,-1.7949,-1.7891,-1.7603,-1.7578,-1.7441,-0.7879,-0.847,0.0,-1.032,-1.1475,-1.2787,-1.446,0.0,0.0,0.0,-2.061,-2.0602,-2.1358,-2.1739,0.0,-2.2227,-2.2711,-2.3101,-2.3101,-2.3101,-2.3042,-2.2867,-2.2847,-2.2789,-2.2656,-2.2402,-2.2187,-2.2012,-2.1777,-2.1543,-2.1407,-2.1113,-2.0977,-2.0977,-2.0742,-2.0605,-2.0605,-2.0605,-2.0605,-2.0605,-2.084,-2.1289,-2.1894,-2.2051,-2.2402,-2.2847,-2.3023,-2.3101,-2.3101,-2.3101,-2.3101,-2.3101,-2.3101,-2.3101,-2.3101,-2.3101,-2.3101,-2.3101,-2.3101,-2.3101,-2.3101,-2.3101,-2.3101,-2.3101,-2.3101,-2.3101,-2.3101,-2.3101,-2.3101,-2.3101,-2.3101,-2.3101,-2.3101,-2.3101,-2.3101,-2.3101,-2.3101,-2.3101,-2.3101,-2.3101,-2.3101,-2.3101,-2.3101,-2.2886,-2.2617,-2.2207,-2.158,-2.1132,-2.0996,-2.0742,-2.0703,-2.0937,-2.0723,-2.0507,-2.0195,-2.0019,-1.9687,-1.9143,-1.8792,-1.8481,-1.8247,-1.8071,-1.8008,-1.8008,-1.8008,-1.8008,-1.8008,-1.8008,-1.8008,-1.8008,-1.7754,-1.7637,-0.8564,-0.9018,0.0,-1.0742,-1.153,0.0,-1.4185,-1.6392,-1.8295,-1.9171,0.0,-2.0039,-2.0039,-2.1066,-2.1894,-2.1894,-2.2519,-2.2984,-2.2984,-2.2984,-2.2847,-2.25,-2.2461,-2.2305,-2.1934,-2.1855,-2.166,-2.1229,-2.1151,-2.0996,-2.0625,-2.0605,-2.0605,-2.0605,-2.0605,-2.0605,-2.0605,-2.0605,-2.0605,-2.0605,-2.0605,-2.1055,-2.1836,-2.2266,-2.25,-2.2598,-2.2925,-2.3101,-2.3101,-2.3101,-2.3101,-2.3101,-2.3101,-2.3101,-2.3101,-2.3101,-2.3101,-2.3101,-2.3101,-2.3101,-2.3101,-2.3101,-2.3101,-2.3101,-2.3101,-2.3101,-2.3101,-2.3101,-2.3101,-2.3101,-2.3101,-2.3101,-2.3101,-2.3101,-2.3101,-2.3101,-2.3101,-2.3101,-2.3101,-2.3101,-2.3101,-2.3101,-2.3101,-2.3101,-2.2945,-2.2578,-2.1775,-2.1152,-2.0781,-2.0683,-2.0683,-2.0723,-2.0644,-2.0625,-2.0664,-2.0234,-1.9941,-1.9863,-1.9124,-1.8676,-1.8598,-1.8188,-1.8008,-1.8008,-1.8008,-1.8008,-1.8008,-1.8008,-1.8008,-1.8008,-1.8008,-1.8008,-0.8501,-0.9192,0.0,0.0,-1.2268,-1.3467,-1.4334,-1.4933,-1.5879,-1.7782,-1.9462,-2.0537,-2.0537,-2.1315,-2.1894,-2.1894,-2.2031,-2.2148,-2.2148,-2.2148,-2.2129,-2.2031,-2.2031,-2.1992,-2.1894,-2.1582,-2.1288,-2.121,-2.0898,-2.0703,-2.0605,-2.0605,-2.0605,-2.0605,-2.0605,-2.0605,-2.0605,-2.0605,-2.0605,-2.0605,-2.0605,-2.084,-2.1387,-2.1816,-2.2383,-2.2964,-2.3062,-2.3101,-2.3101,-2.3101,-2.3101,-2.3101,-2.3101,-2.3101,-2.3101,-2.3101,-2.3101,-2.3101,-2.3101,-2.3101,-2.3101,-2.3101,-2.3101,-2.3101,-2.3101,-2.3101,-2.3101,-2.3101,-2.3101,-2.3101,-2.3101,-2.3101,-2.3101,-2.3101,-2.3101,-2.3101,-2.3101,-2.3101,-2.3101,-2.3101,-2.3101,-2.3101,-2.3101,-2.3101,-2.2945,-2.2578,-2.207,-2.1719,-2.1621,-2.1309,-2.1211,-2.1562,-2.1016,-2.0742,-2.1015,-2.0684,-2.0175,-1.9473,-1.9551,-1.9299,-1.8637,-1.8188,-1.8008,-1.8008,-1.8008,-1.8008,-1.8008,-1.8008,-1.8008,-1.8008,-1.8008,-1.8008,-0.8712,0.0,0.0,-1.1663,0.0,-1.372,-1.4215,-1.4416,-1.4813,-1.5991,-1.7878,-1.9298,-1.9298,-2.0564,-2.1399,-2.0888,-2.0957,-2.1089,-2.1089,-2.1089,-2.1199,-2.152,-2.1094,-2.0712,-2.0523,-1.9813,-1.9304,-1.9304,-1.9145,-1.9143,-1.9465,-1.9504,-1.9735,-2.0254,-2.0254,-2.0352,-2.0605,-2.0605,-2.0605,-2.0605,-2.0605,-2.0801,-2.121,-2.168,-2.2344,-2.3081,-2.2886,-2.2906,-2.3101,-2.3101,-2.3101,-2.3101,-2.3101,-2.3101,-2.3101,-2.3101,-2.3101,-2.3101,-2.3101,-2.3101,-2.3101,-2.3101,-2.3101,-2.3101,-2.3101,-2.3101,-2.3101,-2.3101,-2.3101,-2.3101,-2.3101,-2.3101,-2.3101,-2.3101,-2.3101,-2.3101,-2.3101,-2.3101,-2.3101,-2.3101,-2.3101,-2.3101,-2.3101,-2.3101,-2.2945,-2.2578,-2.2324,-2.2109,-2.1914,-2.168,-2.1562,-2.1562,-2.1152,-2.0898,-2.0918,-2.0742,-2.041,-1.9959,-1.9902,-1.9707,-1.9241,-1.8617,-1.8286,-1.8286,-1.8105,-1.8008,-1.8008,-1.8008,-1.8008,-1.8008,-1.8008,-1.8008,-0.891,0.0,-1.0385,-1.2248,-1.312,0.0,-1.3948,-1.4242,-1.4429,-1.4376,-1.6044,-1.7501,-1.7501,-1.917,-2.0251,-1.9362,-1.949,-1.9704,-1.9704,-1.9704,-1.9893,-2.0396,-1.9677,-1.8972,-1.858,-1.7712,-1.7152,-1.7152,-1.7363,-1.774,-1.8303,-1.8477,-1.8974,-1.9865,-1.9922,-2.0078,-2.0488,-2.0566,-2.0566,-2.0488,-2.0488,-2.0684,-2.1093,-2.1484,-2.2168,-2.2964,-2.2656,-2.2711,-2.3101,-2.3101,-2.3101,-2.3101,-2.3101,-2.3101,-2.3101,-2.3101,-2.3101,-2.3101,-2.3101,-2.3101,-2.3101,-2.3101,-2.3101,-2.3101,-2.3101,-2.3101,-2.3101,-2.3101,-2.3101,-2.3101,-2.3101,-2.3101,-2.3101,-2.3101,-2.3101,-2.3101,-2.3101,-2.3101,-2.3101,-2.3101,-2.3101,-2.3101,-2.3101,-2.3101,-2.2984,-2.2676,-2.2617,-2.2461,-2.2051,-2.1992,-2.1836,-2.1346,-2.1249,-2.1094,-2.0742,-2.0644,-2.0566,-2.0488,-2.0195,-1.998,-1.9922,-1.9202,-1.8812,-1.8812,-1.8266,-1.8008,-1.8008,-1.8008,-1.8008,-1.8008,-1.8008,-1.8008,0.0,0.0,-1.1062,0.0,-1.2812,-1.3347,0.0,0.0,-1.4068,0.0,-1.5105,-1.6317,-1.6317,-1.716,-1.7782,-1.762,-1.7653,-1.7687,-1.7687,-1.7687,-1.7617,-1.7485,-1.7355,-1.7125,-1.6792,-1.6606,-1.6513,-1.6513,-1.7642,-1.8377,-1.8477,-1.926,-1.9752,-1.9922,-1.9922,-1.9941,-2.0,-2.041,-2.041,-2.0,-2.0,-2.0234,-2.0703,-2.0762,-2.1426,-2.2598,-2.2539,-2.2711,-2.3101,-2.3101,-2.3101,-2.3101,-2.3101,-2.3101,-2.3101,-2.3101,-2.3101,-2.3101,-2.3101,-2.3101,-2.3101,-2.3101,-2.3101,-2.3101,-2.3101,-2.3101,-2.3101,-2.3101,-2.3101,-2.3101,-2.3101,-2.3101,-2.3101,-2.3101,-2.3101,-2.3101,-2.3101,-2.3101,-2.3101,-2.3101,-2.3101,-2.3101,-2.3101,-2.3101,-2.3081,-2.3023,-2.3003,-2.2867,-2.248,-2.2422,-2.2266,-2.1836,-2.1465,-2.1171,-2.1112,-2.0781,-2.0449,-2.0019,-2.0331,-2.0312,-1.9941,-1.9805,-1.9746,-1.9746,-1.8594,-1.8008,-1.8008,-1.8008,-1.8008,-1.8008,-1.8008,-1.8008,-0.8823,-0.974,-1.0474,0.0,-1.2011,-1.2585,-1.3039,-1.3373,-1.3561,-1.3427,-1.3953,-1.465,-1.5246,-1.615,-1.6606,-1.6016,-1.5897,-1.5897,-1.5897,-1.607,-1.6293,-1.6586,-1.6266,-1.5858,-1.555,-1.4941,-1.4608,-1.4608,-1.5171,-1.5931,-1.6836,-1.7268,-1.8027,-1.9127,-1.9163,-1.9434,-1.9902,-2.0098,-2.0234,-2.0273,-2.0273,-2.0391,-2.0605,-2.0605,-2.131,-2.25,-2.2266,-2.2539,-2.3101,-2.3101,-2.3101,-2.3101,-2.3101,-2.3101,-2.3101,-2.3101,-2.3101,-2.3101,-2.3101,-2.3101,-2.3101,-2.3101,-2.3101,-2.3101,-2.3101,-2.3101,-2.3101,-2.3101,-2.3101,-2.3101,-2.3101,-2.3101,-2.3101,-2.3101,-2.3101,-2.3101,-2.3101,-2.3101,-2.3101,-2.3101,-2.3101,-2.3101,-2.3101,-2.3101,-2.3101,-2.3101,-2.3101,-2.3023,-2.2847,-2.2828,-2.2695,-2.2285,-2.1855,-2.1602,-2.1602,-2.0957,-2.0625,-2.0605,-2.0605,-2.0507,-2.0293,-2.0039,-1.9922,-1.9922,-1.8851,-1.8477,-1.873,-1.8242,-1.8262,-1.8711,-1.8477,-1.8325,0.0,0.0,-0.9753,-1.0474,-1.1136,-1.1725,0.0,0.0,-1.2893,0.0,-1.2973,-1.3206,-1.4026,-1.4935,-1.5327,-1.453,-1.4375,-1.4375,-1.4375,-1.4594,-1.4924,-1.5409,-1.4994,-1.4531,-1.4194,-1.3424,-1.2973,-1.2973,-1.3313,-1.4117,-1.5569,-1.5883,-1.6793,-1.8562,-1.8598,-1.8909,-1.9553,-1.9553,-1.9746,-2.0078,-2.0233,-2.0273,-2.0292,-2.0507,-2.1152,-2.2168,-2.1855,-2.2207,-2.2945,-2.2945,-2.3003,-2.3101,-2.3101,-2.3101,-2.3101,-2.3101,-2.3101,-2.3101,-2.3101,-2.3101,-2.3101,-2.3101,-2.3101,-2.3101,-2.3101,-2.3101,-2.3101,-2.3101,-2.3101,-2.3101,-2.3101,-2.3101,-2.3101,-2.3101,-2.3101,-2.3101,-2.3101,-2.3101,-2.3101,-2.3101,-2.3101,-2.3101,-2.3101,-2.3101,-2.3101,-2.3101,-2.3101,-2.3101,-2.3101,-2.3101,-2.2945,-2.2559,-2.2129,-2.1836,-2.1738,-2.1016,-2.0742,-2.1055,-2.0742,-2.0605,-2.0605,-2.0254,-2.0078,-2.0078,-1.9299,-1.9026,-1.9297,-1.8652,-1.8652,-1.9277,-1.8965,-1.8773,0.0,-0.9018,0.0,-0.9673,-1.0224,0.0,0.0,0.0,-1.206,-1.2291,-1.2345,-1.2345,-1.2419,-1.2927,-1.3358,-1.3279,-1.3292,-1.3292,-1.3292,-1.3292,-1.3238,-1.2991,-1.2939,-1.2793,-1.2446,-1.2382,-1.2345,-1.2345,-1.3561,-1.477,-1.5736,-1.6612,-1.7584,-1.8562,-1.8598,-1.8617,-1.8676,-1.8676,-1.8676,-1.8715,-1.916,-1.9355,-1.9375,-2.0233,-2.084,-2.1268,-2.1229,-2.1717,-2.2539,-2.2539,-2.2773,-2.3101,-2.3101,-2.3101,-2.3101,-2.3101,-2.3101,-2.3101,-2.3101,-2.3101,-2.3101,-2.3101,-2.3101,-2.3101,-2.3101,-2.3101,-2.3101,-2.3101,-2.3101,-2.3101,-2.3101,-2.3101,-2.3101,-2.3101,-2.3101,-2.3101,-2.3101,-2.3101,-2.3101,-2.3101,-2.3101,-2.3101,-2.3101,-2.3101,-2.3101,-2.3101,-2.3101,-2.3101,-2.3101,-2.3101,-2.2945,-2.2559,-2.2129,-2.1719,-2.1268,-2.084,-2.0625,-2.0644,-2.0625,-2.0605,-2.0605,-2.0586,-2.0566,-2.0566,-2.0078,-1.9668,-1.9297,-1.9238,-1.9238,-1.9297,-1.9258,-1.9258,0.0,0.0,0.0,-0.9297,-0.9699,-1.0131,-1.0501,-1.0808,-1.1149,-1.1396,-1.1463,-1.1516,-1.1703,-1.2225,-1.2625,-1.2625,-1.2625,-1.2625,-1.2625,-1.2786,-1.2837,-1.2529,-1.2663,-1.2663,-1.2331,-1.2305,-1.2305,-1.2305,-1.2769,-1.3389,-1.4139,-1.5309,-1.6246,-1.6961,-1.7793,-1.8046,-1.7692,-1.7369,-1.72,-1.72,-1.7379,-1.7537,-1.7746,-1.8068,-1.8382,-1.873,-1.9454,-2.0835,-2.2539,-2.2769,-2.2964,-2.3101,-2.3101,-2.3101,-2.3101,-2.3101,-2.3101,-2.3101,-2.3101,-2.3101,-2.3101,-2.3101,-2.3101,-2.3101,-2.3101,-2.3101,-2.3101,-2.3101,-2.3101,-2.3101,-2.3101,-2.3101,-2.3101,-2.3101,-2.3101,-2.3101,-2.3101,-2.3101,-2.3101,-2.3101,-2.3101,-2.3101,-2.3101,-2.3101,-2.3101,-2.3101,-2.3101,-2.3101,-2.3101,-2.3101,-2.3042,-2.2886,-2.2539,-2.2324,-2.2399,-2.1816,-2.1523,-2.1797,-2.1562,-2.1289,-2.1016,-2.0996,-2.0859,-2.0605,-2.0449,-2.0292,-2.0136,-1.9551,-1.957,-2.0136,-1.9824,-1.9687,-0.8156,0.0,0.0,0.0,0.0,-0.9432,-0.9633,-0.99,-1.0194,-1.0488,-1.0715,-1.0942,-1.1223,-1.1677,-1.2037,-1.2144,-1.2238,-1.2305,-1.2305,-1.2478,-1.2556,-1.2318,-1.2516,-1.2556,-1.2318,-1.2305,-1.2305,-1.2305,-1.2305,-1.2649,-1.3403,-1.4225,-1.5039,-1.5771,-1.6622,-1.6895,-1.6545,-1.619,-1.6013,-1.6013,-1.6225,-1.6458,-1.6669,-1.6917,-1.7143,-1.735,-1.8279,-1.9843,-2.1778,-2.2427,-2.2847,-2.3101,-2.3101,-2.3101,-2.3101,-2.3101,-2.2862,-2.2492,-2.2492,-2.2227,-2.1961,-2.2359,-2.2492,-2.258,-2.2994,-2.3101,-2.3101,-2.3101,-2.3101,-2.3101,-2.3101,-2.3101,-2.3101,-2.3101,-2.3101,-2.3101,-2.3101,-2.3101,-2.3101,-2.3101,-2.3101,-2.3101,-2.3101,-2.3101,-2.3101,-2.3101,-2.3101,-2.3101,-2.3101,-2.3101,-2.295,-2.2536,-2.213,-2.1806,-2.1676,-2.14,-2.1389,-2.1655,-2.1823,-2.1758,-2.1465,-2.1268,-2.1054,-2.0801,-2.0683,-2.0605,-2.0605,-2.0038,-2.0038,-2.0605,-2.0273,-2.0137,0.0,0.0,0.0,0.0,0.0,0.0,-0.8804,0.0,-0.9284,-0.9606,-1.0157,-1.064,-1.0902,-1.1196,-1.149,-1.1819,-1.2091,-1.2291,-1.2291,-1.2291,-1.2291,-1.2305,-1.2291,-1.2291,-1.2291,-1.2291,-1.2291,-1.2291,-1.2291,-1.2682,-1.3629,-1.3723,-1.4191,-1.519,-1.5207,-1.5171,-1.5171,-1.5119,-1.5119,-1.5136,-1.579,-1.6097,-1.613,-1.6868,-1.7212,-1.7229,-1.7714,-1.8733,-2.0177,-2.1358,-2.2298,-2.2994,-2.2994,-2.2994,-2.3013,-2.3038,-2.2252,-2.1239,-2.1302,-2.0522,-1.9679,-2.0881,-2.1257,-2.148,-2.2643,-2.2994,-2.2994,-2.2994,-2.2994,-2.2994,-2.2994,-2.2994,-2.3013,-2.3057,-2.3057,-2.3057,-2.3101,-2.3101,-2.3101,-2.3101,-2.3101,-2.3101,-2.3101,-2.3101,-2.3101,-2.3101,-2.3101,-2.3101,-2.3101,-2.3057,-2.258,-2.1436,-2.0915,-2.0158,-1.8924,-1.9549,-1.9978,-1.9978,-2.1169,-2.1831,-2.1812,-2.1362,-2.1129,-2.115,-2.0761,-2.0586,-2.0605,-2.0605,-2.0605,-2.0605,-2.0605,-2.0605,-0.6642,0.0,0.0,0.0,0.0,0.0,0.0,0.0,-0.8978,-0.9271,-0.9471,-0.9699,-0.9993,-1.0287,-1.0581,-1.0908,-1.1564,-1.202,-1.202,-1.202,-1.2064,-1.2278,-1.2118,-1.202,-1.202,-1.202,-1.202,0.0,-1.202,-1.2414,-1.3359,-1.4045,-1.496,-1.6175,-1.4835,-1.4099,-1.4099,-1.3448,-1.3084,-1.3098,-1.3534,-1.3848,-1.4052,-1.4465,-1.4764,-1.5033,-1.5925,-1.6724,-1.7493,-1.9195,-1.9992,-2.0201,-2.0435,-2.0494,-2.0584,-2.148,-2.1033,-2.0116,-2.0971,-2.0522,-1.9542,-1.9906,-1.998,-2.007,-2.0404,-2.0494,-2.0494,-2.0494,-2.0494,-2.0494,-2.0494,-2.0494,-2.0719,-2.1569,-2.181,-2.2031,-2.2906,-2.3101,-2.3101,-2.3101,-2.3101,-2.3101,-2.3101,-2.3101,-2.3101,-2.3101,-2.3101,-2.3101,-2.3101,-2.2359,-2.1658,-2.1346,-2.0435,-1.9709,-1.9348,-1.9519,-1.963,-1.963,-1.996,-2.0016,-1.9756,-1.9549,-1.9604,-1.9897,-1.981,-2.0008,-2.0605,-2.0605,-2.0605,-2.0605,-2.0605,-2.0605,0.0,0.0,0.0,0.0,0.0,0.0,-0.8202,-0.8502,-0.8818,0.0,-0.9044,-0.9257,-0.9459,-0.974,-0.9993,-1.0198,-1.0868,-1.1444,-1.165,-1.169,-1.1744,-1.1917,-1.1784,-1.169,-1.169,-1.169,-1.1906,-1.2452,-1.2501,-1.2756,-1.3418,-1.3631,-1.4061,-1.4783,-1.3702,-1.3135,-1.3135,-1.2549,-1.2358,-1.2529,-1.2837,-1.3093,-1.336,-1.3653,-1.3921,-1.4124,-1.4768,-1.5161,-1.5503,-1.6829,-1.8084,-1.9135,-1.941,-1.9497,-1.9588,-2.0314,-1.9815,-1.8872,-1.9542,-1.8993,-1.8025,-1.8596,-1.8734,-1.881,-1.936,-1.9497,-1.9497,-1.9497,-1.9497,-1.9497,-1.9497,-1.9497,-1.9679,-2.0387,-2.0522,-2.0764,-2.1454,-2.1587,-2.1917,-2.2906,-2.2687,-2.2359,-2.2359,-2.1943,-2.1587,-2.1587,-2.1587,-2.1587,-2.1587,-2.0989,-2.0342,-1.9844,-1.9177,-1.8549,-1.7979,-1.8442,-1.8734,-1.8734,-1.9222,-1.9397,-1.9154,-1.9434,-1.9713,-1.9955,-2.0269,-2.0564,-2.084,-2.0703,-2.0605,-2.0605,-2.0605,-2.0605,0.0,0.0,0.0,0.0,0.0,0.0,-0.7396,-0.8059,-0.8659,0.0,-0.8831,-0.9164,-0.9164,-0.9406,-0.9593,-0.9633,-1.0104,-1.0653,-1.1236,-1.1295,-1.1309,-1.1335,-1.1282,-1.1255,-1.1329,-1.1295,-1.1826,-1.309,-1.3354,-1.35,-1.3687,-1.2915,-1.2452,-1.2452,-1.2342,-1.2305,-1.2305,-1.2305,-1.2438,-1.2744,-1.3013,-1.3307,-1.356,-1.3908,-1.4055,-1.4082,-1.4082,-1.4082,-1.4135,-1.4767,-1.6431,-1.8669,-1.8969,-1.9085,-1.9131,-1.9268,-1.8549,-1.7498,-1.7638,-1.6857,-1.5974,-1.7124,-1.7498,-1.7684,-1.8764,-1.9085,-1.9085,-1.9085,-1.9085,-1.9085,-1.9085,-1.9085,-1.9131,-1.9268,-1.9314,-1.936,-1.9497,-1.9497,-2.0133,-2.2271,-2.1854,-2.1105,-2.1105,-2.0206,-1.9497,-1.9497,-1.9497,-1.9497,-1.9497,-1.936,-1.8918,-1.7824,-1.7544,-1.7044,-1.5927,-1.6857,-1.7498,-1.7498,-1.8503,-1.9085,-1.9085,-1.9898,-2.0412,-2.0489,-2.1385,-2.1602,-2.1112,-2.0762,-2.0605,-2.0605,-2.0605,-2.0605,0.0,0.0,0.0,0.0,0.0,0.0,-0.7565,-0.7862,-0.8199,0.0,-0.8818,-0.8884,-0.8884,-0.8938,-0.9058,-0.9257,-0.9391,-0.978,-1.064,-1.076,-1.0854,-1.1049,-1.0661,-1.0461,-1.0734,-1.076,-1.1224,-1.2324,-1.3541,-1.408,-1.3723,-1.352,-1.3426,-1.3426,-1.2696,-1.2305,-1.2305,-1.2305,-1.2331,-1.2385,-1.273,-1.3038,-1.3307,-1.356,-1.3813,-1.4082,-1.4082,-1.4082,-1.4135,-1.4767,-1.5304,-1.5849,-1.635,-1.6513,-1.6655,-1.7684,-1.7264,-1.6339,-1.7358,-1.6857,-1.5832,-1.6103,-1.615,-1.6197,-1.6466,-1.6513,-1.6513,-1.6513,-1.6513,-1.6513,-1.6513,-1.6513,-1.6796,-1.7824,-1.8056,-1.8319,-1.9314,-1.9497,-1.9633,-2.0133,-1.9997,-1.9844,-1.9844,-1.9679,-1.9497,-1.9497,-1.9497,-1.9497,-1.9497,-1.8642,-1.7963,-1.7731,-1.6763,-1.6069,-1.5832,-1.6008,-1.615,-1.615,-1.6386,-1.6513,-1.6513,-1.7656,-1.8541,-1.9173,-2.0583,-2.1152,-2.0742,-2.0644,-2.0605,-2.0605,-2.0605,-2.0605,0.0,0.0,0.0,-0.5246,0.0,0.0,0.0,-0.7025,-0.7494,-0.8327,-0.8362,-0.8419,-0.891,-0.8871,-0.8858,-0.8978,-0.9124,-0.9364,-0.9833,-1.0064,-1.0211,-1.0358,-1.0074,-0.9953,-1.0131,-1.0261,-1.0892,-1.2196,-1.3155,-1.3595,-1.3329,-1.2839,-1.2629,-1.2784,-1.2331,-1.2158,-1.2305,-1.2305,-1.2371,-1.2556,-1.2717,-1.3025,-1.3387,-1.3533,-1.376,-1.4082,-1.4082,-1.4082,-1.4135,-1.4767,-1.5008,-1.5062,-1.5605,-1.5784,-1.5879,-1.6527,-1.6339,-1.5879,-1.6527,-1.6339,-1.5784,-1.5784,-1.5784,-1.5784,-1.5784,-1.5784,-1.5784,-1.5784,-1.5784,-1.5784,-1.5784,-1.5784,-1.5974,-1.6622,-1.6763,-1.6936,-1.7529,-1.7669,-1.7669,-1.7669,-1.7669,-1.7855,-1.8503,-1.8087,-1.7669,-1.7669,-1.7669,-1.7669,-1.7669,-1.7124,-1.6763,-1.6763,-1.6197,-1.5784,-1.5784,-1.5784,-1.5784,-1.5784,-1.5784,-1.5784,-1.5784,-1.703,-1.8149,-1.9126,-1.9687,-1.9913,-1.9698,-1.9362,-1.9675,-2.0605,-2.0605,-2.0605,0.0,0.0,0.0,0.0,0.0,-0.5774,0.0,0.0,0.0,-0.7706,-0.7788,-0.7949,0.0,0.0,0.0,-0.8804,0.0,0.0,0.0,-0.9365,0.0,-0.9593,-0.9552,-0.9539,-0.9593,-1.0007,-1.0723,-1.1858,-1.2392,-1.265,-1.2543,-1.1805,-1.153,-1.1819,-1.1784,-1.1931,-1.2211,-1.2225,-1.2371,-1.2703,-1.2703,-1.2973,-1.352,-1.352,-1.3706,-1.4082,-1.4082,-1.4082,-1.4135,-1.4767,-1.5008,-1.5062,-1.5605,-1.5784,-1.5784,-1.5784,-1.5784,-1.5784,-1.5784,-1.5784,-1.5784,-1.5784,-1.5784,-1.5784,-1.5784,-1.5784,-1.5784,-1.5784,-1.5784,-1.5784,-1.5784,-1.5784,-1.5784,-1.5784,-1.5784,-1.5784,-1.5784,-1.5784,-1.5784,-1.5784,-1.5784,-1.6103,-1.7185,-1.648,-1.5784,-1.5784,-1.5784,-1.5784,-1.5784,-1.5784,-1.5784,-1.5784,-1.5784,-1.5784,-1.5784,-1.5784,-1.5784,-1.5784,-1.5784,-1.5784,-1.5784,-1.703,-1.8241,-1.9336,-1.9011,-1.8786,-1.8676,-1.8147,-1.8783,-2.0486,-2.0448,-2.0566,0.0,0.0,0.0,0.0,-0.5267,0.0,-0.578,0.0,-0.6195,-0.6671,0.0,-0.7729,0.0,0.0,0.0,0.0,0.0,0.0,-0.8858,-0.8884,-0.9005,-0.9231,-0.9031,-0.9005,-0.9244,-1.0194,-1.0683,-1.0363,-1.1334,-1.1733,-1.1253,-1.1323,-1.1402,-1.1476,-1.1442,-1.1623,-1.1953,-1.1953,-1.2064,-1.2358,-1.2358,-1.2665,-1.3267,-1.3267,-1.3561,-1.4082,-1.4082,-1.4082,-1.4135,-1.4767,-1.5008,-1.5062,-1.5605,-1.5784,-1.5784,-1.5784,-1.5784,-1.5784,-1.5784,-1.5784,-1.5784,-1.5784,-1.5784,-1.5784,-1.5784,-1.5784,-1.5784,-1.5784,-1.5784,-1.5784,-1.5784,-1.5784,-1.5784,-1.5784,-1.5784,-1.5784,-1.5784,-1.5784,-1.5784,-1.5784,-1.5784,-1.5832,-1.5974,-1.5927,-1.5784,-1.5784,-1.5784,-1.5784,-1.5784,-1.5784,-1.5784,-1.5784,-1.5784,-1.5784,-1.5784,-1.5784,-1.5784,-1.5784,-1.5784,-1.5784,-1.5784,-1.703,-1.8087,-1.8884,-1.8896,-1.8671,-1.8257,-1.8175,-1.8795,-2.0069,-1.9848,-2.0458,0.0,0.0,0.0,0.0,0.0,0.0,-0.537,0.0,-0.5562,0.0,0.0,0.0,0.0,0.0,0.0,0.0,-0.8513,0.0,0.0,0.0,-0.8858,-0.8951,0.0,0.0,-0.9178,-0.9646,-0.991,-0.9876,-1.0295,-1.0562,-1.0474,-1.0563,-1.0822,-1.1169,-1.1169,-1.1316,-1.161,-1.1784,-1.1966,-1.2051,-1.2225,-1.2518,-1.2985,-1.3133,-1.344,-1.3841,-1.4015,-1.4082,-1.4135,-1.4767,-1.5008,-1.5062,-1.5605,-1.5784,-1.5784,-1.5784,-1.5784,-1.5784,-1.5784,-1.5784,-1.5784,-1.5784,-1.5784,-1.5784,-1.5784,-1.5784,-1.5784,-1.5784,-1.5784,-1.5784,-1.5784,-1.5784,-1.5784,-1.5784,-1.5784,-1.5784,-1.5784,-1.5784,-1.5784,-1.5784,-1.5784,-1.5784,-1.5784,-1.5784,-1.5784,-1.5784,-1.5784,-1.5784,-1.5784,-1.5784,-1.5784,-1.5784,-1.5784,-1.5784,-1.5784,-1.5784,-1.5784,-1.5784,-1.5784,-1.5784,-1.5784,-1.6292,-1.6739,-1.7045,-1.7091,-1.6987,-1.681,-1.6666,-1.7296,-1.8677,-1.8758,-1.9125,-0.5446,0.0,0.0,0.0,0.0,0.0,0.0,0.0,0.0,0.0,0.0,0.0,0.0,0.0,0.0,0.0,0.0,-0.8566,0.0,-0.8804,0.0,0.0,0.0,0.0,0.0,-0.9098,-0.9178,-0.9432,-0.9512,-0.9659,-0.983,-1.0003,-1.0314,-1.0742,-1.0835,-1.1009,-1.1303,-1.1597,-1.1819,-1.1913,-1.2171,-1.2489,-1.2797,-1.3066,-1.3373,-1.3613,-1.3961,-1.4082,-1.4135,-1.4767,-1.5008,-1.5062,-1.5605,-1.5784,-1.5784,-1.5784,-1.5784,-1.5784,-1.5784,-1.5784,-1.5784,-1.5784,-1.5784,-1.5784,-1.5784,-1.5784,-1.5784,-1.5784,-1.5784,-1.5784,-1.5784,-1.5784,-1.5784,-1.5784,-1.5784,-1.5784,-1.5784,-1.5784,-1.5784,-1.5784,-1.5784,-1.5784,-1.5784,-1.5784,-1.5784,-1.5784,-1.5784,-1.5784,-1.5784,-1.5784,-1.5784,-1.5784,-1.5784,-1.5784,-1.5784,-1.5784,-1.5784,-1.5784,-1.5784,-1.5784,-1.5784,-1.5784,-1.5784,-1.5784,-1.5784,-1.5784,-1.5784,-1.5618,-1.6085,-1.7203,-1.7714,-1.8141,0.0,0.0,0.0,-0.5616,0.0,0.0,0.0,0.0,-0.5296,0.0,0.0,0.0,0.0,0.0,0.0,0.0,0.0,0.0,0.0,0.0,0.0,0.0,0.0,0.0,0.0,-0.8818,-0.8831,-0.8831,-0.9071,-0.9231,-0.9244,-0.9777,-1.0127,-1.011,-1.0452,-1.0747,-1.1009,-1.1289,-1.1583,-1.1913,-1.2171,-1.2489,-1.2797,-1.3066,-1.3373,-1.3613,-1.3961,-1.4082,-1.4135,-1.4767,-1.5008,-1.5062,-1.5605,-1.5784,-1.5784,-1.5784,-1.5784,-1.5784,-1.5784,-1.5784,-1.5784,-1.5784,-1.5784,-1.5784,-1.5784,-1.5784,-1.5784,-1.5784,-1.5784,-1.5784,-1.5784,-1.5784,-1.5784,-1.5784,-1.5784,-1.5784,-1.5784,-1.5784,-1.5784,-1.5784,-1.5784,-1.5784,-1.5784,-1.5784,-1.5784,-1.5784,-1.5784,-1.5784,-1.5784,-1.5784,-1.5784,-1.5784,-1.5784,-1.5784,-1.5784,-1.5784,-1.5784,-1.5784,-1.5784,-1.5784,-1.5784,-1.5784,-1.5784,-1.5784,-1.5784,-1.5784,-1.5784,-1.5771,-1.5818,-1.5866,-1.6808,-1.8037,0.0,0.0,-0.5786,-0.5739,0.0,0.0,0.0,0.0,0.0,0.0,0.0,0.0,0.0,0.0,0.0,0.0,0.0,0.0,0.0,0.0,0.0,0.0,0.0,0.0,0.0,0.0,-0.8804,-0.8804,-0.8898,-0.9004,-0.9204,-0.9619,-0.9913,-1.0083,-1.0595,-1.0921,-1.0995,-1.1476,-1.1806,-1.1913,-1.2409,-1.269,-1.2797,-1.3267,-1.3507,-1.3613,-1.3961,-1.4082,-1.4135,-1.4767,-1.5008,-1.5062,-1.5605,-1.5784,-1.5784,-1.5784,-1.5784,-1.5784,-1.5784,-1.5784,-1.5784,-1.5784,-1.5784,-1.5784,-1.5784,-1.5784,-1.5784,-1.5784,-1.5784,-1.5784,-1.5784,-1.5784,-1.5784,-1.5784,-1.5784,-1.5784,-1.5784,-1.5784,-1.5784,-1.5784,-1.5784,-1.5784,-1.5784,-1.5784,-1.5784,-1.5784,-1.5784,-1.5784,-1.5784,-1.5784,-1.5784,-1.5784,-1.5784,-1.5784,-1.5784,-1.5784,-1.5784,-1.5784,-1.5784,-1.5784,-1.5784,-1.5784,-1.5784,-1.5784,-1.5784,-1.5784,-1.5784,-1.5784,-1.5784,-1.5832,-1.6135,-1.6556,-0.5759,-0.5813,0.0,-0.5813,-0.6149,0.0,-0.5665,0.0,-0.6214,0.0,0.0,0.0,0.0,0.0,0.0,0.0,0.0,0.0,0.0,-0.8513,0.0,0.0,0.0,0.0,0.0,-0.8804,-0.8804,-0.8804,-0.8804,-0.8858,-0.9044,-0.9472,-0.9766,-0.9953,-1.0635,-1.0995,-1.0995,-1.1677,-1.2024,-1.2074,-1.2663,-1.2945,-1.2971,-1.3387,-1.36,-1.3613,-1.3961,-1.4148,-1.4282,-1.4807,-1.5075,-1.5209,-1.5645,-1.5784,-1.5784,-1.5784,-1.5784,-1.5784,-1.5784,-1.5784,-1.5784,-1.5784,-1.5784,-1.5784,-1.5784,-1.5784,-1.5784,-1.5784,-1.5784,-1.5784,-1.5784,-1.5784,-1.5784,-1.5784,-1.5784,-1.5784,-1.5784,-1.5784,-1.5784,-1.5784,-1.5784,-1.5784,-1.5784,-1.5784,-1.5784,-1.5784,-1.5784,-1.5784,-1.5784,-1.5784,-1.5784,-1.5784,-1.5784,-1.5784,-1.5784,-1.5784,-1.5784,-1.5784,-1.5784,-1.5784,-1.5784,-1.5784,-1.5878,-1.6139,-1.5891,-1.5925,-1.6139,-1.5878,-1.5784,-1.5784,-1.5784,-1.5784]},{"header":{"parameterUnit":"m.s-1","parameterCategory":1,"la1":30.6,"la2":29.2853,"lo1":-89.7004,"lo2":-87.6739,"dy":0.0162,"dx":0.0183,"nx":112,"ny":82,"refTime":"2023-10-11T00:00:00:Z","depth":0,"parameterNumber":3,"parameterNumberName":"V-component_of_WINDS"},"data":[0.0,0.0,0.0,0.0,0.0,0.0,0.0,0.0,0.0,0.0,0.0,0.0,0.0,0.0,0.0,0.0,0.0,0.0,0.0,0.0,0.0,0.0,0.0,0.0,0.0,0.0,0.0,0.0,0.0,0.0,0.0,0.0,0.0,0.0,0.0,0.0,0.0,0.0,0.0,0.0,0.0,0.0,0.0,0.0,0.0,0.0,0.0,0.0,0.0,0.0,0.0,0.0,0.0,0.0,0.0,0.0,0.0,0.0,0.0,0.0,0.0,0.0,0.0,0.0,0.0,0.0,0.0,0.0,0.0,0.0,0.0,0.0,0.0,0.0,0.0,0.0,0.0,0.0,0.0,0.0,0.0,0.0,0.0,0.0,0.0,0.0,0.0,0.0,0.0,0.0,-0.2005,-0.1488,-0.0292,0.0596,0.0873,0.1304,0.1732,0.218,0.0,0.0,0.0,0.0,0.0,0.0,0.0,0.0,0.0,0.0,0.0,0.0,0.0,0.0,0.0,0.0,0.0,0.0,0.0,0.0,0.0,0.0,0.0,0.0,0.0,0.0,0.0,0.0,0.0,0.0,0.0,0.0,0.0,0.0,0.0,0.0,0.0,0.0,0.0,0.0,0.0,0.0,0.0,0.0,0.0,0.0,0.0,0.0,0.0,0.0,0.0,0.0,0.0,0.0,0.0,0.0,0.0,0.0,0.0,0.0,0.0,0.0,0.0,0.0,0.0,0.0,0.0,0.0,0.0,0.0,0.0,0.0,0.0,0.0,0.0,0.0,0.0,0.0,0.0,0.0,0.0,0.0,0.0,0.0,0.0,0.0,0.0,0.0,0.0,0.0,0.0,0.0,0.0,0.0,0.0,0.0,0.0,0.0,0.0,0.0,0.0,0.0,0.0,0.0,-0.1705,-0.0398,0.0391,0.084,0.0898,0.1168,0.159,0.2166,0.0,0.0,0.0,0.0,0.0,0.0,0.0,0.0,0.0,0.0,0.0,0.0,0.0,0.0,0.0,0.0,0.0,0.0,0.0,0.0,0.0,0.0,0.0,0.0,0.0,0.0,0.0,0.0,0.0,0.0,0.0,0.0,0.0,0.0,0.0,0.0,0.0,0.0,0.0,0.0,0.0,0.0,0.0,0.0,0.0,0.0,0.0,0.0,0.0,0.0,0.0,0.0,0.0,0.0,0.0,0.0,0.0,0.0,0.0,0.0,0.0,0.0,0.0,0.0,0.0,0.0,0.0,0.0,0.0,0.0,0.0,0.0,0.0,0.0,0.0,0.0,0.0,0.0,0.0,0.0,0.0,0.0,0.0,0.0,0.0,0.0,0.0,0.0,0.0,0.0,0.0,0.0,0.0,0.0,0.0,0.0,0.0,0.0,0.0,0.0,0.0,0.0,0.0,-0.1898,-0.0914,-0.0085,0.0534,0.0903,0.0903,0.1247,0.1678,0.2166,0.2328,0.0,0.0,0.0,0.0,0.0,0.0,0.0,0.0,0.0,0.0,0.0,0.0,0.0,0.0,0.0,0.0,0.0,0.0,0.0,0.0,0.0,0.0,0.0,0.0,0.0,0.0,0.0,0.0,0.0,0.0,0.0,0.0,0.0,0.0,0.0,0.0,0.0,0.0,0.0,0.0,0.0,0.0,0.0,0.0,0.0,0.0,0.0,0.0,0.0,0.0,0.0,0.0,0.0,0.0,0.0,0.0,0.0,0.0,0.0,0.0,0.0,0.0,0.0,0.0,0.0,0.0,0.0,0.0,0.0,0.0,0.0,0.0,0.0,0.0,0.0,0.0,0.0,0.0,0.0,0.0,0.0,0.0,0.0,0.0,0.0,0.0,0.0,0.0,0.0,0.0,0.0,0.0,0.0,0.0,0.0,0.0,0.0,0.0,0.0,0.0,0.0,0.0,-0.0832,-0.0138,0.0179,0.068,0.0984,0.0955,0.1307,0.171,0.2129,0.2211,0.0,0.0,0.0,0.0,0.0,0.0,0.0,0.0,0.0,0.0,0.0,0.0,0.0,0.0,0.0,0.0,0.0,0.0,0.0,0.0,0.0,0.0,0.0,0.0,0.0,0.0,0.0,0.0,0.0,0.0,0.0,0.0,0.0,0.0,0.0,0.0,0.0,0.0,0.0,0.0,0.0,0.0,0.0,0.0,0.0,0.0,0.0,0.0,0.0,0.0,0.0,0.0,0.0,0.0,0.0,0.0,0.0,0.0,0.0,0.0,0.0,0.0,0.0,0.0,0.0,0.0,0.0,0.0,0.0,0.0,0.0,0.0,0.0,0.0,0.0,0.0,0.0,0.0,0.0,0.0,0.0,0.0,0.0,0.0,0.0,0.0,0.0,0.0,0.0,0.0,0.0,0.0,0.0,0.0,0.0,0.0,0.0,0.0,0.0,0.0,0.0,0.0,-0.0384,0.0333,0.0791,0.1096,0.1225,0.1094,0.1233,0.1523,0.1992,0.1907,0.0,0.0,0.0,0.0,0.0,0.0,0.0,0.0,0.0,0.0,0.0,0.0,0.0,0.0,0.0,0.0,0.0,0.0,0.0,0.0,0.0,0.0,0.0,0.0,0.0,0.0,0.0,0.0,0.0,0.0,0.0,0.0,0.0,0.0,0.0,0.0,0.0,0.0,0.0,0.0,0.0,0.0,0.0,0.0,0.0,0.0,0.0,0.0,0.0,0.0,0.0,0.0,0.0,0.0,0.0,0.0,0.0,0.0,0.0,0.0,0.0,0.0,0.0,0.0,0.0,0.0,0.0,0.0,0.0,0.0,0.0,0.0,0.0,0.0,0.0,0.0,0.0,0.0,0.0,0.0,0.0,0.0,0.0,0.0,0.0,0.0,0.0,0.0,0.0,0.0,0.0,0.0,0.0,0.0,0.0,0.0,0.0,0.0,0.0,0.0,0.0,0.0,-0.0081,0.0706,0.0881,0.1141,0.1282,0.1227,0.1268,0.1465,0.1851,0.0,0.0,0.0,0.0,0.0,0.0,0.0,0.0,0.0,0.0,0.0,0.0,0.0,0.0,0.0,0.0,0.0,0.0,0.0,0.0,0.0,0.0,0.0,0.0,0.0,0.0,0.0,0.0,0.0,0.0,0.0,0.0,0.0,0.0,0.0,0.0,0.0,0.0,0.0,0.0,0.0,0.0,0.0,0.0,0.0,0.0,0.0,0.0,0.0,0.0,0.0,0.0,0.0,0.0,0.0,0.0,0.0,0.0,0.0,0.0,0.0,0.0,0.0,0.0,0.0,0.0,0.0,0.0,0.0,0.0,0.0,0.0,0.0,0.0,0.0,0.0,0.0,0.0,0.0,0.0,0.0,0.0,0.0,0.0,0.0,0.0,0.0,0.0,0.0,0.0,0.0,0.0,0.0,0.0,0.0,0.0,0.0,0.0,0.0,0.0,0.0,0.0,-0.0774,0.0316,0.1072,0.1174,0.1352,0.1435,0.1402,0.1338,0.1447,0.1775,0.0,0.0,0.0,0.0,0.0,0.0,0.0,0.0,0.0,0.0,0.0,0.0,0.0,0.0,0.0,0.0,0.0,0.0,0.0,0.0,0.0,0.0,0.0,0.0,0.0,0.0,0.0,0.0,0.0,0.0,0.0,0.0,0.0,0.0,0.0,0.0,0.0,0.0,0.0,0.0,0.0,0.0,0.0,0.0,0.0,0.0,0.0,0.0,0.0,0.0,0.0,0.0,0.0,0.0,0.0,0.0,0.0,0.0,0.0,0.0,0.0,0.0,0.0,0.0,0.0,0.0,0.0,0.0,0.0,0.0,0.0,0.0,0.0,0.0,0.0,0.0,0.0,0.0,0.0,0.0,0.0,0.0,0.0,0.0,0.0,0.0,0.0,0.0,0.0,0.0,0.0,0.0,0.0,0.0,0.0,0.0,0.0,0.0,0.0,0.0,0.0,0.0,0.0123,0.0847,0.143,0.1764,0.1806,0.1744,0.1617,0.1422,0.1447,0.0,0.0,0.0,0.0,0.0,0.0,0.0,0.0,0.0,0.0,0.0,0.0,0.0,0.0,0.0,0.0,0.0,0.0,0.0,0.0,0.0,0.0,0.0,0.0,0.0,0.0,0.0,0.0,0.0,0.0,0.0,0.0,0.0,0.0,0.0,0.0,0.0,0.0,0.0,0.0,0.0,0.0,0.0,0.0,0.0,0.0,0.0,0.0,0.0,0.0,0.0,0.0,0.0,0.0,0.0,0.0,0.0,0.0,0.0,0.0,0.0,0.0,0.0,0.0,0.0,0.0,0.0,0.0,0.0,0.0,0.0,0.0,0.0,0.0,0.0,0.0,0.0,0.0,0.0,0.0,0.0,0.0,0.0,0.0,0.0,0.0,0.0,0.0,0.0,0.0,0.0,0.0,0.0,0.0,0.0,0.0,0.0,0.0,0.0,0.0,0.0,0.0,0.0,0.0221,0.1044,0.1693,0.1788,0.1806,0.1862,0.201,0.1707,0.1858,0.2665,0.0,0.0,0.0,0.0,0.0,0.0,0.0,0.0,0.0,0.0,0.0,0.0,0.0,0.0,0.0,0.0,0.0,0.0,0.0,0.0,0.0,0.0,0.0,0.0,0.0,0.0,0.0,0.0,0.0,0.0,0.0,0.0,0.0,0.0,0.0,0.0,0.0,0.0,0.0,0.0,0.0,0.0,0.0,0.0,0.0,0.0,0.0,0.0,0.0,0.0,0.0,0.0,0.0,0.0,0.0,0.0,0.0,0.0,0.0,0.0,0.0,0.0,0.0,0.0,0.0,0.0,0.0,0.0,0.0,0.0,0.0,0.0,0.0,0.0,0.0,0.0,0.0,0.0,0.0,0.0,0.0,0.0,0.0,0.0,0.0,0.0,0.0,0.0,0.0,0.0,0.0,0.0,0.0,0.0,0.0,0.0,0.0,0.0,0.0,0.0,0.0,0.0,0.0927,0.1651,0.2161,0.2161,0.2161,0.2226,0.2378,0.2006,0.2061,0.2775,0.0,0.0,0.0,0.0,0.0,0.0,0.0,0.0,0.0,0.0,0.0,0.0,0.0,0.0,0.0,0.0,0.0,0.0,0.0,0.0,0.0,0.0,0.0,0.0,0.0,0.0,0.0,0.0,0.0,0.0,0.0,0.0,0.0,0.0,0.0,0.0,0.0,0.0,0.0,0.0,0.0,0.0,0.0,0.0,0.0,0.0,0.0,0.0,0.0,0.0,0.0,0.0,0.0,0.0,0.0,0.0,0.0,0.0,0.0,0.0,0.0,0.0,0.0,0.0,0.0,0.0,0.0,0.0,0.0,0.0,0.0,0.0,0.0,0.0,0.0,0.0,0.0,0.0,0.0,0.0,0.0,0.0,0.0,0.0,0.0,0.0,0.0,0.0,0.0,0.0,0.0,0.0,0.0,0.0,0.0,0.0,0.0,0.0,0.0,0.0,0.0,0.0,0.1951,0.2407,0.2702,0.2702,0.2702,0.2713,0.2735,0.2299,0.2172,0.2536,0.0,0.0,0.0,0.0,0.0,0.0,0.0,0.0,0.0,0.0,0.0,0.0,0.0,0.0,0.0,0.0,0.0,0.0,0.0,0.0,0.0,0.0,0.0,0.0,0.0,0.0,0.0,0.0,0.0,0.0,0.0,0.0,0.0,0.0,0.0,0.0,0.0,0.0,0.0,0.0,0.0,0.0,0.0,0.0,0.0,0.0,0.0,0.0,0.0,0.0,0.0,0.0,0.0,0.0,0.0,0.0,0.0,0.0,0.0,0.0,0.7935,0.795,0.0,0.0,0.0,0.0,0.0,0.0,0.0,0.0,0.0,0.0,0.0,0.0,0.0,0.0,0.0,0.0,0.0,0.0,0.0,0.0,0.0,0.0,0.0,0.0,0.0,0.0,0.0,0.0,0.0,0.0,0.0,0.0,0.0,0.0,0.0,0.0,0.0,0.0,0.0,0.0,0.2033,0.2407,0.2702,0.2702,0.2702,0.2789,0.2993,0.2492,0.2611,0.3666,0.26,0.0,0.0,0.0,0.0,0.0,0.0,0.0,0.0,0.0,0.0,0.0,0.0,0.0,0.0,0.0,0.0,0.0,0.0,0.0,0.0,0.0,0.0,0.0,0.0,0.0,0.0,0.0,0.0,0.0,0.0,0.0,0.0,0.0,0.0,0.0,0.0,0.0,0.0,0.0,0.0,0.0,0.0,0.0,0.0,0.0,0.0,0.0,0.0,0.0,0.0,0.0,0.0,0.0,0.0,0.0,0.0,0.0,0.0,0.0,0.8945,0.848,0.0,0.0,0.0,0.0,0.0,0.0,0.0,0.0,0.0,0.0,0.0,0.0,0.0,0.0,0.0,0.0,0.0,0.0,0.0,0.0,0.0,0.0,0.0,0.0,0.0,0.0,0.0,0.0,0.0,0.0,0.0,0.0,0.0,0.0,0.0,0.0,0.0,0.0,0.0,0.0,0.3067,0.3078,0.3079,0.3079,0.3079,0.3143,0.327,0.2888,0.2844,0.3345,0.29,0.0,0.0,0.0,0.0,0.0,0.0,0.0,0.0,0.0,0.0,0.0,0.0,0.0,0.0,0.0,0.0,0.0,0.0,0.0,0.0,0.0,0.0,0.0,0.0,0.0,0.0,0.0,0.0,0.0,0.0,0.0,0.0,0.0,0.0,0.0,0.0,0.0,0.0,0.0,0.0,0.0,0.0,0.0,0.0,0.0,0.0,0.0,0.0,0.0,0.0,0.0,0.0,0.0,1.1956,1.1956,1.1841,1.1841,1.1389,1.0645,1.0567,0.957,0.8094,0.8931,0.0,0.0,0.0,0.0,0.0,0.0,0.0,0.0,0.0,0.0,0.0,0.0,0.0,0.0,0.0,0.0,0.0,0.0,0.0,0.0,0.0,0.0,0.7016,0.6671,0.7107,0.7505,0.7168,0.0,0.0,0.0,0.0,0.0,0.0,0.0,0.0,0.0,0.0,0.0,0.4287,0.3954,0.3691,0.3691,0.3575,0.3495,0.3495,0.325,0.297,0.2667,0.3048,0.3037,0.0,0.0,0.0,0.0,0.0,0.0,0.0,0.0,0.0,0.0,0.0,0.0,0.0,0.0,0.0,0.0,0.0,0.0,0.0,0.0,0.0,0.0,0.0,0.0,0.0,0.0,0.0,0.0,0.0,0.0,0.0,0.0,1.3429,1.4125,0.0,0.0,0.0,0.0,0.0,0.0,0.0,0.0,0.0,0.0,0.0,0.0,0.0,1.3292,1.3242,1.3588,1.3418,1.2739,1.3437,1.3393,1.2739,1.2739,1.2441,1.1931,1.1584,0.0,0.9281,0.8328,0.0,0.0,0.0,0.0,0.0,0.0,0.0,0.0,0.0,0.0,0.0,0.0,0.0,0.0,0.0,0.0,0.0,0.0,0.0,0.0,0.0,0.0,0.7086,0.7038,0.7108,0.7168,0.7109,0.7969,0.8639,0.8224,0.7903,0.7514,0.0,0.0,0.0,0.0,0.0,0.0,0.4749,0.4569,0.4457,0.4457,0.3882,0.3495,0.3495,0.325,0.3035,0.2876,0.2609,0.2726,0.33,0.2642,0.0,0.0,0.0,0.0,0.0,0.0,0.0,0.0,0.0,0.0,0.0,0.0,0.0,0.0,0.0,0.0,0.0,0.0,0.0,0.0,0.0,0.0,0.0,0.0,0.0,0.0,0.0,0.0,0.0,1.1881,1.3426,1.3472,1.4628,1.5108,0.0,0.0,0.0,0.0,0.0,0.0,0.0,0.0,0.0,1.4297,1.4492,1.457,1.457,1.4738,1.4551,1.3972,1.4316,1.418,1.3574,1.334,1.3125,1.2905,1.2524,1.1836,1.1014,1.0215,0.9785,0.9572,0.0,0.0,0.0,0.0,0.9065,0.9082,0.9141,0.8878,0.8685,0.981,0.0,0.0,0.0,0.0,0.0,0.0,0.0,0.8931,0.8121,0.8197,0.8401,0.7939,0.7988,0.8105,0.7871,0.8277,0.8587,0.8354,0.8378,0.8285,0.779,0.7246,0.0,0.0,0.0,0.5724,0.5755,0.5402,0.5172,0.5172,0.487,0.4522,0.4152,0.4156,0.3785,0.2895,0.2609,0.2519,0.2649,0.1454,0.1584,0.0,0.0,0.0,0.0,0.0,0.0,0.0,0.0,0.0,0.0,0.0,0.0,0.0,0.0,0.0,0.0,0.0,0.0,0.0,0.0,0.0,0.0,0.0,0.0,0.0,0.0,0.0,0.0,1.2058,1.3341,1.2893,1.4535,1.5165,0.0,0.0,0.0,0.0,0.0,0.0,1.5234,1.5293,1.5488,1.5898,1.5801,1.5801,1.5918,1.5801,1.5527,1.5146,1.5146,1.4824,1.427,1.3984,1.3769,1.3627,1.3223,1.2852,1.2476,1.1741,1.0898,1.0118,1.0254,1.0215,1.0079,0.9864,0.9786,0.9806,0.9922,0.9747,0.9575,1.0344,1.0478,1.03,1.0078,0.0,0.0,0.0,0.0,1.0196,0.9041,0.9242,0.9591,0.8867,0.8945,0.9043,0.8649,0.8551,0.8493,0.8277,0.8457,0.8562,0.8237,0.7935,0.0,0.7447,0.0,0.6495,0.6635,0.6206,0.5882,0.5882,0.5719,0.5398,0.4893,0.5042,0.4611,0.3319,0.2883,0.2379,0.1744,0.0958,0.0798,0.1326,0.0,0.0,0.0,0.0,0.0,0.0,0.0,0.0,0.0,0.0,0.0,0.0,0.0,0.0,0.0,0.0,0.0,0.0,0.0,0.0,0.0,0.0,0.0,0.0,0.0,0.0,0.0,0.0,0.0,1.2466,1.4939,0.0,0.0,0.0,0.0,1.5331,1.5733,1.6163,1.657,1.6609,1.6804,1.7266,1.6875,1.6855,1.7318,1.6875,1.6445,1.6026,1.6026,1.5596,1.4746,1.4727,1.4492,1.4055,1.3627,1.3457,1.3301,1.1641,1.1173,1.143,1.0606,1.0782,1.141,1.0567,1.0273,1.0156,0.9336,0.906,0.9278,1.0704,1.1682,1.2173,1.1144,1.1134,0.0,0.0,1.0818,1.0781,1.0312,1.0234,1.0137,0.965,0.9554,0.9474,0.9062,0.8965,0.873,0.788,0.7744,0.7715,0.7569,0.0,0.7377,0.7,0.7212,0.7346,0.7095,0.6812,0.6651,0.6651,0.6017,0.5587,0.5557,0.557,0.5245,0.4466,0.3451,0.2304,0.1009,0.1666,0.144,0.0108,0.1309,0.0,0.0,0.0,0.0,0.0,0.0,0.0,0.0,0.0,0.0,0.0,0.0,0.0,0.0,0.0,0.0,0.0,0.0,0.0,0.0,0.0,0.0,0.0,0.0,0.0,0.0,0.0,0.0,1.4301,1.6,0.0,1.57,1.6377,1.6934,1.7051,1.7227,1.7916,1.9281,1.9068,1.9109,1.9582,1.9129,1.865,1.8184,1.7773,1.7174,1.6484,1.6484,1.6035,1.5176,1.4902,1.4707,1.4531,1.4075,1.3724,1.3457,1.2832,1.2344,1.1953,1.1638,1.1543,1.1567,1.1253,1.1155,1.1076,1.0782,1.0488,1.0273,1.0524,1.0823,1.1005,1.0626,1.0801,1.1113,1.0957,1.1113,1.131,1.1154,1.1155,1.1095,1.0939,1.0664,1.0332,0.9922,0.9609,0.9221,0.8636,0.834,0.8122,0.8086,0.7832,0.7676,0.7842,0.772,0.7606,0.7499,0.7406,0.7339,0.7339,0.7107,0.6776,0.6339,0.5948,0.5303,0.4299,0.396,0.3251,0.2056,0.1207,0.0538,0.001,0.1918,0.3208,0.0,0.0,0.0,0.0,0.0,0.0,0.0,0.0,0.0,0.0,0.0,0.0,0.0,0.0,0.0,0.0,0.0,0.0,0.0,0.0,0.0,0.0,0.0,0.0,0.0,0.0,1.5586,1.6013,1.7454,1.8134,1.7422,1.8127,1.8696,1.8883,1.9342,2.0247,2.165,2.1589,2.166,2.1984,2.1062,2.0135,1.9344,1.8868,1.8075,1.6953,1.7345,1.6921,1.5767,1.5749,1.5545,1.5162,1.4834,1.4341,1.3685,1.3574,1.3086,1.2441,1.2441,1.2266,1.2015,1.1858,1.18,1.18,1.18,1.1526,1.1113,1.0977,1.0937,1.0937,1.0937,1.123,1.1582,1.1582,1.18,1.1995,1.1839,1.18,1.178,1.1645,1.1369,1.1055,1.0802,1.0254,0.9747,0.9492,0.8984,0.8551,0.8414,0.8145,0.8047,0.8356,0.8008,0.7744,0.7915,0.7798,0.7705,0.7705,0.7705,0.7511,0.7083,0.6816,0.623,0.5182,0.5204,0.4714,0.3506,0.1912,0.1296,0.1718,0.3242,0.4357,0.5012,0.0,0.0,0.0,0.0,0.0,0.0,0.0,0.0,0.0,0.0,0.0,0.0,0.0,0.0,0.0,0.0,0.0,0.0,0.0,0.0,0.0,0.0,0.0,1.4872,1.6378,1.7441,1.7494,1.9251,1.9987,1.8805,2.0151,2.0988,2.0741,2.2115,2.3157,2.3541,2.4051,2.4356,2.4296,2.2475,2.1259,2.0836,2.0225,1.9083,1.7494,1.8536,1.8211,1.6588,1.7268,1.7005,1.5976,1.5954,1.5273,1.4174,1.3763,1.3376,1.2983,1.2939,1.292,1.288,1.2449,1.2269,1.2269,1.2246,1.1976,1.1746,1.2109,1.2223,1.2223,1.2223,1.2539,1.2915,1.2915,1.2915,1.2817,1.234,1.2223,1.2125,1.1721,1.1626,1.1626,1.1626,1.0939,1.0332,1.0351,0.9685,0.8943,0.8493,0.8414,0.8395,0.8414,0.8027,0.0,0.8336,0.8012,0.7725,0.7725,0.7725,0.7725,0.7725,0.8105,0.7984,0.7129,0.707,0.6475,0.5169,0.3956,0.3935,0.5231,0.5273,0.5872,0.7148,0.0,0.0,0.0,0.0,0.0,0.0,0.0,0.0,0.0,0.0,0.0,0.0,0.0,0.0,0.0,0.0,0.0,0.0,0.0,0.0,0.0,0.0,1.8523,1.6454,1.7676,1.8887,1.918,2.0563,2.1352,2.0996,2.241,2.3302,2.3225,2.4298,2.5189,2.5647,2.5518,2.5198,2.481,2.3595,2.2525,2.1667,2.0853,1.9822,1.8615,1.8707,1.8473,1.7937,1.7507,1.7478,1.7773,1.7313,1.6786,1.6194,1.6064,1.5789,1.5309,1.4062,1.3552,1.3579,1.3898,1.3995,1.3971,1.3507,1.3284,1.3155,1.2823,1.2695,1.2695,1.2695,1.2817,1.2915,1.2915,1.2915,1.2876,1.2734,1.2695,1.2676,1.2563,1.2285,1.2051,1.2051,1.1623,1.138,1.1799,1.1406,1.0491,0.9072,0.859,0.8493,0.8789,0.8477,0.0,0.8375,0.8535,0.8535,0.8238,0.8477,0.8535,0.8238,0.7749,0.7207,0.6641,0.632,0.6045,0.5752,0.5823,0.6833,0.884,0.8868,0.9282,0.0,0.0,0.0,0.0,0.0,0.0,0.0,0.0,0.0,0.0,0.0,0.0,0.0,0.0,0.0,0.0,0.0,0.0,0.0,0.0,0.0,0.0,1.955,2.1095,1.98,2.0701,2.1541,2.1683,2.2815,2.3617,2.3805,2.4635,2.5135,2.5135,2.6156,2.679,2.6842,2.6806,2.6432,2.5641,2.4448,2.3307,2.2294,2.1697,2.0819,1.9739,2.0022,1.9931,1.9529,1.9177,1.8977,1.894,1.8585,1.7707,1.6523,1.6523,1.6286,1.576,0.0,0.0,0.0,0.0,1.4537,1.4283,1.3909,1.3647,1.3382,1.3017,1.2915,1.2915,1.2915,1.2915,1.2935,1.3086,1.3052,1.2954,1.3105,1.3032,1.2915,1.2915,1.2695,1.25,1.25,1.2335,1.226,1.2348,1.2383,0.0,1.0692,0.9785,0.9322,0.9548,0.9057,0.8727,0.8887,0.8965,0.8906,0.8672,0.8867,0.899,0.8961,0.845,0.0,0.0,0.0,0.7648,0.7505,0.7845,0.0,0.0,0.0,0.9634,0.9867,1.0095,0.0,0.0,0.9434,1.0555,0.0,0.0,0.0,0.0,0.0,0.0,0.0,0.0,0.0,0.0,0.0,0.0,0.0,0.0,0.0,0.0,2.1757,2.3086,2.3858,2.4497,2.4783,2.442,2.5264,2.6031,2.6479,2.6607,2.6689,2.6689,2.7636,2.7972,2.7406,2.7792,0.0,0.0,0.0,2.3795,2.2879,2.2655,2.1963,2.0787,2.1801,2.1879,2.1135,2.1342,2.0874,1.9909,1.9789,1.8487,1.6434,1.6391,1.6014,1.5464,1.4989,1.514,1.5604,1.5057,1.4484,1.3971,1.3963,0.0,0.0,1.3052,1.2983,1.2939,1.3125,1.3096,1.3071,1.3559,1.3376,1.3105,1.3477,1.3262,1.2974,1.2974,1.2935,1.2915,1.2915,1.2986,1.2956,1.2563,1.3021,1.3331,1.2933,1.1647,1.0695,1.0719,0.9928,0.9452,0.9812,0.9534,0.9276,0.9168,0.0,0.0,0.9651,0.9624,0.9594,0.9626,0.9998,1.0075,0.9704,0.963,0.941,0.8984,0.8727,0.8478,0.8169,0.8896,0.8519,0.7264,1.0163,1.1516,0.0,0.0,0.0,0.0,0.0,0.0,0.0,0.0,0.0,0.0,0.0,0.0,0.0,0.0,0.0,2.1815,2.4058,2.5634,2.5428,2.6548,2.6935,2.5654,2.5998,2.6412,2.6461,2.7279,2.7804,2.7804,2.8354,2.8524,2.7977,2.7637,2.6917,2.5812,2.507,2.44,2.3729,2.3226,2.2639,2.1977,2.1989,0.0,2.2035,2.1389,2.135,2.1745,2.0877,2.0219,1.9731,1.9265,1.8444,1.7436,1.6322,1.6244,1.6711,1.6007,1.5443,1.4989,1.4902,1.432,1.3686,1.4014,1.3569,1.3149,1.4569,1.4257,0.0,1.4574,1.4397,1.388,1.3958,1.3711,1.3379,1.3379,1.315,1.2915,1.2915,1.2933,1.3189,1.4037,1.3983,1.4081,1.4921,1.3564,1.246,1.2768,1.1979,1.1372,1.1443,1.134,1.0963,1.0207,1.0409,1.0344,0.9675,0.9608,0.9471,0.9159,0.9219,0.954,1.0136,0.9806,0.973,1.0002,0.9962,0.9901,0.9841,0.9993,0.9914,0.9619,0.9728,0.9783,0.0,0.0,0.0,0.0,0.0,0.0,0.0,0.0,0.0,0.0,0.0,1.9014,0.0,0.0,2.3413,2.43,2.6029,2.7221,2.6976,2.7618,2.7816,2.7056,2.7387,2.7688,2.7688,2.8198,2.8411,2.8142,2.835,2.8273,2.772,2.7444,2.6766,2.5636,2.5335,2.4958,2.4431,2.3853,2.3427,2.315,2.2702,2.2554,2.2694,2.2253,2.2135,2.2272,2.1719,2.1123,2.052,2.0223,1.9424,1.836,1.8043,1.7604,1.7193,1.712,1.676,1.6306,1.6212,1.5714,1.5118,1.5334,1.507,1.4796,1.5702,1.5471,1.5101,1.5886,1.54,1.4698,1.4941,1.4387,1.3802,1.3802,1.3652,1.3457,1.3242,1.3658,1.4134,1.4233,1.4766,1.5305,1.5605,1.5104,1.4441,1.3856,1.2884,1.2257,1.2257,1.1975,1.1619,1.114,1.1282,1.1325,1.1064,1.0847,1.0614,1.04,0.9918,0.9935,1.062,1.0191,1.0059,1.0293,1.0293,1.0293,1.0293,1.0293,1.0293,1.0293,1.0175,0.999,0.0,0.0,0.0,0.0,0.0,0.0,0.0,0.0,1.9044,1.8941,2.0042,2.137,2.25,2.4137,2.5611,2.665,2.7444,2.8021,2.8247,2.7896,2.7729,2.7927,2.842,2.8737,2.8737,2.8737,2.8574,2.8147,2.7996,2.7745,2.7293,2.7193,2.6666,2.5636,2.5586,2.5335,2.48,2.4381,2.4155,2.4155,2.3547,2.3271,2.3271,2.3145,2.2869,2.2443,2.2372,2.1654,2.0595,2.0452,1.9949,1.9287,1.961,1.9066,1.809,1.8069,1.7726,1.726,1.7473,1.7031,1.6471,1.6754,1.6635,1.6473,1.679,1.6713,1.6624,1.7179,1.6523,1.5754,1.6138,1.5448,1.4666,1.4666,1.4606,1.4419,1.3924,1.4587,1.5074,1.4393,1.5337,1.6188,1.6011,1.6268,1.6047,1.4764,1.3792,1.3209,1.3209,1.2731,1.2353,1.226,1.226,1.2371,1.2647,1.2224,1.2002,1.211,1.1143,1.0794,1.1297,1.0757,1.0468,1.0567,1.0469,1.0469,1.0547,1.0547,1.0547,1.0567,1.0879,1.0801,1.8601,1.89,1.9157,2.0088,1.971,1.9727,0.0,0.0,2.2496,2.2209,2.4092,2.5494,2.4661,2.5904,2.7218,2.7821,2.762,2.772,2.8662,2.7118,2.6255,2.7276,2.7848,2.8197,2.8197,2.8197,2.8172,2.8122,2.7645,2.7344,2.7293,2.6851,2.6298,2.5611,2.5586,2.5335,2.48,2.4725,2.47,2.47,2.418,2.3904,2.3879,2.3346,2.307,2.297,2.2493,2.1938,2.1353,2.0653,2.0718,2.1126,2.0556,2.06,2.0772,1.8503,1.7421,1.7172,1.8056,1.7512,1.6612,1.7979,1.7519,1.6692,1.8239,1.7882,1.7149,1.8213,1.7932,1.734,1.7384,1.7024,1.6669,1.6669,1.641,1.5924,1.5173,1.5126,1.5335,1.5845,1.5639,1.5822,1.6979,1.6804,1.6429,1.6261,1.572,1.5351,1.5351,1.4878,1.4376,1.3879,1.384,1.3705,1.3348,1.2819,1.2712,1.3182,1.2217,1.1871,1.2413,1.1458,1.1112,1.1528,1.1085,1.1035,1.1449,1.1449,1.1449,1.1469,1.1508,1.1271,1.9171,1.9712,0.0,0.0,2.1769,2.2605,2.3564,2.4176,2.4636,2.4855,2.6009,2.6826,2.6339,2.7067,2.7745,0.0,2.7444,2.7344,2.7469,2.6389,2.5536,2.5385,2.5862,2.644,2.7128,2.7444,2.7494,2.7168,2.6977,2.6826,2.6826,2.6625,2.6373,2.6147,2.6122,2.6021,2.5787,2.5435,2.5285,2.5259,2.4732,2.4481,2.4481,2.4199,2.3898,2.3602,2.302,2.2443,2.1967,2.1976,2.1787,2.149,2.1506,2.1489,2.1362,2.0256,1.9772,1.9679,2.0085,1.9875,1.9473,2.0128,1.968,1.904,1.9782,1.9596,1.925,1.9736,1.9542,1.9221,1.9221,1.857,1.7968,1.8239,1.7973,1.7441,1.6855,1.6979,1.7162,1.6892,1.693,1.717,1.7759,1.7652,1.74,1.7074,1.6271,1.5693,1.5693,1.5236,1.4806,1.4587,1.4568,1.4489,1.4273,1.3781,1.3576,1.3786,1.3117,1.2845,1.3068,1.2627,1.2507,1.2685,1.2481,1.2444,1.2658,1.2658,1.2468,1.2127,1.2372,1.2172,1.9409,0.0,0.0,2.1995,2.3527,2.4782,2.4707,2.5285,2.5988,2.66,2.7027,2.7243,2.7128,2.7494,2.7695,2.7178,2.7193,2.7178,2.6776,2.5812,2.4933,2.4305,2.4274,2.4732,2.572,2.6449,2.6751,2.6524,2.6625,2.6725,2.6725,2.6876,2.6876,2.6725,2.6725,2.665,2.6499,2.6072,2.5837,2.5837,2.5285,2.5034,2.5034,2.485,2.4575,2.4205,2.3747,2.3246,2.2799,2.317,2.2799,2.197,2.2368,2.2297,2.1945,2.1945,2.1744,2.1518,2.1669,2.1619,2.1518,2.1669,2.137,2.0918,2.0918,2.0918,2.0918,2.0918,2.0835,2.0681,2.0681,2.0022,1.9435,1.9808,1.9622,1.9192,1.8631,1.8748,1.8741,1.808,1.8044,1.8164,1.8382,1.8304,1.8078,1.7677,1.6773,1.6095,1.5944,1.5567,1.5336,1.5336,1.5336,1.5336,1.5336,1.4843,1.4599,1.4764,1.4156,1.3883,1.4044,1.3761,1.3659,1.3776,1.3652,1.3657,1.3751,1.3751,1.3538,1.3108,1.3408,1.3308,1.9158,0.0,2.2523,2.3653,2.4381,2.5109,2.6172,2.6449,2.6625,2.7178,2.7268,2.7153,2.6625,2.6977,2.7153,2.66,2.6977,2.7268,2.7304,2.541,2.423,2.47,2.3822,2.3396,0.0,2.5034,2.5896,2.6449,2.6977,2.7304,2.7304,2.777,2.7821,2.7268,2.7304,2.7027,2.6499,2.6474,2.6474,2.6474,2.5837,2.5561,2.5561,2.5059,2.4775,2.475,2.475,2.4424,2.3954,2.3979,2.3627,2.3045,2.307,2.307,2.3045,2.3045,2.2368,2.1568,2.2096,2.1945,2.1568,2.2121,2.192,2.1496,2.1496,2.1496,2.1496,2.1496,2.1468,2.1465,2.1465,2.144,2.1412,2.1412,2.1412,2.1219,2.0461,1.9912,1.9555,1.9559,1.8646,1.8133,1.8834,1.8531,1.8204,1.8179,1.7702,1.7146,1.655,1.645,1.645,1.645,1.645,1.645,1.645,1.5948,1.5873,1.6378,1.5447,1.5096,1.5602,1.4639,1.4288,1.4751,1.4304,1.4271,1.4653,1.4653,1.4653,1.463,1.4653,1.463,2.1951,0.0,2.5549,2.681,2.7527,2.8118,2.8898,2.8579,2.7846,2.6952,2.6474,2.5762,2.4481,2.4732,2.5034,2.4858,2.6429,2.7351,2.6316,2.6711,2.6459,2.4676,2.434,0.0,0.0,0.0,0.0,2.6449,2.7002,2.7444,2.7821,2.7996,2.8021,2.7846,2.7469,2.7369,2.7544,2.6851,2.6675,2.7027,2.7002,2.6985,2.6992,2.703,2.6733,2.6161,2.5829,2.5223,2.4506,2.4155,2.3879,2.3678,2.3246,2.3095,2.3095,2.3095,2.2869,2.2569,2.2769,2.2719,2.2569,2.2769,2.2468,2.202,2.202,2.202,2.202,2.202,2.2297,2.2543,2.2543,2.2322,2.2121,2.2498,2.2297,2.1963,2.1704,2.1255,2.0761,2.039,1.9696,1.9229,1.9484,1.9384,1.9032,1.8304,1.7727,1.7174,1.6575,1.65,1.65,1.65,1.65,1.65,1.65,1.6325,1.63,1.6475,1.617,1.6045,1.622,1.5877,1.5768,1.5923,1.5773,1.5763,1.5888,1.5888,1.5688,1.531,1.531,1.5085,2.4335,2.6094,2.7635,2.9077,2.9712,2.9843,2.953,2.862,2.7401,2.5627,2.4657,2.3753,2.2472,2.2723,2.3174,2.3408,2.5341,2.6796,2.6492,2.7476,2.7759,2.6519,2.6219,2.6102,0.0,0.0,0.0,2.682,2.7268,2.7821,2.8373,2.8599,2.8624,2.8398,2.8047,2.7946,2.8097,2.7394,2.743,2.8113,2.8384,2.8523,2.8529,2.851,2.8016,2.7155,2.6818,2.6077,2.5059,2.4506,2.418,2.3929,2.3321,2.3095,2.3095,2.3095,2.3246,2.3371,2.317,2.3246,2.3371,2.317,2.2995,2.2874,2.2644,2.2569,2.2569,2.2569,2.2819,2.3095,2.3095,2.2844,2.2669,2.302,2.2844,2.2569,2.2569,2.202,2.1421,2.1043,2.0338,1.9811,1.9811,1.9811,1.951,1.8631,1.8028,1.74,1.66,1.65,1.65,1.65,1.65,1.65,1.65,1.65,1.65,1.65,1.65,1.65,1.65,1.65,1.65,1.65,1.65,1.65,1.65,1.65,1.6303,1.5908,1.5908,1.571,2.619,2.7615,2.9013,3.0543,3.0893,3.03,2.8219,2.6855,2.5419,2.3381,2.2124,2.1197,2.0669,2.1094,2.1721,2.2378,2.4066,2.5928,2.7889,2.785,2.8249,0.0,0.0,0.0,0.0,0.0,0.0,2.7662,0.0,2.8447,2.8963,2.9554,2.9643,2.9126,2.9038,2.8823,2.8344,2.8293,2.8713,2.9591,2.9892,3.0049,3.0049,2.9406,2.8652,2.7835,2.7835,2.7058,2.5719,2.5189,2.4659,2.4154,2.3513,2.3256,2.3256,2.3256,2.3608,2.3954,2.3432,2.3608,2.3954,2.3296,2.3521,2.3929,2.3321,2.3175,2.3206,2.3231,2.3206,2.318,2.3241,2.318,2.3095,2.3155,2.3125,2.3095,2.3095,2.2297,2.1518,2.1493,2.0589,1.9811,1.9836,1.9811,1.9635,1.9083,1.8531,1.7802,1.6676,1.6525,1.65,1.65,1.65,1.65,1.65,1.65,1.65,1.65,1.65,1.65,1.65,1.65,1.65,1.65,1.65,1.65,1.65,1.65,1.65,1.65,1.65,1.65,2.8739,3.1031,3.283,3.2581,3.2127,3.1123,2.8693,2.6415,2.4089,2.1717,2.037,1.946,1.8936,2.0371,0.0,2.3712,2.6806,0.0,3.0109,3.1406,0.0,3.1025,0.0,3.0354,3.0337,2.9575,0.0,0.0,3.0139,3.0074,3.0559,3.0742,3.1077,3.1622,3.1262,3.118,3.1442,3.1081,3.0759,3.0629,3.0813,3.0911,3.0882,3.086,3.0419,2.9628,2.9628,2.9049,2.8093,2.7561,2.7267,2.7016,2.5783,2.5328,2.5328,2.5328,2.5024,2.4677,2.5159,2.5024,2.4424,2.3421,2.3772,2.4474,2.3954,2.4152,2.4688,2.5166,2.4696,2.4239,2.5304,2.4331,2.3245,2.3868,2.3543,2.3095,2.3095,2.2569,2.197,2.1568,2.0589,1.9936,2.039,2.0087,1.9635,1.9083,1.8531,1.7953,1.725,1.6798,1.65,1.65,1.65,1.65,1.65,1.65,1.65,1.65,1.65,1.65,1.65,1.65,1.65,1.65,1.65,1.65,1.65,1.65,1.65,1.65,1.65,1.65,3.1188,3.2995,3.4317,3.3483,3.2533,3.1067,2.8166,2.5711,2.333,2.0767,1.9386,1.8482,1.7898,1.9105,2.0875,0.0,0.0,0.0,3.0955,3.2719,3.3589,0.0,3.3003,0.0,3.2457,3.1971,3.182,0.0,3.0635,3.033,3.1765,3.1426,3.1646,3.2558,3.2297,3.2297,3.2593,3.2716,3.2619,3.2314,3.2539,3.2656,3.2629,3.2169,3.1486,3.0674,3.0414,2.9813,2.8947,2.8401,2.8183,2.8097,2.7036,2.661,2.661,2.661,2.6493,2.6332,2.6566,2.6623,2.6385,2.4895,2.5252,2.6191,2.5616,2.5735,2.6118,2.6529,2.5961,2.5451,2.6516,2.5691,2.4678,2.5114,2.4619,2.3974,2.3684,2.2934,2.2146,2.1594,2.0765,2.0314,2.0641,2.0214,1.971,1.9384,1.8882,1.8455,1.8154,1.7152,1.65,1.65,1.65,1.65,1.65,1.65,1.65,1.65,1.65,1.65,1.65,1.65,1.65,1.65,1.65,1.65,1.65,1.65,1.65,1.65,1.65,1.65,3.3275,3.4053,3.4324,3.3544,3.2258,3.0236,2.6992,2.4693,2.2546,2.0184,0.0,1.8051,1.7597,1.8141,1.9522,2.2127,0.0,2.7319,3.1244,3.2766,3.3993,3.534,3.5519,3.5166,3.4279,3.4872,3.4673,3.3115,3.0755,3.0372,3.2672,3.1983,3.201,3.2947,3.301,3.301,3.301,3.3774,3.4211,3.4211,3.4389,3.4503,3.4474,3.3215,3.2226,3.1495,3.0855,3.0228,2.9544,2.8907,2.8685,2.8713,2.7979,2.7698,2.7698,2.7698,2.7971,2.8269,2.7833,2.8335,2.8872,2.6893,2.7189,2.821,2.7603,2.747,2.7586,2.767,2.7223,2.6832,2.7535,2.7139,2.655,2.6635,2.6004,2.5202,2.4693,2.354,2.2487,2.2079,2.1521,2.1087,2.098,2.0472,2.0041,1.9939,1.9484,1.9155,1.9229,1.7768,1.6744,1.673,1.673,1.6726,1.671,1.671,1.671,1.671,1.671,1.671,1.671,1.671,1.671,1.671,1.671,1.6667,1.6629,1.6629,1.6586,1.65,1.65,1.65,3.3933,3.4414,3.4204,3.2976,3.0881,2.8345,2.5569,2.2753,0.0,0.0,1.8551,1.8218,1.856,1.9991,2.1951,2.4562,2.6282,2.8651,3.2617,3.3335,3.3993,0.0,3.5519,3.5424,3.5261,3.4643,0.0,0.0,3.3136,3.2483,3.3705,3.3602,3.3973,3.4968,3.5001,3.5001,3.5001,3.5166,3.5231,3.5231,3.4737,3.4503,3.4474,3.3694,3.3244,3.3062,3.2407,0.0,3.2639,3.1397,3.125,3.1633,3.0303,2.9773,2.9773,2.9773,2.9374,2.8962,2.956,2.9916,2.9736,2.7746,2.7895,2.8757,2.821,2.8496,2.9085,2.963,2.8971,2.8367,2.9631,2.857,2.7307,2.7911,2.7116,2.6153,2.6043,2.5025,2.4259,2.464,2.3877,2.2983,2.2379,2.1826,2.1273,2.0725,2.0175,1.9996,2.051,1.9011,1.7911,1.7913,1.7904,1.7887,1.7828,1.7814,1.7814,1.7814,1.7814,1.7814,1.7814,1.7814,1.7814,1.7814,1.7814,1.7619,1.7146,1.7146,1.6942,1.65,1.65,1.65,3.4234,3.4503,3.4204,3.2826,3.0283,2.738,2.4687,0.0,0.0,0.0,1.8651,1.8603,1.8854,1.9651,0.0,2.3312,2.474,2.6963,3.0913,3.2048,0.0,3.4771,3.528,3.5519,0.0,3.5067,3.4971,3.5457,3.4639,3.4308,3.4773,3.4773,3.5001,3.5457,3.5519,3.5519,3.5519,3.5519,3.5519,3.5519,3.516,3.5011,3.4981,3.4322,3.3993,3.3963,3.3305,3.3215,3.3455,3.2826,3.2736,3.2946,3.2255,3.1955,3.1955,3.1955,3.1506,3.0881,3.1305,3.1219,3.0778,2.9784,2.9868,3.0241,3.0013,3.0163,3.0514,3.0837,3.022,2.9745,3.0738,2.9984,2.9058,2.9399,2.8453,2.7343,2.6941,2.6382,2.5938,2.5938,2.5245,2.4416,2.3715,2.2848,2.2169,2.1846,2.1253,2.0992,2.1273,2.056,1.9817,1.9244,1.8886,1.8644,1.8609,1.8305,1.8092,1.8092,1.8092,1.8092,1.8092,1.8092,1.8092,1.8092,1.8092,1.7953,1.7713,1.7713,1.7598,1.7333,1.7333,1.7167,3.4053,3.4384,3.4144,3.2677,2.9804,2.6686,2.4021,2.1904,0.0,0.0,1.8909,1.9062,1.9062,1.9082,1.968,0.0,2.2651,2.4652,2.8614,3.0283,3.1898,0.0,3.5011,0.0,3.5519,3.5519,0.0,3.5519,3.5519,3.5519,3.5519,3.5519,3.5519,3.5519,3.5519,3.5519,3.5519,3.5519,3.5519,3.5519,3.5519,3.5519,3.5489,3.4951,3.4713,3.4683,3.3993,3.3784,3.3903,3.3604,3.3574,3.3694,3.3544,3.3484,3.3484,3.3484,3.3155,3.2706,3.2706,3.2348,3.1929,3.1929,3.1839,3.169,3.154,3.16,3.169,3.154,3.1122,3.0851,3.1361,3.1092,3.0702,3.0522,2.9656,2.8654,2.7968,2.7795,2.7597,2.6976,2.6495,2.5875,2.4903,2.3954,2.3227,2.2975,2.2588,2.23,2.2137,2.2222,2.193,2.0946,2.0028,1.9432,1.9442,1.8829,1.8424,1.8424,1.8424,1.8424,1.8424,1.8424,1.8424,1.8424,1.8424,1.8386,1.8269,1.8269,1.821,1.8092,1.8092,1.7854,3.3245,3.4054,3.4023,3.2079,2.9146,2.6027,2.3392,0.0,0.0,1.8852,1.9176,1.9636,1.9636,1.9629,2.0087,2.1486,0.0,2.3268,2.7225,2.8933,3.0702,3.3275,0.0,0.0,3.5519,3.5519,3.5519,3.5519,3.5519,3.5519,3.5519,3.5519,3.5519,3.5519,3.5519,3.5519,3.5519,3.5519,3.5519,3.5519,3.5519,3.5519,3.5519,3.5429,3.54,3.537,3.4681,3.4741,0.0,3.3993,3.3844,3.4354,3.3724,3.3484,3.3484,3.3484,3.3455,3.3395,3.3395,3.3365,3.3305,3.3305,3.2916,3.2288,3.169,3.1929,3.2258,3.166,3.1451,3.1421,3.1481,3.1451,3.1241,3.0642,3.0406,3.0142,2.952,2.9401,2.9193,2.8542,2.8334,2.7731,2.5795,2.5405,2.4916,2.3794,2.4077,2.4181,2.3511,2.3941,2.406,2.336,2.1632,2.0558,2.0546,1.9949,1.9533,1.9533,1.9533,1.9533,1.9533,1.9533,1.9533,1.9533,1.9533,1.9314,1.8836,1.8836,1.8588,1.8092,1.8092,1.8052,3.124,3.2467,3.2826,3.0851,2.7859,2.4694,2.2084,0.0,1.8313,1.7623,1.8027,1.8642,1.9031,1.9091,1.939,2.0318,2.0516,0.0,2.426,0.0,2.7859,3.13,3.2886,0.0,0.0,0.0,3.5519,3.5519,3.5519,3.5519,3.5519,3.5519,3.5519,3.5519,3.5519,3.5519,3.5519,3.5519,3.5519,3.5519,3.5519,3.5519,3.5519,3.5519,3.5519,3.5489,3.522,3.525,0.0,3.4921,3.4861,3.507,3.4801,3.4711,3.4711,3.4711,3.4442,3.4114,3.4114,3.3814,3.3484,3.3484,3.3574,3.3574,3.2916,3.2886,3.2976,3.2288,3.2079,3.2019,3.16,3.1809,3.2019,3.1779,3.1719,3.1539,3.0881,3.0761,3.0552,2.9864,2.9445,2.8797,2.761,2.6731,2.6022,2.552,2.5342,2.4999,2.4283,2.4425,2.4335,2.367,2.2583,2.175,2.1346,2.0707,2.0139,1.9738,1.9708,1.9708,1.9708,1.9708,1.9708,1.9708,1.9708,1.9599,1.9387,1.9387,1.9277,1.9062,1.9062,1.8893,2.8577,3.0043,3.0672,2.9086,2.6363,2.3379,0.0,0.0,1.7503,1.683,1.7234,1.7908,1.8583,1.8702,1.8912,1.9588,0.0,2.0397,2.2403,2.3969,2.6159,0.0,0.0,3.3155,0.0,3.528,3.5519,3.5519,3.5519,3.5519,3.5519,3.5519,3.5519,3.5519,3.5519,3.5519,3.5519,3.5519,3.5519,3.5519,3.5519,3.5519,3.5519,3.5519,3.5519,3.5519,3.5519,3.5519,0.0,3.5519,3.5519,3.5519,3.5519,3.5519,3.5519,3.5519,3.519,3.4771,3.4771,3.4472,3.4083,3.4083,3.4412,3.4711,3.4233,3.3933,3.3634,3.2976,3.2796,3.2706,3.2198,3.2467,3.2766,3.2557,3.2527,3.2318,3.166,3.1511,3.1301,3.0642,3.0013,2.9412,2.8727,2.7649,2.6836,2.6656,2.6363,2.5884,2.5023,2.5083,2.4844,2.3999,2.352,2.2832,2.1784,2.1276,2.0617,1.9768,1.9887,1.9899,1.9708,1.9708,1.9708,1.9708,1.9708,1.9708,1.9708,1.9708,1.9708,1.9708,1.9708,1.9597,2.5285,2.6632,2.7495,2.6806,2.468,2.2194,0.0,1.8672,1.7503,1.683,1.7234,1.7908,1.8583,1.8702,1.8912,1.9588,1.9708,0.0,2.2403,2.4358,0.0,0.0,0.0,3.2766,3.3455,3.4711,3.5519,3.5519,3.5519,0.0,3.5519,3.5519,3.5519,3.5519,3.5519,3.5519,3.5519,3.5519,3.5519,3.5519,3.5519,3.5519,3.5519,3.5519,3.5519,3.5519,3.5519,3.5519,0.0,3.5519,3.5519,3.5519,3.5519,3.5519,3.5519,3.5519,3.5519,3.5489,3.5489,3.5489,3.5489,3.5489,3.5489,3.5489,3.5489,3.5011,3.4354,3.3664,3.3484,3.3484,3.3484,3.3484,3.3335,3.2677,3.2527,3.2318,3.166,3.1511,3.1301,3.0642,3.0013,2.9412,2.8727,2.8034,2.7375,2.6692,2.7165,2.7106,2.5764,2.6183,2.6063,2.4724,2.4575,2.3797,2.1844,2.1695,2.1126,1.9798,2.0318,2.0408,1.9738,1.9708,1.9708,1.9708,1.9708,1.9708,1.9708,1.9708,1.9708,1.9708,1.9708,2.0049,2.2624,2.3879,2.4597,2.352,2.1934,2.0247,1.8702,1.7326,1.6353,1.6129,1.6263,1.6727,1.7818,1.8027,1.8536,2.0139,2.0767,2.1455,0.0,0.0,0.0,2.9026,3.2407,3.4651,0.0,0.0,3.5519,3.5519,3.5519,3.5519,3.5519,3.5519,3.5519,3.5519,3.5519,3.5519,3.5519,3.5519,3.5519,3.5519,3.5519,3.5519,3.5519,3.5519,3.5519,3.5519,3.5519,3.5519,3.5519,3.5519,3.5519,3.5519,3.5519,3.5519,3.5519,3.5519,3.5519,3.5519,3.5519,3.5519,3.5519,3.5519,3.5519,3.5519,3.5519,3.534,3.504,3.4352,3.3844,3.3604,3.4053,3.4173,3.4144,3.3934,3.3514,3.3006,3.2318,3.1809,3.1451,3.1212,3.0342,2.9532,2.9295,2.8364,2.7525,2.7315,2.7465,2.7285,2.6393,2.6452,2.6093,2.4754,2.4605,2.4007,2.2523,2.2373,2.2014,2.1126,2.0857,2.0598,2.0408,1.9929,1.9917,2.0378,2.0359,2.0617,2.1085,2.1085,2.1085,2.1085,2.1085,2.1186,0.0,2.0455,2.1196,2.0528,1.9693,0.0,0.0,1.6948,1.6177,1.6177,1.6066,1.6378,1.7651,1.7796,1.8267,2.0049,2.0887,2.1635,0.0,0.0,0.0,3.0372,0.0,0.0,0.0,3.534,3.5519,3.5519,3.575,3.5911,3.5911,3.6196,3.6383,3.6383,3.5782,3.5519,3.5519,3.5519,3.5519,3.5489,3.5782,3.5911,3.5911,3.5911,3.5911,3.5879,3.5619,3.5519,0.0,3.5519,3.5519,3.5519,3.5519,3.5519,3.5519,3.5519,3.5519,3.5519,3.5519,3.5519,3.5519,3.5519,3.5519,3.5519,3.5519,3.5519,3.54,3.4981,3.4562,3.4352,3.4771,3.4713,3.4566,3.4848,3.4,3.3096,3.297,3.2192,3.1511,3.1511,3.0462,2.9621,2.9621,2.8483,2.7585,2.7585,2.7585,2.7435,2.7046,2.6986,2.6542,2.5472,2.5113,2.4545,2.352,2.3161,2.2673,2.1754,2.1711,2.1614,2.1341,2.1136,2.1214,2.1627,2.1627,2.1843,2.2274,2.2045,2.1862,2.1695,2.1964,2.2074,0.0,1.67,0.0,0.0,0.0,0.0,1.7736,1.7239,0.0,1.6882,1.6633,1.6839,1.8238,1.8142,1.8337,1.9792,2.0584,2.1494,0.0,2.5368,0.0,0.0,3.3275,0.0,3.4444,3.5164,3.5587,3.5587,3.6259,3.6691,3.6691,3.7381,3.7793,3.7793,3.6414,3.5651,3.5651,3.5651,3.5651,3.5683,3.6384,3.6691,3.6661,3.663,3.666,0.0,3.5849,3.5524,3.5554,3.5522,3.5519,3.5519,3.5519,3.5519,3.5519,3.5519,3.5522,3.5587,3.5587,3.5619,3.5651,3.5651,3.5651,3.5651,3.5651,3.5619,3.5587,3.5587,3.5619,3.5651,3.5587,3.5138,3.4878,3.5458,3.4148,3.2911,3.3622,3.2647,3.1653,3.1653,3.0659,2.9786,2.9763,2.8681,2.781,2.7735,2.7705,2.7675,2.7675,2.7615,2.7315,2.6626,2.5974,2.5292,2.4605,2.3969,2.3122,2.1964,2.2854,2.3146,2.2531,2.2961,2.3208,2.3272,2.3304,2.3337,2.3337,2.2852,2.2378,2.1964,2.2586,2.2866,1.4934,0.0,1.6314,1.6961,1.7091,1.7029,0.0,1.6901,1.6946,1.7543,0.0,1.8311,2.0799,2.0273,2.0333,2.2925,2.3846,2.4554,2.5565,0.0,0.0,3.3874,3.507,3.5429,3.4593,3.5612,3.6322,3.6322,3.7054,3.7531,3.7531,3.7706,3.7793,3.7793,3.7442,3.7265,3.7265,3.7265,3.7265,3.7265,3.7442,3.7531,3.7499,3.693,3.6962,3.7469,3.6104,3.5799,3.6321,3.5718,3.5519,3.5519,3.5519,3.5519,3.5519,3.5519,3.5878,3.6322,3.6322,3.6753,3.7265,3.7265,3.7265,3.7265,3.7265,3.6814,3.6322,3.6322,3.6783,3.7115,3.6508,3.6689,3.6768,3.5762,3.5219,3.4861,3.4455,3.371,3.3103,3.3103,3.2435,3.174,3.12,3.0438,2.9705,2.9192,2.8667,2.8368,2.8368,2.7914,2.7165,2.5974,2.5704,2.5136,2.3939,2.3699,2.3652,2.3754,2.3544,2.3518,2.3774,2.3394,2.3433,2.3943,2.447,2.4708,2.4708,2.4595,2.4493,2.4378,2.4535,2.4413,1.4742,1.5672,1.6628,1.7136,1.7614,1.7952,1.7803,0.0,0.0,0.0,0.0,0.0,2.067,2.075,2.1405,2.4163,2.5268,0.0,0.0,0.0,3.4037,3.5334,3.6168,3.6446,0.0,3.6716,3.7144,3.7144,3.7876,3.8302,3.8302,3.8635,3.8859,3.8859,3.8859,3.853,3.7822,3.7793,3.7793,3.7822,3.8133,3.8302,3.8302,3.7913,3.7945,3.8213,3.706,3.6768,3.7084,3.6321,3.6006,3.6006,3.6006,3.6006,3.607,3.6415,3.6783,3.7144,3.7144,3.7442,3.7793,3.7793,3.7793,3.7793,3.7793,3.7732,3.7584,3.7233,3.744,3.7706,3.7263,3.6994,3.6802,3.6596,3.5628,3.4797,3.5046,3.4311,3.3598,3.3598,3.3047,3.2492,3.212,3.1495,3.0829,3.0123,2.9701,2.9336,2.9002,2.8656,2.813,2.7442,2.6543,2.5712,2.4981,2.432,2.408,2.4369,2.4543,2.4719,2.5027,2.4885,2.4957,2.5335,2.5694,2.5783,2.5561,2.5561,2.543,2.5202,2.5202,2.5047,1.523,1.6684,1.7932,1.7773,1.8689,1.9504,1.9075,0.0,0.0,0.0,0.0,0.0,0.0,2.1326,0.0,0.0,0.0,0.0,3.2681,3.3816,3.4846,3.6514,3.6898,0.0,3.7598,3.7844,3.7994,3.7994,3.8663,3.9069,3.9069,3.9714,4.0113,4.0113,4.0113,3.948,3.8165,3.8165,3.8165,3.8165,3.8772,3.9069,3.9069,3.897,3.897,3.9043,3.8177,0.0,3.7905,3.7114,3.6783,3.6752,3.663,3.6661,3.6843,3.7294,3.7677,3.7994,3.8108,3.8165,3.8165,3.8165,3.8165,3.8165,3.8165,3.858,3.8935,3.8334,3.8165,3.8137,3.8023,3.7081,3.6459,3.74,3.5817,3.437,3.5465,3.475,3.3928,3.3928,3.3468,3.3023,3.2925,3.241,3.183,3.1077,3.0788,3.0412,2.979,2.9534,2.9374,2.9246,2.7671,2.6601,2.6476,2.5457,2.4809,2.4809,2.5551,2.6015,2.6086,2.6504,2.6691,2.6691,2.6691,2.6504,2.6104,2.6236,2.5987,2.543,2.5527,2.5489,1.7066,1.8812,1.9626,1.7887,1.9114,2.0481,1.9484,0.0,0.0,0.0,0.0,0.0,0.0,2.5329,2.645,0.0,0.0,3.2779,0.0,0.0,3.7054,3.6822,0.0,3.8081,3.7046,3.8028,3.8745,3.8745,3.948,3.9927,3.9927,4.0003,4.0113,4.0113,4.0113,3.9978,3.9747,3.9747,3.9747,3.9747,3.9876,3.9927,3.9893,3.9261,3.9328,3.9842,0.0,3.8133,3.8663,3.7905,3.7618,3.756,3.6873,3.6994,3.7472,3.629,3.7086,3.8827,3.9506,3.9747,3.9747,3.9747,3.9747,3.9747,3.9747,3.9825,3.9901,3.9799,3.9747,3.9584,3.8908,3.8638,3.8213,3.714,3.6563,3.6202,3.5733,3.5463,3.5293,3.5293,3.5193,3.4954,3.4403,3.4209,3.3909,3.3219,3.2119,3.1286,3.119,3.0142,2.9172,2.8608,2.7732,2.6935,2.6381,2.6542,2.6695,2.6695,2.6235,2.6175,2.659,2.6657,2.6691,2.6691,2.6691,2.6657,2.659,2.723,2.7144,2.6487,2.7107,2.6845,1.6518,1.8603,2.0237,1.9093,2.054,2.1925,2.0813,2.0727,0.0,0.0,0.0,0.0,0.0,0.0,2.9593,3.2844,0.0,3.6539,3.7819,3.8256,3.8329,0.0,0.0,3.8797,3.858,3.9168,3.9558,3.9558,3.9901,4.0113,4.0113,4.0113,3.991,3.9537,3.991,3.974,3.8903,3.9309,3.9706,4.0113,4.0113,4.0113,4.0079,3.9774,3.9774,4.0054,0.0,3.9257,3.9506,3.869,3.8386,3.8358,3.7987,3.8044,3.8358,3.8076,3.8635,3.961,3.9978,4.0113,4.0113,4.0113,4.0113,4.0113,4.0113,4.0113,4.0113,4.0113,4.0113,4.0003,3.9636,3.9286,3.8728,3.7601,3.7066,3.6694,3.6332,3.6231,3.6231,3.6231,3.6231,3.6004,3.5291,3.5144,3.4895,3.4183,3.3532,3.2838,3.2045,3.1384,3.0712,3.0005,2.8981,2.8262,2.7956,2.7761,2.7812,2.8089,2.7405,2.7074,2.7283,2.6894,2.6691,2.6691,2.6691,2.6691,2.6691,2.7418,2.7621,2.73,2.7655,2.7718,1.6151,1.8419,2.066,2.0586,0.0,2.3259,2.2737,2.2609,0.0,0.0,0.0,0.0,0.0,2.9106,0.0,3.6152,3.8048,3.9039,3.9208,3.9242,3.9242,3.9242,3.9242,3.9503,4.0045,4.0113,4.0113,4.0113,4.0113,4.0113,4.0113,3.9943,3.9605,3.9005,3.9377,3.9039,3.7922,3.8464,3.9005,3.9605,3.9774,3.9842,3.9842,4.0011,4.0113,4.0113,4.0113,4.0113,4.0028,3.942,3.9183,3.9183,3.8962,3.8799,3.8745,3.9714,3.9978,3.985,4.0028,4.0113,4.0113,4.0113,4.0113,4.0113,4.0113,4.0113,4.0113,4.0113,4.0113,4.0113,4.0113,3.9571,3.887,3.8294,3.7584,3.7066,3.7066,3.7066,3.7066,3.7066,3.7066,3.684,3.6242,3.5994,3.569,3.5115,3.4709,3.4066,3.297,3.2666,3.2293,3.1529,3.0436,2.9683,2.9497,2.8965,2.8887,2.9499,2.8619,2.806,2.806,2.7368,2.7063,2.725,2.7063,2.6962,2.6962,2.7891,2.806,2.7553,2.8094,2.8383,1.7509,1.9534,2.1427,2.2128,2.2993,2.4038,2.5363,2.6251,0.0,2.9166,0.0,0.0,0.0,3.1624,3.3964,3.6423,3.8048,3.9242,3.991,0.0,4.0011,4.0011,4.0011,4.0045,4.0079,4.0113,4.0113,4.0113,4.0113,4.0113,4.0113,3.9445,3.9039,3.9005,3.8396,3.8024,3.7922,3.7956,3.8024,3.8058,3.8734,3.9073,3.9106,3.9808,4.0113,4.0113,4.0113,4.0113,4.0113,4.0062,4.0003,3.9927,3.9209,3.8469,3.808,3.9558,3.9636,3.9069,3.985,4.0113,4.0113,4.0113,4.0113,4.0113,4.0113,4.0113,4.0113,4.0113,4.0113,4.0113,4.0113,3.9571,3.8971,3.8937,3.8362,3.7821,3.7821,3.7821,3.7821,3.7821,3.7821,3.7821,3.7753,3.7178,3.6694,3.666,3.5441,3.4438,3.4358,3.3728,3.3051,3.2293,3.1543,3.0779,3.0085,2.9983,3.0273,3.0987,2.9721,2.8908,2.8908,2.8146,2.806,2.8807,2.8112,2.7722,2.7722,2.921,2.8856,2.6826,2.8958,2.8822,1.7796,2.0563,2.297,2.2303,2.3886,0.0,0.0,2.6866,2.8066,2.9754,3.1765,0.0,0.0,0.0,3.5656,3.842,3.9715,4.046,4.073,4.0764,4.0595,4.0146,4.0113,4.0113,4.0113,4.0113,4.0113,4.0113,4.0113,4.0113,4.0113,3.9377,3.8802,3.8328,3.8058,3.7449,3.6479,3.6975,3.6975,3.6479,3.7719,3.8565,3.9005,3.9276,3.9673,4.0113,4.0113,4.0113,4.0113,4.0113,4.0113,4.0087,3.9765,3.948,3.9322,3.9876,3.9901,3.9688,3.9978,4.0113,4.0113,4.0113,4.0113,4.0113,4.0113,4.0113,4.0113,4.0113,4.0113,4.0113,4.0113,3.991,3.9571,3.9106,3.8768,3.8565,3.8565,3.8565,3.8565,3.8565,3.8565,3.843,3.799,3.728,3.6795,3.6795,3.5893,3.5013,3.4539,3.4269,3.3795,3.3051,3.2747,3.2273,3.1549,3.1461,3.1413,3.119,3.0243,2.9668,2.9668,2.8958,2.8705,2.8976,2.8687,2.8552,2.8552,2.96,2.9668,2.8822,2.9228,2.9194,1.8317,2.101,2.3452,2.2685,0.0,0.0,2.7665,2.8579,2.9852,3.2084,3.3964,3.5475,3.6265,0.0,0.0,0.0,4.0054,4.0832,4.0832,4.0832,4.0663,4.018,4.0113,4.0113,4.0113,4.0113,4.0011,3.9774,3.9774,3.9673,3.9436,3.8725,3.8058,3.7584,3.7313,3.6648,3.56,3.6163,3.6129,3.56,3.6648,3.7584,3.8352,3.9005,3.9503,3.9774,4.0011,4.0113,4.0113,4.0113,4.0113,4.0113,4.0113,4.0113,4.0113,4.0113,4.0113,4.0113,4.0113,4.0113,4.0113,4.0113,4.0113,4.0113,4.0113,4.0113,4.0113,4.0113,4.0113,4.0113,4.0113,4.0113,3.9977,3.9469,3.9368,3.9368,3.9368,3.9368,3.9368,3.9368,3.9368,3.9174,3.8667,3.7956,3.7438,3.7178,3.6468,3.5723,3.4945,3.4844,3.4573,3.3829,3.3558,3.3186,3.2679,3.2429,3.209,3.1562,3.0852,3.0446,3.0446,2.9736,2.945,2.9687,2.9484,2.9348,2.9348,3.0074,3.0209,2.9736,2.9721,2.9702,1.9315,2.088,2.2715,2.3494,0.0,0.0,3.0855,3.2047,3.3368,3.7144,3.7313,3.6535,3.5769,3.6265,0.0,3.6829,3.8657,4.0113,4.0113,4.0113,4.0113,4.0113,4.0113,4.0113,4.0113,4.0079,3.9808,3.9039,3.8971,3.8667,3.7956,3.7202,3.6795,3.6795,3.6028,3.56,3.56,3.56,3.56,3.56,3.56,3.6028,3.6897,3.9097,3.9706,3.9039,3.9774,4.0113,4.0113,4.0113,4.0113,4.0113,4.0113,4.0113,4.0113,4.0113,4.0113,4.0113,4.0113,4.0113,4.0113,4.0113,4.0113,4.0113,4.0113,4.0113,4.0113,4.0113,4.0113,4.0113,4.0113,4.0113,4.0113,4.0113,4.0113,4.0113,4.0113,4.0113,4.0113,4.0113,4.0113,4.0113,4.0113,3.9503,3.8734,3.8024,3.7246,3.6502,3.5701,3.56,3.5295,3.4607,3.3863,3.3423,3.3423,3.2747,3.2327,3.2293,3.1596,3.119,3.119,3.0514,3.0446,3.119,3.048,3.0089,3.0089,3.0852,3.0446,2.9044,3.0533,3.0431,2.0005,2.1889,0.0,2.4415,0.0,0.0,0.0,3.2142,0.0,0.0,3.6874,3.6366,3.7753,3.7753,0.0,3.8261,3.9334,4.0113,4.0113,4.0113,4.0113,4.0113,4.0113,4.0113,4.0113,3.9639,3.9242,3.9005,3.8531,3.8125,3.7922,3.7202,3.6795,3.6795,3.6028,3.56,3.56,3.56,3.56,3.56,3.6163,3.684,3.7584,3.8261,3.9005,3.9808,4.0011,4.0113,4.0113,4.0113,4.0113,4.0113,4.0113,4.0113,4.0113,4.0113,4.0113,4.0113,4.0113,4.0113,4.0113,4.0113,4.0113,4.0113,4.0113,4.0113,4.0113,4.0113,4.0113,4.0113,4.0113,4.0113,4.0113,4.0113,4.0113,4.0113,4.0113,4.0113,4.0113,4.0113,4.0113,4.0113,4.0113,3.9503,3.8734,3.8024,3.7246,3.6728,3.6468,3.596,3.5735,3.6084,3.5419,3.4742,3.4201,3.3964,3.341,3.2361,3.209,3.1752,3.1224,3.0987,3.0987,3.119,3.0987,3.0852,3.0852,3.1089,3.0987,3.0567,3.0446,3.0209,2.1575,2.3272,0.0,2.6624,2.9319,3.195,3.3454,0.0,0.0,0.0,3.8059,3.7262,3.8629,3.8326,0.0,3.8497,3.9436,4.0113,4.0113,4.0113,4.0011,3.9706,3.9673,3.9571,3.9242,3.8802,3.843,3.8125,3.7719,3.7313,3.6986,3.6569,3.6332,3.6332,3.5836,3.56,3.56,3.56,3.56,3.56,3.6096,3.6874,3.7922,3.8193,3.8802,3.9673,3.9977,4.0113,4.0113,4.0113,4.0113,4.0113,4.0113,4.0113,4.0113,4.0113,4.0113,4.0113,4.0113,4.0113,4.0113,4.0113,4.0113,4.0113,4.0113,4.0113,4.0113,4.0113,4.0113,4.0113,4.0113,4.0113,4.0113,4.0113,4.0113,4.0113,4.0113,4.0113,4.0113,4.0113,4.0113,4.0113,4.0113,3.974,3.9174,3.8464,3.7472,3.6694,3.6366,3.5926,3.5769,3.6265,3.5893,3.543,3.4979,3.4675,3.41,3.3241,3.2632,3.209,3.1684,3.1379,3.119,3.119,3.119,3.119,3.119,3.119,3.119,3.119,3.0751,3.0548,2.3529,2.486,0.0,2.9512,3.1678,0.0,3.5556,3.7811,3.9913,4.123,0.0,3.8803,3.8803,3.83,3.7922,3.7922,3.9005,3.991,3.991,3.991,3.9673,3.8971,3.8903,3.8633,3.799,3.7855,3.7516,3.6863,3.6728,3.6366,3.5633,3.56,3.56,3.56,3.56,3.56,3.56,3.56,3.56,3.56,3.56,3.6377,3.7821,3.8565,3.8971,3.914,3.9808,4.0113,4.0113,4.0113,4.0113,4.0113,4.0113,4.0113,4.0113,4.0113,4.0113,4.0113,4.0113,4.0113,4.0113,4.0113,4.0113,4.0113,4.0113,4.0113,4.0113,4.0113,4.0113,4.0113,4.0113,4.0113,4.0113,4.0113,4.0113,4.0113,4.0113,4.0113,4.0113,4.0113,4.0113,4.0113,4.0113,4.0113,3.9842,3.9106,3.7811,3.6637,3.5904,3.5735,3.5735,3.5802,3.5667,3.5633,3.5701,3.5047,3.4539,3.4404,3.3207,3.2429,3.2293,3.1582,3.119,3.119,3.119,3.119,3.119,3.119,3.119,3.119,3.119,3.119,2.3759,2.5254,0.0,0.0,3.382,3.6876,3.8596,3.9414,3.9675,3.9245,3.9357,3.9557,3.9557,3.8653,3.7922,3.7922,3.8159,3.8362,3.8362,3.8362,3.8328,3.8159,3.8159,3.8091,3.7922,3.7381,3.6965,3.6829,3.6197,3.5769,3.56,3.56,3.56,3.56,3.56,3.56,3.56,3.56,3.56,3.56,3.56,3.6096,3.7043,3.7787,3.8768,3.9876,4.0045,4.0113,4.0113,4.0113,4.0113,4.0113,4.0113,4.0113,4.0113,4.0113,4.0113,4.0113,4.0113,4.0113,4.0113,4.0113,4.0113,4.0113,4.0113,4.0113,4.0113,4.0113,4.0113,4.0113,4.0113,4.0113,4.0113,4.0113,4.0113,4.0113,4.0113,4.0113,4.0113,4.0113,4.0113,4.0113,4.0113,4.0113,3.9842,3.9106,3.8227,3.7618,3.7449,3.6907,3.6738,3.7347,3.6309,3.5836,3.6491,3.5825,3.4856,3.3728,3.3863,3.3512,3.2361,3.1582,3.119,3.119,3.119,3.119,3.119,3.119,3.119,3.119,3.119,3.119,2.4265,0.0,0.0,3.2045,0.0,3.7823,3.9056,3.9606,3.9751,3.9208,3.9116,3.9133,3.9133,3.8172,3.7441,3.7684,3.8003,3.8242,3.8242,3.8242,3.8048,3.7462,3.7569,3.7558,3.7216,3.7068,3.6984,3.6984,3.6582,3.6098,3.548,3.5459,3.533,3.5081,3.5081,3.525,3.56,3.56,3.56,3.56,3.56,3.6028,3.6829,3.755,3.87,4.0079,3.974,3.9774,4.0113,4.0113,4.0113,4.0113,4.0113,4.0113,4.0113,4.0113,4.0113,4.0113,4.0113,4.0113,4.0113,4.0113,4.0113,4.0113,4.0113,4.0113,4.0113,4.0113,4.0113,4.0113,4.0113,4.0113,4.0113,4.0113,4.0113,4.0113,4.0113,4.0113,4.0113,4.0113,4.0113,4.0113,4.0113,4.0113,3.9842,3.9106,3.8667,3.8294,3.7956,3.755,3.7347,3.7347,3.6637,3.6197,3.6231,3.5836,3.5261,3.4484,3.4472,3.4134,3.341,3.2327,3.1752,3.1752,3.136,3.119,3.119,3.119,3.119,3.119,3.119,3.119,2.4816,0.0,2.8436,3.3537,3.6046,0.0,3.8322,3.9129,3.9643,3.9496,3.8975,3.8515,3.8515,3.7624,3.7009,3.7394,3.7943,3.836,3.836,3.836,3.791,3.6795,3.7008,3.6936,3.6171,3.6517,3.6783,3.6783,3.6814,3.6373,3.5347,3.5212,3.4947,3.4493,3.4506,3.4776,3.5397,3.5532,3.5532,3.5397,3.5397,3.5825,3.6626,3.7212,3.8396,3.9876,3.9242,3.9436,4.0113,4.0113,4.0113,4.0113,4.0113,4.0113,4.0113,4.0113,4.0113,4.0113,4.0113,4.0113,4.0113,4.0113,4.0113,4.0113,4.0113,4.0113,4.0113,4.0113,4.0113,4.0113,4.0113,4.0113,4.0113,4.0113,4.0113,4.0113,4.0113,4.0113,4.0113,4.0113,4.0113,4.0113,4.0113,4.0113,3.991,3.9276,3.9174,3.8903,3.8193,3.8091,3.7821,3.7066,3.6897,3.6535,3.5836,3.5667,3.5532,3.5397,3.4979,3.4607,3.4506,3.3343,3.2666,3.2666,3.1718,3.119,3.119,3.119,3.119,3.119,3.119,3.119,0.0,0.0,3.0393,0.0,3.5202,3.667,0.0,0.0,3.8652,0.0,3.8469,3.9031,3.9031,3.7983,3.7177,3.7254,3.7325,3.7395,3.7395,3.7395,3.7039,3.615,3.6082,3.5803,3.5009,3.5011,3.5012,3.5012,3.5289,3.5396,3.5212,3.4835,3.4558,3.4506,3.4506,3.4539,3.4641,3.5261,3.5261,3.4641,3.4641,3.5047,3.5769,3.587,3.711,3.914,3.9039,3.9436,4.0113,4.0113,4.0113,4.0113,4.0113,4.0113,4.0113,4.0113,4.0113,4.0113,4.0113,4.0113,4.0113,4.0113,4.0113,4.0113,4.0113,4.0113,4.0113,4.0113,4.0113,4.0113,4.0113,4.0113,4.0113,4.0113,4.0113,4.0113,4.0113,4.0113,4.0113,4.0113,4.0113,4.0113,4.0113,4.0113,4.0079,3.9977,3.9943,3.9706,3.8937,3.8836,3.8565,3.7821,3.7178,3.6761,3.666,3.5994,3.5329,3.4675,3.5126,3.5182,3.4539,3.4303,3.4201,3.4201,3.2205,3.119,3.119,3.119,3.119,3.119,3.119,3.119,2.5178,2.6759,2.8778,0.0,3.2999,3.4578,3.5826,3.6743,3.7257,3.689,3.7195,3.743,3.715,3.6381,3.5917,3.6184,3.6236,3.6236,3.6236,3.663,3.6488,3.5366,3.5901,3.604,3.5237,3.5415,3.5596,3.5596,3.5741,3.5366,3.4424,3.4165,3.3815,3.3296,3.3275,3.366,3.4472,3.481,3.5047,3.5115,3.5115,3.5318,3.56,3.56,3.6817,3.8971,3.8565,3.9039,4.0113,4.0113,4.0113,4.0113,4.0113,4.0113,4.0113,4.0113,4.0113,4.0113,4.0113,4.0113,4.0113,4.0113,4.0113,4.0113,4.0113,4.0113,4.0113,4.0113,4.0113,4.0113,4.0113,4.0113,4.0113,4.0113,4.0113,4.0113,4.0113,4.0113,4.0113,4.0113,4.0113,4.0113,4.0113,4.0113,4.0113,4.0113,4.0113,3.9977,3.9673,3.9639,3.9309,3.8599,3.7855,3.7415,3.7415,3.6299,3.5633,3.578,3.569,3.543,3.5148,3.4709,3.4506,3.4506,3.2733,3.2002,3.2442,3.1596,3.163,3.2408,3.2002,3.1819,0.0,0.0,2.6796,2.8778,3.0491,3.2106,0.0,0.0,3.5422,0.0,3.5642,3.5556,3.5157,3.5078,3.5249,3.5627,3.569,3.569,3.569,3.6234,3.6141,3.4915,3.5647,3.5965,3.5131,3.5433,3.5642,3.5642,3.5725,3.5162,3.3771,3.3582,3.3136,3.2313,3.2293,3.2835,3.3952,3.3952,3.4201,3.4776,3.4957,3.5025,3.5059,3.543,3.6637,3.8396,3.7855,3.8464,3.9842,3.9842,3.9943,4.0113,4.0113,4.0113,4.0113,4.0113,4.0113,4.0113,4.0113,4.0113,4.0113,4.0113,4.0113,4.0113,4.0113,4.0113,4.0113,4.0113,4.0113,4.0113,4.0113,4.0113,4.0113,4.0113,4.0113,4.0113,4.0113,4.0113,4.0113,4.0113,4.0113,4.0113,4.0113,4.0113,4.0113,4.0113,4.0113,4.0113,4.0113,4.0113,3.9842,3.9073,3.8328,3.7821,3.7652,3.64,3.5836,3.6468,3.5926,3.56,3.56,3.5081,3.4776,3.4776,3.3512,3.3038,3.3423,3.2307,3.2307,3.3389,3.2848,3.2598,0.0,2.486,0.0,2.6576,2.7996,0.0,0.0,0.0,3.3023,3.377,3.3917,3.3917,3.389,3.516,3.6208,3.6237,3.6274,3.6274,3.6274,3.6274,3.6003,3.5095,3.5072,3.4793,3.3963,3.3903,3.3917,3.3917,3.4207,3.4171,3.3651,3.3227,3.2812,3.2313,3.2293,3.2327,3.2429,3.2429,3.2429,3.2496,3.3186,3.3525,3.3558,3.4957,3.6096,3.6931,3.6863,3.7709,3.9039,3.9039,3.9445,4.0113,4.0113,4.0113,4.0113,4.0113,4.0113,4.0113,4.0113,4.0113,4.0113,4.0113,4.0113,4.0113,4.0113,4.0113,4.0113,4.0113,4.0113,4.0113,4.0113,4.0113,4.0113,4.0113,4.0113,4.0113,4.0113,4.0113,4.0113,4.0113,4.0113,4.0113,4.0113,4.0113,4.0113,4.0113,4.0113,4.0113,4.0113,4.0113,3.9842,3.9073,3.8328,3.7618,3.6931,3.6096,3.5633,3.5667,3.5633,3.56,3.56,3.5566,3.5532,3.5532,3.4776,3.4066,3.3423,3.3322,3.3322,3.3423,3.3355,3.3355,0.0,0.0,0.0,2.5631,2.6649,2.7739,2.8851,2.9696,3.0528,3.1311,3.1494,3.1641,3.2155,3.3587,3.4688,3.4688,3.4688,3.4688,3.4688,3.5128,3.5151,3.4307,3.4674,3.4674,3.388,3.3807,3.3807,3.3807,3.3927,3.356,3.2614,3.2643,3.2231,3.1239,3.1448,3.1978,3.2754,3.3455,3.3849,3.3849,3.4109,3.4511,3.5018,3.5555,3.6272,3.7059,3.6684,3.749,3.9039,3.9537,3.9876,4.0113,4.0113,4.0113,4.0113,4.0113,4.0113,4.0113,4.0113,4.0113,4.0113,4.0113,4.0113,4.0113,4.0113,4.0113,4.0113,4.0113,4.0113,4.0113,4.0113,4.0113,4.0113,4.0113,4.0113,4.0113,4.0113,4.0113,4.0113,4.0113,4.0113,4.0113,4.0113,4.0113,4.0113,4.0113,4.0113,4.0113,4.0113,4.0113,4.0011,3.974,3.9039,3.8667,3.8894,3.7787,3.728,3.7753,3.7347,3.6874,3.64,3.6366,3.6129,3.56,3.5329,3.5059,3.4788,3.3863,3.3897,3.4788,3.4336,3.41,2.4375,0.0,0.0,0.0,0.0,2.5915,2.6465,2.72,2.8007,2.8815,2.9439,3.0063,3.0834,3.2082,3.3073,3.3366,3.3623,3.3807,3.3807,3.4284,3.438,3.3844,3.427,3.438,3.3844,3.3807,3.3807,3.3807,3.3807,3.3387,3.2459,3.2619,3.2252,3.1289,3.1509,3.2028,3.2824,3.3565,3.3952,3.3952,3.45,3.4995,3.5543,3.6074,3.6658,3.7208,3.7066,3.7716,3.8887,3.9238,3.9673,4.0113,4.0113,4.0113,4.0113,4.0113,4.0204,4.0368,4.0368,4.0514,4.0659,4.0441,4.0368,4.0319,4.0129,4.0113,4.0113,4.0113,4.0113,4.0113,4.0113,4.0113,4.0113,4.0113,4.0113,4.0113,4.0113,4.0113,4.0113,4.0113,4.0113,4.0113,4.0113,4.0113,4.0113,4.0113,4.0113,4.0113,4.0113,4.0113,4.0154,4.0343,3.972,3.9542,4.0236,3.9007,3.8389,3.8867,3.8279,3.7686,3.7178,3.6931,3.6558,3.6028,3.5735,3.56,3.56,3.4619,3.4619,3.56,3.5115,3.4878,0.0,0.0,0.0,0.0,0.0,0.0,2.419,0.0,2.5595,2.6392,2.7813,2.9133,2.9953,3.076,3.1568,3.2362,3.322,3.377,3.377,3.377,3.377,3.3807,3.377,3.377,3.377,3.377,3.377,3.377,3.377,3.3584,3.3211,3.313,3.2932,3.2483,3.2518,3.2535,3.2535,3.2516,3.2516,3.2551,3.4056,3.4818,3.4889,3.6485,3.7229,3.7265,3.7987,3.8409,3.8555,3.8138,3.8817,4.0129,4.0129,4.0129,4.0163,4.0104,4.0456,4.0909,4.092,4.1273,4.1725,4.1093,4.0943,4.0827,4.0328,4.0129,4.0129,4.0129,4.0129,4.0129,4.0129,4.0129,4.0163,4.0138,4.0138,4.0138,4.0113,4.0113,4.0113,4.0113,4.0113,4.0113,4.0113,4.0113,4.0113,4.0113,4.0113,4.0113,4.0113,4.0138,4.0319,4.085,4.0285,4.0101,4.0698,3.9532,3.879,3.879,3.8288,3.8004,3.797,3.7282,3.6875,3.6818,3.6051,3.5656,3.56,3.56,3.56,3.56,3.56,3.56,2.479,0.0,0.0,0.0,0.0,0.0,0.0,0.0,2.475,2.5558,2.6109,2.6649,2.7457,2.8264,2.9072,2.9867,3.1665,3.2913,3.2913,3.2913,3.3146,3.3733,3.3293,3.2913,3.2913,3.2913,3.2913,0.0,3.2913,3.2766,3.235,3.2015,3.1901,3.2004,3.2647,3.3014,3.3014,3.3284,3.3429,3.3465,3.4469,3.5269,3.5903,3.6958,3.7721,3.8287,3.8094,3.8348,3.8947,3.9575,4.0097,4.0517,4.1098,4.1331,4.1286,4.0827,4.1059,4.1473,4.1047,4.1273,4.1789,4.1617,4.1538,4.1495,4.1375,4.1331,4.1331,4.1331,4.1331,4.1331,4.1331,4.1331,4.1218,4.078,4.0696,4.0577,4.0179,4.0113,4.0113,4.0113,4.0113,4.0113,4.0113,4.0113,4.0113,4.0113,4.0113,4.0113,4.0113,4.0441,4.0733,4.0897,4.1098,4.1321,4.1492,4.1153,4.0926,4.0926,4.081,4.0478,3.9952,3.975,3.8893,3.7422,3.7159,3.6563,3.56,3.56,3.56,3.56,3.56,3.56,0.0,0.0,0.0,0.0,0.0,0.0,2.3905,2.4008,2.4226,0.0,2.4934,2.5521,2.5988,2.6759,2.7457,2.7923,2.9757,3.1335,3.2008,3.2118,3.2265,3.2742,3.2375,3.2118,3.2118,3.2118,3.2164,3.2333,3.2356,3.2383,3.2495,3.2406,3.2435,3.2627,3.3181,3.3451,3.3451,3.3675,3.3954,3.4307,3.5151,3.5973,3.6831,3.7639,3.8248,3.8673,3.8348,3.8489,3.8983,4.0257,4.0737,4.0686,4.1506,4.181,4.1768,4.142,4.166,4.2139,4.1789,4.2041,4.2465,4.2262,4.22,4.2124,4.1874,4.181,4.181,4.181,4.181,4.181,4.181,4.181,4.1725,4.134,4.1273,4.1196,4.0885,4.0814,4.0683,4.0179,4.0303,4.0441,4.0441,4.0625,4.0814,4.0814,4.0814,4.0814,4.0814,4.1082,4.1362,4.1603,4.1958,4.2282,4.2485,4.2286,4.22,4.22,4.1937,4.1598,4.1194,4.063,3.9756,3.8538,3.802,3.7194,3.6096,3.5769,3.56,3.56,3.56,3.56,0.0,0.0,0.0,0.0,0.0,0.0,2.3636,2.3913,2.4118,0.0,2.4263,2.5264,2.5264,2.5841,2.6355,2.6465,2.7666,2.917,3.087,3.114,3.1176,3.125,3.1103,3.1029,3.1127,3.114,3.1318,3.17,3.1845,3.2292,3.3145,3.3536,3.3753,3.3753,3.3793,3.3807,3.3807,3.3807,3.4174,3.4894,3.5752,3.656,3.7382,3.8212,3.8615,3.8689,3.8689,3.8689,3.8836,4.0435,4.0926,4.073,4.1624,4.2,4.1979,4.1916,4.2282,4.277,4.2713,4.3069,4.3445,4.2921,4.277,4.2693,4.2144,4.2,4.2,4.2,4.2,4.2,4.2,4.2,4.1979,4.1916,4.1895,4.1874,4.181,4.181,4.1508,4.049,4.0672,4.0978,4.0978,4.1429,4.181,4.181,4.181,4.181,4.181,4.1874,4.2118,4.2635,4.2751,4.2995,4.3463,4.3069,4.277,4.277,4.2302,4.2,4.2,4.0797,4.006,3.9889,3.848,3.7415,3.666,3.596,3.56,3.56,3.56,3.56,0.0,0.0,0.0,0.0,0.0,0.0,2.4646,2.484,2.5142,0.0,2.4226,2.441,2.441,2.4557,2.4887,2.5521,2.5888,2.6869,2.9133,2.9464,2.9721,3.0356,2.9292,2.8741,2.939,2.9464,2.9625,3.003,3.0957,3.2,3.313,3.3255,3.3335,3.3335,3.362,3.3807,3.3807,3.3807,3.388,3.4027,3.4857,3.5701,3.656,3.7382,3.808,3.8689,3.8689,3.8689,3.8836,4.0435,4.1069,4.1155,4.2595,4.316,4.3105,4.2693,4.2865,4.3268,4.2827,4.3069,4.3497,4.3356,4.3339,4.3321,4.3178,4.316,4.316,4.316,4.316,4.316,4.316,4.316,4.3051,4.2635,4.2537,4.2382,4.1895,4.181,4.1746,4.1508,4.1573,4.1603,4.1603,4.1725,4.181,4.181,4.181,4.181,4.181,4.2241,4.2577,4.2674,4.3105,4.341,4.3497,4.3391,4.3339,4.3339,4.325,4.316,4.316,4.2494,4.1645,4.0538,3.8207,3.6637,3.5836,3.5667,3.56,3.56,3.56,3.56,0.0,0.0,0.0,2.6677,0.0,0.0,0.0,2.5333,2.5198,2.4977,2.4635,2.445,2.4733,2.4456,2.4337,2.475,2.5154,2.5815,2.7016,2.7556,2.7959,2.8363,2.7677,2.7346,2.7739,2.8191,2.8748,2.9534,3.0528,3.136,3.1982,3.2182,3.2475,3.2875,3.309,3.3403,3.3807,3.3807,3.399,3.438,3.4821,3.5665,3.6905,3.7309,3.7933,3.8689,3.8689,3.8689,3.8836,4.0435,4.1095,4.1242,4.2873,4.3515,4.348,4.3196,4.3268,4.348,4.3196,4.3268,4.3515,4.3515,4.3515,4.3515,4.3515,4.3515,4.3515,4.3515,4.3515,4.3515,4.3515,4.3515,4.3445,4.316,4.3105,4.2995,4.2715,4.2657,4.2657,4.2657,4.2657,4.258,4.2302,4.2482,4.2657,4.2657,4.2657,4.2657,4.2657,4.2921,4.3105,4.3105,4.3321,4.3515,4.3515,4.3515,4.3515,4.3515,4.3515,4.3515,4.3515,4.2958,4.2243,4.125,3.9594,3.856,3.8144,3.7394,3.6522,3.56,3.56,3.56,0.0,0.0,0.0,0.0,0.0,2.7166,0.0,0.0,0.0,2.5502,2.4986,2.4648,0.0,0.0,0.0,2.419,0.0,0.0,0.0,2.5731,0.0,2.6355,2.6245,2.6209,2.6355,2.7035,2.7934,2.9166,2.9918,3.0445,3.0658,3.1159,3.1678,3.2362,3.2375,3.2779,3.355,3.3587,3.399,3.4784,3.4784,3.5642,3.7272,3.7272,3.7786,3.8689,3.8689,3.8689,3.8836,4.0435,4.1095,4.1242,4.2873,4.3515,4.3515,4.3515,4.3515,4.3515,4.3515,4.3515,4.3515,4.3515,4.3515,4.3515,4.3515,4.3515,4.3515,4.3515,4.3515,4.3515,4.3515,4.3515,4.3515,4.3515,4.3515,4.3515,4.3515,4.3515,4.3515,4.3515,4.3515,4.3356,4.2939,4.3214,4.3515,4.3515,4.3515,4.3515,4.3515,4.3515,4.3515,4.3515,4.3515,4.3515,4.3515,4.3515,4.3515,4.3515,4.3515,4.3515,4.3515,4.2958,4.2331,4.1584,4.1002,4.0633,4.0512,3.925,3.7775,3.6208,3.605,3.5983,0.0,0.0,0.0,0.0,2.9494,0.0,2.7046,0.0,2.6833,2.5227,0.0,2.4513,0.0,0.0,0.0,0.0,0.0,0.0,2.4337,2.441,2.474,2.5448,2.4897,2.474,2.5485,2.5961,2.6692,2.7903,2.8408,2.9132,3.0198,3.1005,3.1433,3.1531,3.1544,3.1935,3.2729,3.2729,3.3146,3.3954,3.3954,3.4798,3.645,3.645,3.7257,3.8689,3.8689,3.8689,3.8836,4.0435,4.1095,4.1242,4.2873,4.3515,4.3515,4.3515,4.3515,4.3515,4.3515,4.3515,4.3515,4.3515,4.3515,4.3515,4.3515,4.3515,4.3515,4.3515,4.3515,4.3515,4.3515,4.3515,4.3515,4.3515,4.3515,4.3515,4.3515,4.3515,4.3515,4.3515,4.3515,4.3497,4.3445,4.3463,4.3515,4.3515,4.3515,4.3515,4.3515,4.3515,4.3515,4.3515,4.3515,4.3515,4.3515,4.3515,4.3515,4.3515,4.3515,4.3515,4.3515,4.2958,4.2099,4.0846,4.0754,4.0385,3.9716,3.9538,3.9074,3.8347,3.7625,3.7386,0.0,0.0,0.0,0.0,0.0,0.0,2.8284,0.0,2.749,0.0,0.0,0.0,0.0,0.0,0.0,0.0,2.4294,0.0,0.0,0.0,2.4337,2.4677,0.0,0.0,2.5301,2.5544,2.6071,2.7042,2.7262,2.7787,2.8778,2.912,2.9732,3.0687,3.0687,3.1091,3.1898,3.2375,3.2766,3.3109,3.3587,3.4394,3.5555,3.6083,3.6927,3.8028,3.8505,3.8689,3.8836,4.0435,4.1095,4.1242,4.2873,4.3515,4.3515,4.3515,4.3515,4.3515,4.3515,4.3515,4.3515,4.3515,4.3515,4.3515,4.3515,4.3515,4.3515,4.3515,4.3515,4.3515,4.3515,4.3515,4.3515,4.3515,4.3515,4.3515,4.3515,4.3515,4.3515,4.3515,4.3515,4.3515,4.3515,4.3515,4.3515,4.3515,4.3515,4.3515,4.3515,4.3515,4.3515,4.3515,4.3515,4.3515,4.3515,4.3515,4.3515,4.3515,4.3515,4.3515,4.3515,4.3286,4.2905,4.2321,4.2303,4.2176,4.1869,4.1379,4.112,4.0984,3.9438,3.8783,3.0692,0.0,0.0,0.0,0.0,0.0,0.0,0.0,0.0,0.0,0.0,0.0,0.0,0.0,0.0,0.0,0.0,2.4275,0.0,2.419,0.0,0.0,0.0,0.0,0.0,2.5081,2.5301,2.5915,2.6135,2.6539,2.71,2.7578,2.8338,2.9512,2.9769,3.0246,3.1054,3.1861,3.2362,3.2619,3.344,3.4197,3.5041,3.5899,3.6743,3.7529,3.8358,3.8689,3.8836,4.0435,4.1095,4.1242,4.2873,4.3515,4.3515,4.3515,4.3515,4.3515,4.3515,4.3515,4.3515,4.3515,4.3515,4.3515,4.3515,4.3515,4.3515,4.3515,4.3515,4.3515,4.3515,4.3515,4.3515,4.3515,4.3515,4.3515,4.3515,4.3515,4.3515,4.3515,4.3515,4.3515,4.3515,4.3515,4.3515,4.3515,4.3515,4.3515,4.3515,4.3515,4.3515,4.3515,4.3515,4.3515,4.3515,4.3515,4.3515,4.3515,4.3515,4.3515,4.3515,4.3515,4.3515,4.3515,4.3515,4.3515,4.3515,4.291,4.2737,4.2847,4.0984,4.0155,0.0,0.0,0.0,3.1852,0.0,0.0,0.0,0.0,2.9846,0.0,0.0,0.0,0.0,0.0,0.0,0.0,0.0,0.0,0.0,0.0,0.0,0.0,0.0,0.0,0.0,2.4226,2.4263,2.4263,2.5007,2.5448,2.5485,2.6953,2.7824,2.7871,2.862,2.9427,3.0246,3.1017,3.1825,3.2619,3.344,3.4197,3.5041,3.5899,3.6743,3.7529,3.8358,3.8689,3.8836,4.0435,4.1095,4.1242,4.2873,4.3515,4.3515,4.3515,4.3515,4.3515,4.3515,4.3515,4.3515,4.3515,4.3515,4.3515,4.3515,4.3515,4.3515,4.3515,4.3515,4.3515,4.3515,4.3515,4.3515,4.3515,4.3515,4.3515,4.3515,4.3515,4.3515,4.3515,4.3515,4.3515,4.3515,4.3515,4.3515,4.3515,4.3515,4.3515,4.3515,4.3515,4.3515,4.3515,4.3515,4.3515,4.3515,4.3515,4.3515,4.3515,4.3515,4.3515,4.3515,4.3515,4.3515,4.3515,4.3515,4.3515,4.3515,4.3478,4.3461,4.3443,4.1996,4.1483,0.0,0.0,3.2814,3.2545,0.0,0.0,0.0,0.0,0.0,0.0,0.0,0.0,0.0,0.0,0.0,0.0,0.0,0.0,0.0,0.0,0.0,0.0,0.0,0.0,0.0,0.0,2.419,2.419,2.4447,2.4824,2.5374,2.6429,2.7236,2.7798,2.9108,2.9904,3.021,3.1531,3.2326,3.2619,3.3977,3.4747,3.5041,3.645,3.7235,3.7529,3.8358,3.8689,3.8836,4.0435,4.1095,4.1242,4.2873,4.3515,4.3515,4.3515,4.3515,4.3515,4.3515,4.3515,4.3515,4.3515,4.3515,4.3515,4.3515,4.3515,4.3515,4.3515,4.3515,4.3515,4.3515,4.3515,4.3515,4.3515,4.3515,4.3515,4.3515,4.3515,4.3515,4.3515,4.3515,4.3515,4.3515,4.3515,4.3515,4.3515,4.3515,4.3515,4.3515,4.3515,4.3515,4.3515,4.3515,4.3515,4.3515,4.3515,4.3515,4.3515,4.3515,4.3515,4.3515,4.3515,4.3515,4.3515,4.3515,4.3515,4.3515,4.3515,4.3515,4.3497,4.3011,4.285,3.266,3.2968,0.0,3.2968,3.239,0.0,3.1328,0.0,3.1064,0.0,0.0,0.0,0.0,0.0,0.0,0.0,0.0,0.0,0.0,2.4294,0.0,0.0,0.0,0.0,0.0,2.419,2.419,2.419,2.419,2.442,2.4934,2.6025,2.6833,2.7346,2.9219,3.021,3.021,3.2082,3.3036,3.306,3.4674,3.5445,3.5518,3.6905,3.7492,3.7529,3.8358,3.8872,3.9239,4.0545,4.1279,4.1645,4.2983,4.3515,4.3515,4.3515,4.3515,4.3515,4.3515,4.3515,4.3515,4.3515,4.3515,4.3515,4.3515,4.3515,4.3515,4.3515,4.3515,4.3515,4.3515,4.3515,4.3515,4.3515,4.3515,4.3515,4.3515,4.3515,4.3515,4.3515,4.3515,4.3515,4.3515,4.3515,4.3515,4.3515,4.3515,4.3515,4.3515,4.3515,4.3515,4.3515,4.3515,4.3515,4.3515,4.3515,4.3515,4.3515,4.3515,4.3515,4.3515,4.3515,4.3772,4.4342,4.3808,4.3754,4.4342,4.3772,4.3515,4.3515,4.3515,4.3515]}]]